GFSSGP_con_sbcape_000.txt.gz
CAPE
1 0 0 0 0 0 0 0 0 0 0 0 0 0 0 0 0 0 1 51 16 30 28 783 1250 886 575 456 164 72 30 5 0 2 2 1 10 9 15 28 24 13 3 1 0 2 17 28 28
0 0 0 0 0 0 0 0 0 0 0 0 0 0 0 0 0 0 5 37 38 40 44 164 1007 919 812 387 231 115 48 14 0 0 14 8 24 13 19 16 13 5 3 0 0 1 5 13 18
0 0 0 0 0 0 0 0 0 0 0 0 0 0 0 0 0 0 14 60 71 67 88 237 1435 979 746 439 345 219 122 65 6 0 13 26 46 27 19 13 6 0 0 0 0 0 9 11 12
0 0 0 0 0 0 0 0 0 0 0 0 0 0 0 0 0 6 26 69 87 94 139 592 1493 1238 1086 539 473 260 189 91 55 7 6 21 43 56 25 19 8 0 0 0 0 0 0 1 8
0 0 0 0 0 0 0 0 0 0 0 0 0 0 0 0 1 1 64 91 93 124 184 228 1199 1033 968 557 377 269 247 120 68 9 18 37 42 248 32 25 16 5 3 1 8 15 9 3 0
0 0 0 0 0 0 0 0 0 0 0 0 0 0 0 0 2 18 122 119 114 183 294 183 736 1418 1245 752 645 366 316 237 134 13 19 28 104 229 132 46 21 15 14 9 6 25 28 28 25
0 0 0 0 0 0 0 0 0 0 0 0 0 0 0 0 0 24 148 139 193 263 371 291 280 803 1200 973 834 686 539 307 205 49 0 29 24 30 38 28 27 25 29 17 11 21 28 46 49
0 0 0 0 0 0 0 0 0 0 0 0 0 0 0 0 0 0 72 138 233 376 445 472 466 603 613 599 620 594 514 338 269 178 93 11 0 0 0 6 13 7 14 10 0 0 1 2 21
0 0 0 0 0 0 0 0 0 0 0 0 0 0 0 0 0 0 2 43 159 297 492 579 529 665 651 542 434 469 376 291 152 69 20 0 0 2 0 0 0 0 0 0 0 0 0 6 6
0 0 0 0 0 0 0 0 0 0 0 0 0 0 0 0 0 0 0 2 35 123 314 529 653 694 701 568 503 396 292 236 120 21 0 0 0 0 0 0 0 0 0 0 0 0 0 1 0
0 0 0 0 0 0 0 0 0 0 0 0 0 0 0 0 0 0 0 0 0 9 96 323 644 747 751 698 583 426 338 246 143 52 1 0 0 0 0 0 0 0 0 0 0 1 0 0 0
0 0 0 0 0 0 0 0 0 0 0 0 0 0 0 0 0 0 0 0 0 0 3 82 323 626 733 749 655 470 370 252 152 59 5 0 0 0 0 0 0 0 0 1 2 1 1 1 2
0 0 0 0 0 0 0 0 0 0 0 0 0 0 0 0 0 0 0 0 0 5 11 13 77 300 538 675 617 537 389 249 146 111 19 0 0 0 1 3 2 3 3 2 3 2 3 3 2
5 0 0 0 0 0 0 0 0 0 0 0 0 0 0 0 0 0 0 0 0 0 0 0 3 67 250 445 519 436 364 253 184 103 46 0 0 0 1 1 2 2 5 3 2 2 2 1 2
71 26 27 0 0 0 0 0 0 0 0 0 0 0 0 0 0 0 0 0 0 0 0 0 0 0 103 259 360 339 272 129 128 55 13 0 0 0 0 1 1 17 6 4 15 6 7 9 11
192 84 59 0 8 0 0 0 0 0 0 0 0 0 0 0 0 0 0 0 0 0 0 0 0 0 7 119 181 135 77 38 12 0 0 0 0 0 0 3 8 5 4 7 8 7 7 10 11
178 59 21 15 3 0 0 0 0 0 0 0 0 0 0 0 0 0 0 0 0 0 0 0 0 0 9 28 25 7 0 0 0 0 0 0 0 0 2 1 0 0 0 0 1 1 1 3 6
40 44 23 24 1 0 0 0 0 0 0 0 0 0 0 0 0 0 0 0 0 0 0 0 0 0 4 23 41 41 3 0 0 0 0 0 0 0 0 0 0 0 0 0 0 0 0 0 1
23 31 33 10 0 0 0 0 0 0 0 0 0 0 0 0 0 0 0 0 0 0 0 0 0 1 25 83 11 0 0 0 0 0 0 0 0 0 0 0 0 0 0 0 0 0 0 0 0
53 11 14 18 0 0 0 0 0 0 0 0 0 0 0 0 0 0 0 0 0 0 0 0 0 0 0 0 0 0 0 0 0 0 0 0 0 0 0 0 0 0 0 0 0 0 0 0 0
52 14 9 7 0 0 0 0 0 0 0 0 0 0 0 0 0 0 0 0 0 0 0 0 0 0 0 0 0 0 0 0 0 0 0 0 0 0 0 0 0 0 0 0 0 0 0 0 0
55 40 9 0 25 43 0 0 0 0 0 0 0 0 0 0 0 0 0 0 0 0 0 0 0 0 0 0 0 0 0 0 0 0 0 0 0 0 0 0 0 0 0 0 0 0 0 0 0
53 19 17 11 15 3 0 0 0 0 0 0 0 0 0 0 0 0 0 0 0 0 0 0 0 0 0 0 0 0 0 0 0 0 0 0 0 0 0 0 0 0 0 0 0 0 0 0 0
1 1 0 0 0 18 1 0 0 0 0 0 0 0 0 0 0 0 0 0 0 0 0 0 0 0 0 0 0 0 0 0 0 0 0 0 0 0 0 0 0 0 0 0 0 0 0 0 0
40 46 36 55 27 8 0 0 0 0 0 0 0 0 0 0 0 0 0 0 0 0 0 0 0 0 0 0 0 0 0 0 0 0 0 0 0 0 0 0 0 0 0 0 0 0 0 0 0
6 42 20 15 1 1 0 0 0 0 0 0 0 0 0 0 0 0 0 0 0 0 0 0 0 0 0 0 0 0 0 0 0 0 0 0 0 0 0 0 0 0 0 0 0 0 0 0 0
0 3 2 0 0 0 0 0 0 0 0 0 0 0 0 0 0 0 0 0 0 0 0 0 0 0 0 0 0 0 0 0 0 0 0 0 0 0 0 0 0 0 0 0 0 0 0 0 0
0 0 1 0 2 1 0 0 0 0 0 0 0 0 0 0 0 0 0 0 0 0 0 0 0 0 0 0 0 0 0 0 0 0 0 0 0 0 0 0 0 0 0 0 0 0 0 0 0
3 4 0 0 0 2 0 0 0 0 0 0 0 0 0 0 0 0 0 0 0 0 0 0 0 0 0 0 0 0 0 0 0 0 0 0 0 0 0 0 0 0 0 0 0 0 0 0 0
5 5 2 17 0 0 0 0 0 0 0 0 0 0 0 0 0 0 0 0 0 0 0 0 0 0 0 0 0 0 0 0 0 0 0 0 0 0 0 0 0 0 0 0 0 0 0 0 0

GFSSGP_con_sbcape_003.txt.gz
CAPE
17 0 0 0 0 0 0 1 16 4 8 0 0 0 0 0 0 0 12 30 0 0 72 354 1131 714 467 288 99 33 1 0 0 0 4 3 11 6 12 20 25 16 8 0 0 0 0 12 23
0 0 0 0 0 0 0 0 0 23 0 0 0 0 0 0 0 3 61 22 0 0 81 312 1335 721 637 255 95 31 19 2 0 0 5 15 16 13 22 7 15 16 16 0 0 0 0 0 19
0 0 0 0 0 0 3 0 1 0 0 0 0 0 0 0 0 0 24 32 9 2 39 632 1428 774 716 257 151 73 39 14 0 0 5 29 35 28 14 9 18 19 7 0 0 0 0 0 4
0 0 0 0 0 0 0 0 0 0 0 0 0 0 0 0 0 24 38 32 30 29 76 934 1429 904 625 348 281 123 64 43 27 0 10 22 57 149 60 31 15 11 8 0 0 0 0 0 0
0 0 0 0 0 0 0 0 0 0 0 0 0 0 0 0 0 6 53 37 46 65 148 369 1411 795 639 406 328 192 142 48 20 7 11 37 113 188 192 64 21 10 6 2 0 5 11 11 9
0 0 0 0 0 0 0 0 0 0 0 0 0 0 0 0 8 32 76 46 43 84 184 303 1074 1204 1093 666 504 294 231 164 87 9 0 10 112 256 229 167 22 15 15 20 1 1 3 23 25
0 2 2 0 0 0 0 0 0 0 0 0 0 0 2 0 0 19 87 56 80 145 261 217 261 354 1210 1032 912 647 453 315 171 60 0 15 49 54 77 45 1 11 7 15 0 0 0 0 0
0 1 4 0 0 0 1 0 0 0 0 0 0 0 12 0 0 0 52 85 114 232 326 330 333 433 383 326 680 564 425 364 150 94 94 71 47 9 0 0 0 0 0 0 0 0 0 0 0
0 1 0 0 0 0 0 0 0 0 0 0 0 0 0 0 0 0 3 49 136 266 385 449 408 508 439 358 499 475 413 292 197 116 81 51 0 0 0 0 0 0 0 0 0 1 1 0 0
0 0 0 0 0 1 0 0 0 0 0 0 0 0 0 0 0 0 0 0 57 191 319 480 524 567 540 344 359 283 269 198 163 66 26 1 0 0 0 0 0 0 0 0 0 0 0 0 0
25 0 0 0 1 0 0 0 0 0 0 0 0 0 0 0 0 0 0 0 1 40 196 329 577 634 649 572 437 308 218 174 97 50 26 0 0 0 0 0 0 0 0 0 0 0 0 0 0
38 9 0 3 5 0 0 0 0 0 0 0 0 0 0 0 0 0 0 0 0 5 23 151 348 646 716 647 541 379 257 199 135 84 41 14 1 0 1 1 1 1 2 3 6 13 12 15 1
31 15 3 2 12 0 0 0 0 0 0 0 0 0 0 0 0 0 0 0 0 8 17 47 145 372 594 691 591 449 330 227 170 178 143 92 108 99 82 56 47 53 30 32 44 42 35 33 15
48 64 23 15 16 0 0 0 0 0 0 0 0 0 0 0 0 0 0 0 0 5 9 20 52 118 342 510 545 463 345 268 240 198 188 141 114 112 105 113 68 76 44 48 10 26 6 14 28
158 109 57 17 35 4 3 0 0 0 0 0 0 0 0 0 0 0 0 0 0 0 0 0 0 5 151 367 462 405 335 219 244 206 138 97 57 65 73 72 50 27 4 5 19 18 7 8 5
135 189 70 20 44 9 6 0 0 0 0 0 0 0 0 0 0 0 0 0 0 0 0 0 0 0 55 249 366 312 247 191 145 80 66 26 8 8 28 9 0 0 0 0 0 0 0 0 0
202 158 52 74 46 9 23 0 0 0 0 0 0 0 0 0 0 0 0 0 0 0 0 0 0 6 72 212 210 123 86 88 88 45 7 0 0 0 0 0 0 0 0 0 0 0 0 0 0
153 91 98 127 32 20 22 0 0 0 0 0 0 0 0 0 0 0 0 0 0 0 0 0 4 36 57 68 82 109 11 0 0 0 0 0 0 0 0 0 0 0 0 0 0 0 0 0 0
123 229 170 150 53 50 8 0 0 0 0 0 0 0 0 0 0 0 0 0 0 0 0 9 23 59 112 140 0 0 0 0 0 0 0 0 0 0 0 0 0 0 0 0 0 0 0 0 0
192 202 230 107 8 0 2 0 0 0 0 0 0 0 0 0 0 0 0 0 0 0 0 0 0 8 0 0 0 0 0 0 0 0 0 0 0 0 0 0 0 0 0 0 0 0 0 0 0
204 184 179 92 37 0 5 0 0 0 0 0 0 0 0 0 0 0 0 0 0 0 0 0 0 0 0 0 0 0 0 0 0 0 0 0 0 0 0 0 0 0 0 0 0 0 0 0 0
251 95 36 60 62 39 7 0 0 0 0 0 0 0 0 0 0 0 0 0 0 0 0 0 0 0 0 0 0 0 0 0 0 0 0 0 0 0 0 0 0 0 0 0 0 0 0 0 0
110 22 41 103 149 100 17 4 0 0 0 0 0 0 0 0 0 0 0 0 0 0 0 0 0 0 0 0 0 0 0 0 0 0 0 0 0 0 0 0 0 0 0 0 0 0 0 0 0
70 101 110 104 90 26 8 7 2 0 0 0 0 0 0 0 0 0 0 0 0 0 0 0 0 0 0 0 0 0 0 0 0 0 0 0 0 0 0 0 0 0 0 0 0 0 0 0 0
32 51 104 39 80 19 15 27 11 0 0 0 0 0 0 0 0 0 0 0 0 0 0 0 0 0 0 0 0 0 0 0 0 0 0 0 0 0 0 0 0 0 0 0 0 0 0 0 0
8 39 4 13 12 14 0 0 0 0 0 0 0 0 0 0 0 0 0 0 0 0 0 0 0 0 0 0 0 0 0 0 0 0 0 0 0 0 0 0 0 0 0 0 0 0 0 0 0
0 79 2 13 0 59 0 0 0 0 0 0 0 0 0 0 0 0 0 0 0 0 0 0 0 0 0 0 0 0 0 0 0 0 0 0 0 0 0 0 0 0 0 0 0 0 0 0 0
15 52 13 24 5 32 8 5 14 0 0 0 0 0 0 0 0 0 0 0 0 0 0 0 0 0 0 0 0 0 0 0 0 0 0 0 0 0 0 0 0 0 0 0 0 0 0 0 0
4 35 26 28 15 76 83 25 4 0 0 0 0 0 0 0 0 0 0 0 0 0 0 0 0 0 0 0 0 0 0 0 0 0 0 0 0 0 0 0 0 0 0 0 0 0 0 0 0
32 18 41 101 1 1 2 0 0 0 0 0 0 0 0 0 0 0 0 0 0 0 0 0 0 0 0 0 0 0 0 0 0 0 0 0 0 0 0 0 0 0 0 0 0 0 0 0 0

GFSSGP_con_sbcape_006.txt.gz
CAPE
52 0 0 0 0 0 0 0 9 8 9 0 0 0 0 0 0 6 5 0 0 52 150 571 1335 1029 678 335 83 13 0 0 0 0 1 0 11 7 5 1 9 10 10 5 0 0 0 0 9
2 0 0 0 0 0 0 0 7 0 0 0 0 0 0 0 0 9 39 0 0 71 102 207 1433 938 647 427 101 37 13 0 0 0 21 28 19 22 18 7 9 11 3 0 0 0 0 0 2
46 0 0 0 0 0 0 0 0 0 0 0 0 0 0 0 0 0 24 0 0 14 152 757 1395 1224 721 258 84 38 28 4 0 0 5 29 38 56 20 15 12 10 0 0 0 0 0 0 0
0 0 0 0 0 0 0 0 0 0 0 0 0 0 0 0 0 4 24 0 0 8 490 1077 1401 1372 959 418 191 68 43 26 8 0 11 21 63 102 119 32 33 1 0 0 0 0 0 0 0
0 0 0 0 0 0 0 0 0 0 0 0 0 0 0 0 0 20 32 21 19 53 642 994 1399 1229 951 708 328 144 79 23 4 0 5 16 87 180 164 72 24 0 0 0 0 0 0 2 8
0 0 0 0 0 0 0 0 0 0 0 0 0 0 0 0 0 35 42 25 32 86 235 834 1070 956 1069 696 502 309 186 96 66 3 0 0 50 138 178 159 36 0 0 0 0 0 0 0 1
0 0 0 0 0 0 0 0 0 0 0 0 0 0 0 0 0 31 58 28 48 114 174 176 532 683 1100 958 906 600 496 346 155 48 4 45 25 29 75 121 21 0 0 0 0 0 0 0 0
0 0 0 0 0 0 0 0 0 0 0 0 0 0 0 0 0 8 72 75 71 154 186 150 246 252 452 305 572 514 399 358 167 95 69 37 31 29 44 56 54 3 0 0 0 0 0 0 0
11 0 0 0 0 0 0 0 0 0 0 0 0 0 0 0 0 0 2 81 104 191 223 221 238 321 251 238 335 424 320 287 186 92 57 33 0 0 0 0 0 0 0 0 0 0 0 0 0
3 0 0 0 0 0 0 0 0 0 0 0 0 0 0 0 0 0 0 11 80 166 234 304 295 342 285 233 217 185 111 120 101 72 37 1 0 0 0 0 0 0 1 1 0 0 14 2 0
5 0 0 0 0 0 0 0 0 0 0 0 0 0 0 0 0 0 0 0 11 72 176 297 362 352 341 242 199 179 143 107 64 36 4 0 0 0 0 0 0 0 0 0 0 3 0 0 0
20 11 0 0 0 8 0 0 0 0 0 0 0 0 0 0 0 0 0 0 0 7 116 226 311 411 393 358 276 177 109 89 45 32 14 0 0 0 0 0 0 0 0 0 3 1 3 3 4
20 15 10 1 0 0 2 0 0 0 0 0 0 0 0 0 0 0 0 0 0 0 0 47 170 355 444 432 322 246 126 104 78 91 85 56 52 46 25 18 26 26 10 10 5 5 5 3 3
50 38 23 10 1 1 2 0 0 0 0 0 0 0 0 0 0 0 0 0 0 0 3 7 25 136 340 432 372 280 190 125 131 139 128 101 67 54 54 41 8 4 2 4 6 7 1 1 0
50 48 70 13 4 6 2 0 0 0 0 0 0 0 0 0 0 0 0 0 0 0 0 0 0 6 147 287 345 216 151 145 159 121 78 66 47 8 25 1 0 0 0 0 0 0 0 0 0
49 57 7 0 10 8 4 0 0 0 0 0 0 0 0 0 0 0 0 0 0 0 0 0 0 0 34 223 229 188 126 96 54 47 22 0 0 0 0 0 0 0 0 0 0 0 0 0 0
47 9 1 0 16 7 9 0 0 0 0 0 0 0 0 0 0 0 0 0 0 0 0 0 0 0 39 147 31 11 7 0 0 0 0 0 0 0 0 0 0 0 0 0 0 0 0 0 0
4 32 1 7 4 44 3 9 0 0 0 0 0 0 0 0 0 0 0 0 0 0 0 0 0 14 36 0 0 0 0 0 0 0 0 0 0 0 0 0 0 0 0 0 0 0 0 0 0
7 21 155 25 71 78 6 6 0 0 0 0 0 0 0 0 0 0 0 0 0 0 0 0 0 0 0 0 0 0 0 0 0 0 0 0 0 0 0 0 0 0 0 0 0 0 0 0 0
2 26 25 56 154 69 41 18 0 0 0 0 0 0 0 0 0 0 0 0 0 0 0 0 0 0 0 0 0 0 0 0 0 0 0 0 0 0 0 0 0 0 0 0 0 0 0 0 0
26 23 88 60 147 46 20 2 0 0 0 0 0 0 0 0 0 0 0 0 0 0 0 0 0 0 0 0 0 0 0 0 0 0 0 0 0 0 0 0 0 0 0 0 0 0 0 0 0
13 0 25 4 110 5 0 0 0 0 0 0 0 0 0 0 0 0 0 0 0 0 0 0 0 0 0 0 0 0 0 0 0 0 0 0 0 0 0 0 0 0 0 0 0 0 0 0 0
1 7 31 20 2 25 0 0 0 0 0 0 0 0 0 0 0 0 0 0 0 0 0 0 0 0 0 0 0 0 0 0 0 0 0 0 0 0 0 0 0 0 0 0 0 0 0 0 0
17 21 3 71 0 31 0 0 10 0 0 0 0 0 0 0 0 0 0 0 0 0 0 0 0 0 0 0 0 0 0 0 0 0 0 0 0 0 0 0 0 0 0 0 0 0 0 0 0
151 94 52 37 6 5 0 38 0 0 0 0 0 0 0 0 0 0 0 0 0 0 0 0 0 0 0 0 0 0 0 0 0 0 0 0 0 0 0 0 0 0 0 0 0 0 0 0 0
71 24 1 26 2 2 0 0 2 0 0 0 0 0 0 0 0 0 0 0 0 0 0 0 0 0 0 0 0 0 0 0 0 0 0 0 0 0 0 0 0 0 0 0 0 0 0 0 0
28 0 0 10 0 0 0 0 0 0 0 0 0 0 0 0 0 0 0 0 0 0 0 0 0 0 0 0 0 0 0 0 0 0 0 0 0 0 0 0 0 0 0 0 0 0 0 0 0
15 0 10 12 1 11 0 0 0 0 0 0 0 0 0 0 0 0 0 0 0 0 0 0 0 0 0 0 0 0 0 0 0 0 0 0 0 0 0 0 0 0 0 0 0 0 0 0 0
44 42 24 7 4 3 1 0 0 0 0 0 0 0 0 0 0 0 0 0 0 0 0 0 0 0 0 0 0 0 0 0 0 0 0 0 0 0 0 0 0 0 0 0 0 0 0 0 0
22 17 1 7 0 0 0 0 0 0 0 0 0 0 0 0 0 0 0 0 0 0 0 0 0 0 0 0 0 0 0 0 0 0 0 0 0 0 0 0 0 0 0 0 0 0 0 0 0

GFSSGP_con_sbcape_009.txt.gz
CAPE
182 0 0 0 0 0 0 0 0 0 0 0 0 0 0 0 0 0 0 19 93 386 777 999 1443 1218 844 400 42 6 0 0 0 0 3 3 11 11 23 18 3 0 0 0 0 0 0 0 0
234 0 0 0 0 0 0 0 0 0 0 0 0 0 0 0 0 0 1 0 107 353 509 708 1508 1343 855 312 55 14 0 0 0 0 29 8 15 8 4 9 15 6 0 0 0 0 0 0 0
1 0 0 0 0 0 0 0 0 0 0 0 0 0 0 0 0 4 0 0 118 115 231 532 1567 1393 1068 309 81 31 8 0 0 0 3 27 42 59 29 18 19 1 0 0 0 0 0 0 0
0 0 0 0 0 0 0 0 0 0 0 0 0 0 0 0 0 0 0 0 8 102 299 1201 1454 1593 1093 379 66 38 18 6 0 0 3 9 50 79 145 45 32 0 0 0 0 0 0 0 0
0 0 0 0 0 0 0 0 0 0 0 0 0 0 0 0 0 0 0 0 151 301 465 961 1655 1465 898 343 137 67 31 14 0 0 0 1 80 133 132 49 10 0 0 0 0 0 0 0 5
0 0 0 0 0 0 0 0 0 0 0 0 0 0 0 0 0 1 0 0 413 526 730 966 1353 1286 1130 808 394 218 85 34 19 0 0 0 24 88 198 149 23 2 0 0 0 0 0 0 0
0 0 0 0 0 0 0 0 0 0 0 0 0 0 0 0 0 1 2 1 154 456 682 690 674 867 894 922 797 584 433 265 76 31 2 34 11 18 75 219 71 19 8 1 10 2 0 0 0
0 0 0 0 0 0 0 0 0 0 0 0 0 0 0 0 0 0 0 10 35 185 234 457 476 502 667 549 702 524 474 386 284 101 54 22 11 7 56 111 99 31 22 15 0 0 0 0 0
0 0 0 0 0 0 0 0 0 0 0 0 0 0 0 0 0 1 0 12 25 51 87 179 322 236 328 210 339 376 307 249 151 77 37 13 0 0 0 0 11 30 0 0 0 2 15 91 27
0 0 0 0 0 0 0 0 0 0 0 0 0 0 0 0 0 0 0 11 20 74 73 48 169 191 193 190 225 168 119 115 73 39 5 1 0 0 0 0 0 0 17 57 32 84 292 129 0
0 0 0 0 0 0 0 0 0 0 0 0 0 0 0 0 0 0 0 0 4 40 83 110 30 102 83 252 114 49 36 43 28 13 1 0 0 0 0 0 0 0 0 0 0 0 1 9 3
0 0 0 0 0 0 0 0 0 0 0 0 0 0 0 0 0 0 0 0 0 12 75 151 162 137 95 40 77 62 49 26 0 0 0 0 0 0 0 0 0 0 0 0 7 4 3 5 4
0 0 0 0 0 0 0 0 0 0 0 0 0 0 0 0 0 0 0 0 0 0 27 110 151 172 132 97 88 28 10 7 0 2 2 3 11 40 20 9 12 1 1 2 1 0 0 0 0
0 0 0 0 0 0 0 0 0 0 0 0 0 0 0 0 0 0 0 0 0 0 5 47 45 181 166 133 94 39 17 8 12 67 59 65 25 20 33 1 0 0 0 0 0 0 0 0 0
9 6 0 0 0 0 0 0 0 0 0 0 0 0 0 0 0 0 0 0 0 0 0 0 1 58 165 185 70 46 26 56 62 14 1 3 2 0 0 0 0 0 0 0 0 0 0 0 0
1 17 13 0 0 0 8 0 0 0 0 0 0 0 0 0 0 0 0 0 0 0 0 0 0 0 70 131 69 51 10 0 0 0 0 0 0 0 0 0 0 0 0 0 0 0 0 0 0
9 4 17 11 0 13 23 0 0 0 0 0 0 0 0 0 0 0 0 0 0 0 0 0 0 0 40 13 0 0 0 0 0 0 0 0 0 0 0 0 0 0 0 0 0 0 0 0 0
21 14 1 6 0 18 12 0 0 0 0 0 0 0 0 0 0 0 0 0 0 0 0 0 0 0 0 0 0 0 0 0 0 0 0 0 0 0 0 0 0 0 0 0 0 0 0 0 0
0 0 14 5 0 11 0 0 0 0 0 0 0 0 0 0 0 0 0 0 0 0 0 0 0 0 0 0 0 0 0 0 0 0 0 0 0 0 0 0 0 0 0 0 0 0 0 0 0
4 6 0 0 0 31 12 0 0 0 0 0 0 0 0 0 0 0 0 0 0 0 0 0 0 0 0 0 0 0 0 0 0 0 0 0 0 0 0 0 0 0 0 0 0 0 0 0 0
12 3 0 0 0 7 11 2 0 0 0 0 0 0 0 0 0 0 0 0 0 0 0 0 0 0 0 0 0 0 0 0 0 0 0 0 0 0 0 0 0 0 0 0 0 0 0 0 0
4 0 2 7 31 18 46 39 0 0 0 0 0 0 0 0 0 0 0 0 0 0 0 0 0 0 0 0 0 0 0 0 0 0 0 0 0 0 0 0 0 0 0 0 0 0 0 0 0
0 0 0 27 47 39 0 9 0 0 0 0 0 0 0 0 0 0 0 0 0 0 0 0 0 0 0 0 0 0 0 0 0 0 0 0 0 0 0 0 0 0 0 0 0 0 0 0 0
1 6 16 51 40 53 0 3 0 0 0 0 0 0 0 0 0 0 0 0 0 0 0 0 0 0 0 0 0 0 0 0 0 0 0 0 0 0 0 0 0 0 0 0 0 0 0 0 0
37 21 52 61 42 7 11 2 0 0 0 0 0 0 0 0 0 0 0 0 0 0 0 0 0 0 0 0 0 0 0 0 0 0 0 0 0 0 0 0 0 0 0 0 0 0 0 0 0
0 9 32 4 0 0 43 1 0 0 0 0 0 0 0 0 0 0 0 0 0 0 0 0 0 0 0 0 0 0 0 0 0 0 0 0 0 0 0 0 0 0 0 0 0 0 0 0 0
0 39 0 14 36 37 2 0 0 0 0 0 0 0 0 0 0 0 0 0 0 0 0 0 0 0 0 0 0 0 0 0 0 0 0 0 0 0 0 0 0 0 0 0 0 0 0 0 0
102 10 44 13 17 47 3 0 0 0 0 0 0 0 0 0 0 0 0 0 0 0 0 0 0 0 0 0 0 0 0 0 0 0 0 0 0 0 0 0 0 0 0 0 0 0 0 0 0
3 10 38 26 9 4 0 0 0 0 0 0 0 0 0 0 0 0 0 0 0 0 0 0 0 0 0 0 0 0 0 0 0 0 0 0 0 0 0 0 0 0 0 0 0 0 0 0 0
30 13 8 2 0 3 0 0 0 0 0 0 0 0 0 0 0 0 0 0 0 0 0 0 0 0 0 0 0 0 0 0 0 0 0 0 0 0 0 0 0 0 0 0 0 0 0 0 0

GFSSGP_con_sbcape_012.txt.gz
CAPE
220 0 0 0 0 0 0 0 0 0 0 0 0 0 0 0 0 0 0 4 69 578 886 1105 1510 1393 797 337 43 9 0 0 0 1 4 8 8 21 25 23 7 0 0 0 0 0 0 0 0
375 0 0 0 0 0 0 0 0 0 0 0 0 0 0 0 0 0 18 80 239 625 902 827 1470 1230 709 143 43 6 0 0 0 0 0 3 2 30 15 9 1 0 0 0 0 0 0 0 0
0 0 0 0 0 0 0 0 0 0 0 0 0 0 0 0 0 0 0 110 297 563 656 850 1582 1512 829 247 52 16 0 0 0 0 7 28 30 25 21 3 4 0 0 0 0 0 0 0 0
0 0 0 0 0 0 0 0 0 0 0 0 0 0 0 0 0 0 6 128 142 196 322 952 1697 1570 1212 425 84 41 8 0 0 0 2 18 47 78 53 19 0 0 0 0 0 0 0 0 0
0 0 0 0 0 0 0 0 0 0 0 0 0 0 0 0 0 0 0 98 83 88 202 1128 1658 1671 1005 227 91 55 22 9 0 0 0 3 44 100 118 82 7 0 0 0 0 0 0 0 2
0 0 0 0 0 0 0 0 0 0 0 0 0 0 0 0 0 0 0 55 185 241 591 914 1590 1367 850 460 241 95 28 10 0 0 0 1 9 77 143 52 9 1 0 0 6 3 8 1 0
0 0 0 0 0 0 0 0 0 0 0 0 0 0 0 0 0 0 0 86 379 491 719 816 1004 858 893 764 594 403 155 76 34 6 3 20 22 23 127 198 75 35 8 10 12 21 4 6 6
0 0 0 0 0 0 0 0 0 0 0 0 0 0 0 0 0 0 0 234 413 562 655 625 598 676 584 661 646 543 441 307 208 109 36 54 19 3 46 228 161 55 41 50 24 0 2 23 45
0 0 0 0 0 0 0 0 0 0 0 0 0 0 0 0 0 0 0 0 145 395 473 520 388 410 345 302 377 408 394 320 192 75 28 10 0 0 0 13 25 101 73 22 29 55 115 261 182
0 0 0 0 0 0 0 0 0 0 0 0 0 0 0 0 0 0 0 0 5 110 161 309 307 209 249 338 230 188 128 98 32 19 1 0 0 0 0 0 16 97 103 140 121 198 380 255 18
0 0 0 0 0 0 0 0 0 0 0 0 0 0 0 0 0 0 0 1 35 28 108 179 210 102 146 125 69 49 19 20 12 5 0 0 0 0 0 0 0 0 0 0 0 0 1 8 4
0 0 0 0 0 0 0 0 0 0 0 0 0 0 0 0 0 0 0 0 0 3 36 107 151 96 90 105 75 19 2 0 0 0 0 0 0 0 0 0 0 0 0 0 0 0 0 0 0
0 0 0 0 0 0 0 0 0 0 0 0 0 0 0 0 0 0 0 0 0 0 55 55 40 110 68 140 58 8 8 1 0 0 0 0 0 7 4 1 0 0 0 0 0 0 0 0 0
0 0 0 0 0 0 0 0 0 0 0 0 0 0 0 0 0 0 0 0 0 0 34 37 75 49 27 48 11 0 0 0 0 6 15 16 0 0 0 0 0 0 0 0 0 0 0 0 0
0 0 0 0 0 0 0 0 0 0 0 0 0 0 0 0 0 0 0 0 0 0 0 9 75 76 74 70 6 0 2 20 0 0 0 0 0 0 0 0 0 0 0 0 0 0 0 0 0
0 0 3 0 0 0 0 0 0 0 0 0 0 0 0 0 0 0 0 0 0 0 0 0 0 54 76 55 35 7 0 0 0 0 0 0 0 0 0 0 0 0 0 0 0 0 0 0 0
2 3 0 3 0 0 0 0 0 0 0 0 0 0 0 0 0 0 0 0 0 0 0 0 0 18 15 0 0 0 0 0 0 0 0 0 0 0 0 0 0 0 0 0 0 0 0 0 0
4 2 0 0 0 0 0 0 0 0 0 0 0 0 0 0 0 0 0 0 0 0 0 0 0 0 0 0 0 0 0 0 0 0 0 0 0 0 0 0 0 0 0 0 0 0 0 0 0
0 0 0 0 0 0 0 0 0 0 0 0 0 0 0 0 0 0 0 0 0 0 0 0 0 0 0 0 0 0 0 0 0 0 0 0 0 0 0 0 0 0 0 0 0 0 0 0 0
0 0 0 0 0 0 1 0 0 0 0 0 0 0 0 0 0 0 0 0 0 0 0 0 0 0 0 0 0 0 0 0 0 0 0 0 0 0 0 0 0 0 0 0 0 0 0 0 0
0 0 0 0 0 0 0 0 0 0 0 0 0 0 0 0 0 0 0 0 0 0 0 0 0 0 0 0 0 0 0 0 0 0 0 0 0 0 0 0 0 0 0 0 0 0 0 0 0
4 1 1 11 27 5 27 4 0 0 0 0 0 0 0 0 0 0 0 0 0 0 0 0 0 0 0 0 0 0 0 0 0 0 0 0 0 0 0 0 0 0 0 0 0 0 0 0 0
3 0 0 14 20 32 0 25 0 0 0 0 0 0 0 0 0 0 0 0 0 0 0 0 0 0 0 0 0 0 0 0 0 0 0 0 0 0 0 0 0 0 0 0 0 0 0 0 0
5 23 27 27 33 11 0 8 0 0 0 0 0 0 0 0 0 0 0 0 0 0 0 0 0 0 0 0 0 0 0 0 0 0 0 0 0 0 0 0 0 0 0 0 0 0 0 0 0
13 28 11 15 18 5 0 0 0 0 0 0 0 0 0 0 0 0 0 0 0 0 0 0 0 0 0 0 0 0 0 0 0 0 0 0 0 0 0 0 0 0 0 0 0 0 0 0 0
12 3 2 5 7 0 40 0 0 0 0 0 0 0 0 0 0 0 0 0 0 0 0 0 0 0 0 0 0 0 0 0 0 0 0 0 0 0 0 0 0 0 0 0 0 0 0 0 0
8 27 0 0 9 21 0 0 0 0 0 0 0 0 0 0 0 0 0 0 0 0 0 0 0 0 0 0 0 0 0 0 0 0 0 0 0 0 0 0 0 0 0 0 0 0 0 0 0
12 5 5 19 7 1 7 1 0 0 0 0 0 0 0 0 0 0 0 0 0 0 0 0 0 0 0 0 0 0 0 0 0 0 0 0 0 0 0 0 0 0 0 0 0 0 0 0 0
10 24 30 0 4 55 13 0 0 0 0 0 0 0 0 0 0 0 0 0 0 0 0 0 0 0 0 0 0 0 0 0 0 0 0 0 0 0 0 0 0 0 0 0 0 0 0 0 0
1 0 1 27 0 2 1 0 0 0 0 0 0 0 0 0 0 0 0 0 0 0 0 0 0 0 0 0 0 0 0 0 0 0 0 0 0 0 0 0 0 0 0 0 0 0 0 0 0

GFSSGP_con_sbcape_015.txt.gz
CAPE
186 0 0 0 0 0 0 0 0 0 0 0 0 0 0 0 0 0 0 16 78 278 1016 1391 1667 1682 798 251 46 0 0 0 0 0 61 15 11 5 23 18 0 0 0 0 0 0 0 0 0
0 0 0 0 0 0 0 0 0 0 0 0 0 0 0 0 0 0 30 42 303 717 993 928 1801 1448 868 230 46 5 0 0 0 0 0 4 10 14 13 2 0 0 0 0 0 0 0 0 0
0 0 0 0 0 0 0 0 0 0 0 0 0 0 0 5 4 0 0 127 545 667 821 769 1658 1283 756 243 62 12 0 0 0 6 5 8 12 17 10 0 0 0 0 0 0 0 0 0 0
0 0 0 0 0 0 0 0 0 0 0 0 0 0 0 0 0 0 45 195 357 475 592 1009 1674 1569 1136 329 90 24 0 0 0 0 9 26 53 49 31 29 13 0 0 0 0 0 0 0 0
0 0 0 0 0 0 0 0 0 0 0 0 0 0 0 0 0 4 137 205 195 238 272 1087 1794 1641 1036 452 115 64 4 0 0 0 0 22 47 71 102 94 9 0 0 0 0 0 0 0 0
0 0 0 0 0 0 0 0 0 0 0 0 0 0 0 0 0 0 99 100 95 172 289 1097 1707 1671 1333 571 268 121 39 12 0 0 0 3 14 82 98 66 13 0 0 0 0 2 2 10 5
0 0 0 0 0 0 0 0 0 0 0 0 0 0 0 0 0 0 2 77 123 201 474 879 1259 1351 958 650 529 369 94 48 10 0 0 12 18 32 161 120 37 20 14 0 5 15 5 1 15
0 0 0 0 0 0 0 0 0 0 0 0 0 0 0 0 0 0 0 254 293 495 616 768 886 751 532 463 545 470 290 221 160 34 12 36 13 0 28 230 150 72 42 41 44 19 19 55 103
0 0 0 0 0 0 0 0 0 0 0 0 0 0 0 0 0 0 2 242 438 599 603 678 626 572 470 434 408 526 439 263 190 70 8 2 0 0 0 2 18 73 82 88 59 114 174 306 213
0 0 0 0 0 0 0 0 0 0 0 0 0 0 0 0 0 0 0 195 325 552 449 529 428 395 294 423 291 243 229 170 56 12 0 0 0 0 0 0 3 47 152 127 96 165 166 22 3
0 0 0 0 0 0 0 0 0 0 0 0 0 0 0 0 0 0 0 0 241 384 308 450 323 237 241 309 155 135 42 49 6 0 0 0 0 0 0 0 0 0 0 0 0 0 0 0 0
0 0 0 0 0 0 0 0 0 0 0 0 0 0 0 0 0 0 0 0 0 7 161 301 243 119 144 103 83 80 12 0 0 0 0 0 0 0 0 0 0 0 0 0 0 0 0 0 0
0 0 0 0 0 0 0 0 0 0 0 0 0 0 0 0 0 0 0 0 0 0 12 137 134 82 116 71 60 24 16 0 0 0 0 0 0 0 1 0 0 0 0 0 0 0 0 0 0
0 0 0 0 0 0 0 0 0 0 0 0 0 0 0 0 0 0 0 0 0 0 0 6 83 110 113 161 60 39 6 3 0 0 0 0 0 0 0 0 0 0 0 0 0 0 0 0 0
0 0 0 0 0 0 0 0 0 0 0 0 0 0 0 0 0 0 0 0 0 0 0 0 32 43 79 138 45 27 6 0 0 0 0 0 0 0 0 0 0 0 0 0 0 0 0 0 0
8 0 0 0 0 0 0 0 0 0 0 0 0 0 0 0 0 0 0 0 0 0 0 0 101 43 38 21 42 28 0 0 0 0 0 0 0 0 0 0 0 0 0 0 0 0 0 0 0
12 2 0 0 0 0 0 0 0 0 0 0 0 0 0 0 0 0 0 0 0 0 0 0 22 51 3 0 0 0 0 0 0 0 0 0 0 0 0 0 0 0 0 0 0 0 0 0 0
0 5 1 0 1 0 0 0 0 0 0 0 0 0 0 0 0 0 0 0 0 0 0 0 0 0 0 0 0 0 0 0 0 0 0 0 0 0 0 0 0 0 0 0 0 0 0 0 0
0 0 0 0 0 0 0 0 0 0 0 0 0 0 0 0 0 0 0 0 0 0 0 0 0 0 0 0 0 0 0 0 0 0 0 0 0 0 0 0 0 0 0 0 0 0 0 0 0
0 0 1 0 0 0 0 0 0 0 0 0 0 0 0 0 0 0 0 0 0 0 0 0 0 0 0 0 0 0 0 0 0 0 0 0 0 0 0 0 0 0 0 0 0 0 0 0 0
0 1 1 0 0 0 0 0 0 0 0 0 0 0 0 0 0 0 0 0 0 0 0 0 0 0 0 0 0 0 0 0 0 0 0 0 0 0 0 0 0 0 0 0 0 0 0 0 0
3 0 0 0 2 0 0 0 0 0 0 0 0 0 0 0 0 0 0 0 0 0 0 0 0 0 0 0 0 0 0 0 0 0 0 0 0 0 0 0 0 0 0 0 0 0 0 0 0
5 1 2 14 25 9 0 10 0 0 0 0 0 0 0 0 0 0 0 0 0 0 0 0 0 0 0 0 0 0 0 0 0 0 0 0 0 0 0 0 0 0 0 0 0 0 0 0 0
5 4 8 13 4 6 0 0 0 0 0 0 0 0 0 0 0 0 0 0 0 0 0 0 0 0 0 0 0 0 0 0 0 0 0 0 0 0 0 0 0 0 0 0 0 0 0 0 0
1 13 16 18 26 2 0 0 0 0 0 0 0 0 0 0 0 0 0 0 0 0 0 0 0 0 0 0 0 0 0 0 0 0 0 0 0 0 0 0 0 0 0 0 0 0 0 0 0
0 0 3 0 0 0 0 0 0 0 0 0 0 0 0 0 0 0 0 0 0 0 0 0 0 0 0 0 0 0 0 0 0 0 0 0 0 0 0 0 0 0 0 0 0 0 0 0 0
14 11 0 2 0 25 1 0 0 0 0 0 0 0 0 0 0 0 0 0 0 0 0 0 0 0 0 0 0 0 0 0 0 0 0 0 0 0 0 0 0 0 0 0 0 0 0 0 0
0 0 18 13 13 3 0 1 0 0 0 0 0 0 0 0 0 0 0 0 0 0 0 0 0 0 0 0 0 0 0 0 0 0 0 0 0 0 0 0 0 0 0 0 0 0 0 0 0
1 12 23 1 0 5 0 0 0 0 0 0 0 0 0 0 0 0 0 0 0 0 0 0 0 0 0 0 0 0 0 0 0 0 0 0 0 0 0 0 0 0 0 0 0 0 0 0 0
1 0 0 88 0 0 2 0 0 0 0 0 0 0 0 0 0 0 0 0 0 0 0 0 0 0 0 0 0 0 0 0 0 0 0 0 0 0 0 0 0 0 0 0 0 0 0 0 0

GFSSGP_con_sbcape_018.txt.gz
CAPE
10 0 0 0 0 0 0 0 0 0 0 0 0 0 0 0 0 0 0 7 25 50 276 1330 1739 1541 730 160 52 3 0 0 0 31 70 23 15 8 21 17 0 0 0 0 0 0 0 0 0
0 0 0 0 0 0 0 0 0 0 0 0 0 0 0 2 0 1 44 19 137 334 1015 1093 1823 1531 814 245 78 4 0 0 0 13 20 7 14 11 5 0 0 0 0 0 0 0 0 0 0
0 0 0 0 0 0 0 0 0 0 0 0 0 0 0 5 5 2 2 75 477 837 944 982 1890 1583 926 391 94 28 0 0 0 0 0 13 13 14 0 0 0 0 0 0 0 0 0 0 0
0 0 0 0 0 0 0 0 0 0 0 0 0 0 0 0 0 0 51 384 509 598 674 1271 1834 1651 1229 443 135 52 1 0 0 1 14 33 29 21 10 7 18 0 0 0 0 0 0 0 0
0 0 0 0 0 0 0 0 0 0 0 0 0 0 0 0 0 29 217 401 396 438 524 1299 1857 1525 922 535 194 74 12 0 0 0 4 30 33 47 49 41 14 0 0 0 0 0 0 0 0
0 0 0 0 0 0 0 0 0 0 0 0 0 0 0 0 0 90 206 281 291 418 512 1144 1714 1727 1337 754 352 128 47 2 0 0 0 14 23 77 103 104 17 0 0 0 0 2 1 3 2
0 0 0 0 0 0 0 0 0 0 0 0 0 0 0 0 0 26 99 67 143 309 512 1009 1454 1489 1318 1013 633 460 138 97 2 0 0 11 14 25 127 69 16 7 2 5 8 12 12 5 33
0 0 0 0 0 0 0 0 0 0 0 0 0 0 0 0 0 0 5 135 115 287 518 839 1133 1209 913 566 620 501 353 217 120 26 17 8 4 0 8 202 124 70 46 32 55 44 59 117 151
0 0 0 0 0 0 0 0 0 0 0 0 0 0 0 0 0 0 9 313 370 495 522 717 841 742 491 372 419 481 357 228 183 30 0 0 0 0 0 0 6 11 37 80 68 153 187 98 26
0 0 0 0 0 0 0 0 0 0 0 0 0 0 0 0 0 0 0 137 499 582 595 629 647 584 462 535 353 297 269 159 71 11 0 0 0 0 0 0 0 2 17 2 11 27 1 0 0
0 0 0 0 0 0 0 0 0 0 0 0 0 0 0 0 0 0 0 4 290 444 573 565 468 430 382 458 217 175 143 98 25 0 0 0 0 0 0 0 0 0 0 0 0 0 0 0 0
0 0 0 0 0 0 0 0 0 0 0 0 0 0 0 0 0 0 0 0 0 130 392 517 461 303 261 197 160 127 83 31 1 0 0 0 0 0 0 0 0 0 0 0 0 0 0 0 0
0 0 0 0 0 0 0 0 0 0 0 0 0 0 0 0 0 0 0 0 0 0 19 247 340 236 198 105 81 75 69 15 1 0 0 0 0 0 0 0 0 0 0 0 0 0 0 0 0
0 0 0 0 0 0 0 0 0 0 0 0 0 0 0 0 0 0 0 0 0 0 0 54 221 195 95 83 33 30 22 1 0 0 0 0 0 0 0 0 0 0 0 0 0 0 0 0 0
0 0 0 0 0 0 0 0 0 0 0 0 0 0 0 0 0 0 0 0 0 0 0 0 128 122 84 85 28 5 0 5 0 0 0 0 0 0 0 0 0 0 0 0 0 0 0 0 0
7 6 2 0 0 0 0 0 0 0 0 0 0 0 0 0 0 0 0 0 0 0 0 0 57 82 69 101 22 6 1 0 0 0 0 0 0 0 0 0 0 0 0 0 0 0 0 0 0
1 0 1 1 0 0 0 0 0 0 0 0 0 0 0 0 0 0 0 0 0 0 0 0 1 9 11 1 0 0 0 0 0 0 0 0 0 0 0 0 0 0 0 0 0 0 0 0 0
0 1 2 1 0 0 0 0 0 0 0 0 0 0 0 0 0 0 0 0 0 0 0 0 0 0 0 0 0 0 0 0 0 0 0 0 0 0 0 0 0 0 0 0 0 0 0 0 0
0 0 0 0 0 0 0 0 0 0 0 0 0 0 0 0 0 0 0 0 0 0 0 0 0 0 0 0 0 0 0 0 0 0 0 0 0 0 0 0 0 0 0 0 0 0 0 0 0
0 0 0 0 0 0 0 0 0 0 0 0 0 0 0 0 0 0 0 0 0 0 0 0 0 0 0 0 0 0 0 0 0 0 0 0 0 0 0 0 0 0 0 0 0 0 0 0 0
0 0 0 0 0 0 0 0 0 0 0 0 0 0 0 0 0 0 0 0 0 0 0 0 0 0 0 0 0 0 0 0 0 0 0 0 0 0 0 0 0 0 0 0 0 0 0 0 0
0 0 0 1 1 1 0 0 0 0 0 0 0 0 0 0 0 0 0 0 0 0 0 0 0 0 0 0 0 0 0 0 0 0 0 0 0 0 0 0 0 0 0 0 0 0 0 0 0
0 0 0 1 8 3 1 12 0 0 0 0 0 0 0 0 0 0 0 0 0 0 0 0 0 0 0 0 0 0 0 0 0 0 0 0 0 0 0 0 0 0 0 0 0 0 0 0 0
0 0 1 4 11 10 0 0 0 0 0 0 0 0 0 0 0 0 0 0 0 0 0 0 0 0 0 0 0 0 0 0 0 0 0 0 0 0 0 0 0 0 0 0 0 0 0 0 0
2 34 6 9 10 0 0 0 0 0 0 0 0 0 0 0 0 0 0 0 0 0 0 0 0 0 0 0 0 0 0 0 0 0 0 0 0 0 0 0 0 0 0 0 0 0 0 0 0
0 0 1 0 0 0 0 0 0 0 0 0 0 0 0 0 0 0 0 0 0 0 0 0 0 0 0 0 0 0 0 0 0 0 0 0 0 0 0 0 0 0 0 0 0 0 0 0 0
30 1 0 4 0 6 0 0 0 0 0 0 0 0 0 0 0 0 0 0 0 0 0 0 0 0 0 0 0 0 0 0 0 0 0 0 0 0 0 0 0 0 0 0 0 0 0 0 0
1 0 20 2 0 0 0 0 0 0 0 0 0 0 0 0 0 0 0 0 0 0 0 0 0 0 0 0 0 0 0 0 0 0 0 0 0 0 0 0 0 0 0 0 0 0 0 0 0
5 16 8 1 5 0 0 0 0 9 0 0 0 0 0 0 0 0 0 0 0 0 0 0 0 0 0 0 0 0 0 0 0 0 0 0 0 0 0 0 0 0 0 0 0 0 0 0 0
0 0 0 3 0 0 0 0 1 0 0 0 0 0 0 0 0 0 0 0 0 0 0 0 0 0 0 0 0 0 0 0 0 0 0 0 0 0 0 0 0 0 0 0 0 0 0 0 0

GFSSGP_con_sbcape_021.txt.gz
CAPE
0 0 0 0 0 0 0 0 0 0 0 0 0 0 0 0 0 16 6 51 31 234 692 1180 1738 1439 768 161 62 6 0 0 0 37 62 34 25 6 17 16 0 0 0 0 0 0 3 5 1
0 0 0 0 0 0 0 0 0 0 0 0 0 0 0 0 4 16 78 57 94 482 835 940 1820 1568 889 262 86 5 0 0 0 56 40 26 14 2 0 0 0 0 0 0 0 0 0 0 0
0 0 0 0 0 0 0 0 0 0 0 0 0 0 0 0 0 3 19 85 291 592 1195 1098 1987 1659 1034 428 120 28 0 0 0 16 20 0 4 1 0 0 0 0 0 0 0 0 0 0 0
0 0 0 0 0 0 0 0 0 0 0 0 0 0 0 0 1 0 70 522 677 978 1362 1452 1967 1741 1303 768 171 69 1 0 0 0 0 18 8 1 0 2 7 0 0 0 0 0 0 0 0
0 0 0 0 0 0 0 0 0 0 0 0 0 0 0 0 0 33 334 713 791 1104 1226 1452 1984 1784 1351 678 286 106 35 0 0 0 11 23 36 38 50 67 17 0 0 0 0 1 4 3 1
0 0 0 0 0 0 0 0 0 0 0 0 0 0 0 0 4 290 589 795 860 1142 1156 1518 1723 1665 1375 935 480 175 69 15 0 0 3 20 33 87 61 43 16 0 0 0 0 3 2 1 2
0 0 0 0 0 0 0 0 0 0 0 0 0 0 0 0 2 397 508 587 843 1021 1074 1493 1547 1449 1272 1040 696 482 146 80 14 5 0 8 14 30 128 75 27 8 0 0 10 34 30 32 78
0 0 0 0 0 0 0 0 0 0 0 0 0 0 0 0 2 305 354 337 502 819 1074 1310 1603 1603 1310 892 684 569 405 256 88 33 7 2 0 0 16 111 78 59 46 44 72 92 140 139 76
0 0 0 0 0 0 0 0 0 0 0 0 0 0 0 0 0 115 423 514 453 561 886 1228 1513 1595 1293 924 585 503 367 213 110 20 0 0 0 0 0 0 0 0 27 78 54 66 0 0 0
0 0 0 0 0 0 0 0 0 0 0 0 0 0 0 0 0 32 246 604 727 712 742 1095 1366 1504 1239 742 651 516 350 216 159 58 10 0 0 0 0 0 0 0 0 0 1 0 0 0 0
0 0 0 0 0 0 0 0 0 0 0 0 0 0 0 0 0 0 13 98 585 762 865 861 1128 1127 1239 973 674 559 465 323 158 67 8 0 0 0 0 0 0 0 0 0 0 0 0 0 0
0 0 0 0 0 0 0 0 0 0 0 0 0 0 0 0 0 0 6 15 133 540 840 995 981 1021 988 955 706 563 438 370 240 102 10 0 0 0 0 0 0 0 0 0 0 0 0 0 0
0 0 0 0 0 0 0 0 0 0 0 0 0 0 0 0 0 0 0 0 0 116 557 939 1015 997 881 783 671 543 409 313 236 101 24 0 0 0 0 0 0 0 0 0 0 0 0 0 0
0 0 0 0 0 0 0 0 0 0 0 0 0 0 0 0 0 0 0 0 0 0 5 405 889 959 865 830 559 503 401 293 162 109 45 1 0 0 0 0 0 0 0 0 0 0 0 0 0
0 0 0 0 0 0 0 0 0 0 0 0 0 0 0 0 0 0 0 0 0 0 0 0 384 800 789 783 563 344 318 223 133 68 3 0 0 0 0 0 0 0 0 0 0 0 0 0 0
7 1 0 0 0 0 0 0 0 0 0 0 0 0 0 0 0 0 0 0 0 0 0 0 2 481 666 628 420 261 222 65 0 0 0 0 0 0 0 0 0 0 0 0 0 0 0 0 0
0 0 0 0 0 0 0 0 0 0 0 0 0 0 0 0 0 0 0 0 0 0 0 0 13 319 432 369 258 83 0 0 0 0 0 0 0 0 0 0 0 0 0 0 0 0 0 0 0
0 0 0 0 0 0 0 0 0 0 0 0 0 0 0 0 0 0 0 0 0 0 0 0 21 249 299 48 0 0 0 0 0 0 0 0 0 0 0 0 0 0 0 0 0 0 0 0 0
0 0 0 0 0 0 0 0 0 0 0 0 0 0 0 0 0 0 0 0 0 0 0 0 103 168 0 0 0 0 0 0 0 0 0 0 0 0 0 0 0 0 0 0 0 0 0 0 0
5 5 6 0 0 0 0 0 0 0 0 0 0 0 0 0 0 0 0 0 0 0 0 0 64 0 0 0 0 0 0 0 0 0 0 0 0 0 0 0 0 0 0 0 0 0 0 0 0
1 1 0 1 0 0 0 0 0 0 0 0 0 0 0 0 0 0 0 0 0 0 0 0 0 0 0 0 0 0 0 0 0 0 0 0 0 0 0 0 0 0 0 0 0 0 0 0 0
3 0 0 0 2 0 0 0 0 0 0 0 0 0 0 0 0 0 0 0 0 0 0 0 0 0 0 0 0 0 0 0 0 0 0 0 0 0 0 0 0 0 0 0 0 0 0 0 0
0 0 0 0 6 4 2 7 0 0 0 0 0 0 0 0 0 0 0 0 0 0 0 0 0 0 0 0 0 0 0 0 0 0 0 0 0 0 0 0 0 0 0 0 0 0 0 0 0
0 0 1 6 13 17 0 0 0 0 0 0 0 0 0 0 0 0 0 0 0 0 0 0 0 0 0 0 0 0 0 0 0 0 0 0 0 0 0 0 0 0 0 0 0 0 0 0 0
1 37 17 12 24 1 0 0 0 0 0 0 0 0 0 0 0 0 0 0 0 0 0 0 0 0 0 0 0 0 0 0 0 0 0 0 0 0 0 0 0 0 0 0 0 0 0 0 0
5 1 1 0 0 0 0 0 0 0 0 0 0 0 0 0 0 0 0 0 0 0 0 0 0 0 0 0 0 0 0 0 0 0 0 0 0 0 0 0 0 0 0 0 0 0 0 0 0
28 6 0 3 0 12 0 0 0 0 0 0 0 0 0 0 0 0 0 0 0 0 0 0 0 0 0 0 0 0 0 0 0 0 0 0 0 0 0 0 0 0 0 0 0 0 0 0 0
13 0 6 15 1 9 0 0 0 0 0 0 0 0 0 0 0 0 0 0 0 0 0 0 0 0 0 0 0 0 0 0 0 0 0 0 0 0 0 0 0 0 0 0 0 0 0 0 0
7 29 31 5 20 5 0 0 0 0 0 0 0 0 0 0 0 0 0 0 0 0 0 0 0 0 0 0 0 0 0 0 0 0 0 0 0 0 0 0 0 0 0 0 0 0 0 0 0
0 1 5 16 0 1 0 0 0 3 0 0 0 0 0 0 0 0 0 0 0 0 0 0 0 0 0 0 0 0 0 0 0 0 0 0 0 0 0 0 0 0 0 0 0 0 0 0 0

GFSSGP_con_sbcape_024.txt.gz
CAPE
0 0 0 0 0 0 0 0 0 0 0 0 0 0 0 0 50 56 75 242 185 487 1066 1267 1855 1545 913 227 56 25 1 0 0 12 48 37 4 2 35 10 0 0 0 0 0 0 0 0 6
0 0 0 0 0 0 0 0 0 0 0 0 0 0 0 5 14 106 122 199 261 641 1184 1062 1769 1490 744 283 78 17 7 0 4 68 24 14 4 0 0 0 0 0 0 0 0 0 0 0 0
0 0 0 0 0 0 0 0 0 0 0 0 0 0 0 15 53 121 185 294 438 841 1191 1127 1811 1438 755 414 101 25 0 0 22 82 3 0 0 0 0 0 0 0 0 0 0 0 0 0 0
0 0 0 0 0 0 0 0 0 0 0 0 0 0 0 0 72 100 179 464 547 822 1134 1586 1853 1617 1204 637 130 46 0 0 14 7 0 0 0 0 0 0 0 0 0 0 0 0 0 0 0
0 0 0 0 0 0 0 0 0 0 0 0 0 0 0 20 35 118 521 638 608 894 1083 1357 2068 1752 1354 643 229 80 11 0 0 0 1 10 16 26 23 55 13 0 0 0 0 2 0 0 0
0 0 0 0 0 0 0 0 0 0 0 0 0 0 0 0 218 439 741 819 771 975 1102 1149 1707 1655 1402 854 506 157 52 3 6 0 7 19 28 95 47 33 16 0 0 0 0 0 7 0 4
0 0 0 0 0 0 0 0 0 0 0 0 0 0 0 8 421 773 867 884 928 921 1096 1024 1692 1427 1256 1097 749 440 141 84 56 53 13 34 1 122 130 73 8 0 0 0 10 36 47 84 133
0 0 0 0 0 0 0 0 0 0 0 0 0 0 0 0 504 820 850 913 960 1026 1098 1016 1447 1360 1157 961 747 575 407 207 101 53 44 37 0 0 131 107 75 48 32 39 52 112 115 19 0
0 0 0 0 0 0 0 0 0 0 0 0 0 0 0 0 311 771 864 921 993 994 1160 1146 1100 1222 1262 811 586 533 453 208 83 28 19 4 4 0 0 0 0 0 30 8 23 0 0 0 0
0 0 0 0 0 0 0 0 0 0 0 0 0 0 0 0 104 668 840 899 1031 1037 1076 1336 1278 1268 1292 970 761 475 294 162 48 6 0 0 0 0 0 0 0 0 0 0 0 0 0 0 0
0 0 0 0 0 0 0 0 0 0 0 0 0 0 0 0 0 61 392 605 921 1012 1167 1309 1461 1482 1390 1040 927 610 419 293 221 94 32 0 0 0 0 3 9 54 0 0 0 0 0 0 0
0 0 0 0 0 0 0 0 0 0 0 0 0 0 0 0 0 0 70 278 469 914 1247 1250 1413 1665 1631 1249 1083 758 476 447 313 198 32 0 1 0 6 45 3 0 0 0 0 0 0 0 0
0 0 0 0 0 0 0 0 0 0 0 0 0 0 0 0 0 0 0 56 352 562 927 1349 1426 1668 1714 1447 1185 911 546 613 463 279 66 60 40 37 12 0 0 0 0 0 0 0 0 0 0
0 0 0 0 0 0 0 0 0 0 0 0 0 0 0 0 0 0 0 0 1 183 430 950 1484 1626 1661 1594 1349 1075 672 664 579 260 145 117 75 9 0 0 0 0 0 0 0 0 0 0 0
1 0 0 0 0 0 0 0 0 0 0 0 0 0 0 0 0 0 0 0 0 0 2 184 850 1430 1633 1631 1532 1211 786 783 599 291 230 204 16 0 0 0 0 0 0 0 0 0 0 0 0
0 0 0 0 0 0 0 0 0 0 0 0 0 0 0 0 0 0 0 0 0 0 0 0 0 461 1244 1477 1576 1300 832 907 597 424 284 42 0 0 0 0 0 0 0 0 0 0 0 0 0
2 0 0 0 0 0 0 0 0 0 0 0 0 0 0 0 0 0 0 0 0 0 0 0 0 0 387 1040 1392 1292 855 1023 517 64 0 0 0 0 0 0 0 0 0 0 0 0 0 0 0
0 1 0 0 0 0 0 0 0 0 0 0 0 0 0 0 0 0 0 0 0 0 0 0 0 17 365 882 1199 1157 979 457 2 0 0 0 0 0 0 0 0 0 0 0 0 0 0 0 0
0 0 2 0 0 0 0 0 0 0 0 0 0 0 0 0 0 0 0 0 0 0 0 0 0 132 550 901 1005 617 11 0 0 0 0 0 0 0 0 0 0 0 0 0 0 0 0 0 0
4 4 3 1 1 0 0 0 0 0 0 0 0 0 0 0 0 0 0 0 0 0 0 0 25 335 642 680 422 276 2 0 0 0 0 0 0 0 0 0 0 0 0 0 0 0 0 0 0
5 5 4 2 4 4 0 0 0 0 0 0 0 0 0 0 0 0 0 0 0 0 0 0 196 500 545 314 324 0 0 0 0 0 0 0 0 0 0 0 0 0 0 0 0 0 0 0 0
6 2 3 6 3 2 0 0 0 0 0 0 0 0 0 0 0 0 0 0 0 0 0 0 342 306 314 161 0 0 0 0 0 0 0 0 0 0 0 0 0 0 0 0 0 0 0 0 0
1 0 0 5 7 3 1 8 0 0 0 0 0 0 0 0 0 0 0 0 0 0 0 0 170 124 1 0 0 0 0 0 0 0 0 0 0 0 0 0 0 0 0 0 0 0 0 0 0
3 7 13 11 24 27 0 4 0 0 0 0 0 0 0 0 0 0 0 0 0 0 0 0 10 0 0 0 0 0 0 0 0 0 0 0 0 0 0 0 0 0 0 0 0 0 0 0 0
17 25 16 8 30 1 0 11 0 0 0 0 0 0 0 0 0 0 0 0 0 0 0 0 0 0 0 0 0 0 0 0 0 0 0 0 0 0 0 0 0 0 0 0 0 0 0 0 0
17 13 14 0 0 0 1 0 0 0 0 0 0 0 0 0 0 0 0 0 0 0 0 0 0 0 0 0 0 0 0 0 0 0 0 0 0 0 0 0 0 0 0 0 0 0 0 0 0
14 19 1 23 17 37 3 0 0 0 0 0 0 0 0 0 0 0 0 0 0 0 0 0 0 0 0 0 0 0 0 0 0 0 0 0 0 0 0 0 0 0 0 0 0 0 0 0 0
18 4 8 35 12 14 0 0 0 0 0 0 0 6 0 0 0 0 0 0 0 0 0 0 0 0 0 0 0 0 0 0 0 0 0 0 0 0 0 0 0 0 0 0 0 0 0 0 0
7 28 57 16 29 10 4 0 0 0 0 0 0 9 31 1 0 0 0 0 0 0 0 0 0 0 0 0 0 0 0 0 0 0 0 0 0 0 0 0 0 0 0 0 0 0 0 0 0
1 3 4 29 3 15 39 5 0 0 24 50 0 1 9 1 0 0 0 0 1 0 0 0 0 0 0 0 0 0 0 0 0 0 0 0 0 0 0 0 0 0 0 0 0 0 0 0 0

GFSSGP_con_sbcape_027.txt.gz
CAPE
10 0 0 0 0 0 0 0 0 0 0 0 0 0 0 3 44 77 106 255 193 804 1512 1213 1676 1331 680 142 28 0 0 0 0 21 64 8 0 10 23 2 0 0 0 0 0 0 0 0 2
0 0 0 0 0 0 0 0 0 0 0 0 0 0 0 3 8 201 218 241 260 984 1132 1150 1790 1418 784 217 61 29 0 0 1 49 19 0 0 0 0 0 0 0 0 0 0 0 0 0 0
0 0 0 0 0 0 0 0 0 0 0 0 0 0 0 19 20 198 370 285 369 882 1028 1231 1814 1276 794 308 84 31 2 2 76 31 0 0 0 0 0 0 0 0 0 0 0 0 0 0 0
0 0 0 0 0 0 0 0 0 0 0 0 0 0 0 0 92 218 360 330 484 922 1138 1427 1533 1333 1071 365 93 30 0 1 169 11 0 0 0 0 0 0 0 0 0 0 0 0 0 0 0
0 0 0 0 0 0 0 0 0 0 0 0 0 0 4 23 94 351 449 374 616 856 1445 1419 1764 1472 1140 520 147 42 0 15 29 0 0 0 0 2 3 10 5 0 0 0 0 1 0 0 0
0 0 0 0 0 0 0 0 0 0 0 0 0 0 4 98 194 550 594 452 542 880 1125 1374 1555 1470 1252 718 337 80 17 6 1 3 0 20 0 46 23 28 14 0 0 0 0 7 10 1 21
0 0 0 0 0 0 0 0 0 0 0 0 0 0 13 42 542 663 677 620 577 857 937 1318 1453 1264 1153 1013 725 397 127 97 64 38 8 38 14 188 87 37 8 0 0 3 21 44 54 96 47
0 0 0 0 0 0 0 0 0 0 0 0 0 0 8 0 639 724 677 755 629 879 847 1112 1409 1507 1059 780 736 535 375 183 141 144 129 15 0 159 178 127 41 25 24 51 72 84 34 0 0
0 3 0 0 0 0 0 0 0 0 0 0 0 0 0 0 574 723 750 859 846 854 902 864 1435 1369 1124 801 561 503 378 161 91 51 51 6 2 0 23 0 14 7 23 8 0 0 0 0 0
2 0 0 0 0 0 0 0 0 0 0 0 0 0 0 0 203 666 784 825 913 924 969 1018 1053 1206 1020 785 632 423 217 66 0 0 11 4 5 2 2 0 0 3 0 0 0 0 0 0 0
0 0 0 0 0 0 0 0 0 0 0 0 0 0 0 0 22 244 631 672 822 950 1048 1218 1200 1112 1202 883 844 518 438 181 37 0 0 0 0 0 0 0 0 0 0 0 0 0 0 0 0
0 0 0 0 0 0 0 0 0 0 0 0 0 0 0 0 0 0 65 340 546 786 1021 1174 1375 1404 1357 1075 917 646 430 343 236 90 2 0 0 0 0 5 51 0 0 0 0 0 0 0 0
0 0 0 0 0 0 0 0 0 0 0 0 0 0 0 0 0 0 5 36 225 500 900 1144 1314 1614 1628 1485 1120 846 515 437 390 236 30 0 1 4 15 25 0 0 0 0 0 0 0 0 0
4 1 0 0 0 0 0 0 0 0 0 0 0 0 0 0 0 0 0 0 19 327 510 957 1237 1623 1631 1641 1329 1024 736 545 556 392 83 18 40 79 20 0 0 0 0 0 0 0 0 0 0
1 1 0 0 0 0 0 0 0 0 0 0 0 0 0 0 0 0 0 0 0 1 154 399 1056 1325 1572 1591 1572 1242 996 680 624 488 142 92 141 22 0 0 0 0 0 0 0 0 0 0 0
0 1 0 0 0 0 0 0 0 0 0 0 0 0 0 0 0 0 0 0 0 0 0 0 348 1040 1485 1531 1589 1375 1172 882 775 557 304 237 123 0 0 0 0 0 0 0 0 0 0 0 0
6 0 0 0 0 0 0 0 0 0 0 0 0 0 0 0 0 0 0 0 0 0 0 0 0 120 717 1209 1369 1367 1234 869 786 519 361 340 0 0 0 0 0 0 0 0 0 0 0 0 0
1 1 0 0 0 0 0 0 0 0 0 0 0 0 0 0 0 0 0 0 0 0 0 0 0 0 27 679 1210 1413 1126 915 883 832 561 24 0 0 0 0 0 0 0 0 0 0 0 0 0
0 0 0 0 0 0 0 0 0 0 0 0 0 0 0 0 0 0 0 0 0 0 0 0 0 4 10 439 1054 1469 1148 951 651 432 0 0 0 0 0 0 0 0 0 0 0 0 0 0 0
0 1 0 0 0 0 0 0 0 0 0 0 0 0 0 0 0 0 0 0 0 0 0 0 0 2 86 670 1240 1472 922 223 232 0 0 0 0 0 0 0 0 0 0 0 0 0 0 0 0
0 0 0 0 0 0 0 0 0 0 0 0 0 0 0 0 0 0 0 0 0 0 0 0 0 33 358 756 1261 729 0 0 0 0 0 0 0 0 0 0 0 0 0 0 0 0 0 0 0
1 0 2 4 1 0 0 0 0 0 0 0 0 0 0 0 0 0 0 0 0 0 0 0 2 80 606 999 766 254 0 0 0 0 0 0 0 0 0 0 0 0 0 0 0 0 0 0 0
1 1 0 4 3 0 0 2 0 0 0 0 0 0 0 0 0 0 0 0 0 0 0 0 2 172 711 726 760 246 0 0 0 0 0 0 0 0 0 0 0 0 0 0 0 0 0 0 0
1 2 0 5 2 3 0 0 0 0 0 0 0 0 0 0 0 0 0 0 0 0 0 0 0 369 560 618 192 0 0 0 0 0 0 0 0 0 0 0 0 0 0 0 0 0 0 0 0
11 12 4 11 18 0 0 0 0 0 0 0 0 0 0 0 0 0 0 0 0 0 0 0 0 297 349 368 0 0 12 0 0 0 0 0 0 0 0 0 0 0 0 0 0 0 0 0 0
12 14 0 0 0 0 0 0 0 0 0 0 0 0 0 0 0 0 0 0 0 0 0 0 6 143 21 8 13 19 0 0 0 0 0 0 0 0 0 0 0 0 0 0 0 0 0 0 0
9 12 1 10 3 3 0 0 0 0 0 0 0 0 0 0 0 0 0 0 0 0 0 0 0 26 0 6 1 0 0 0 0 0 0 0 0 0 0 0 0 0 0 0 0 0 0 0 0
3 4 2 15 6 1 0 0 0 0 1 1 0 0 0 8 0 0 0 0 0 0 0 0 0 0 0 1 1 0 0 0 0 0 0 0 0 0 0 0 0 0 0 0 0 0 0 0 0
4 8 8 6 37 9 4 0 0 0 0 0 0 23 23 18 2 0 0 0 0 0 0 0 0 0 3 0 0 0 0 0 0 0 0 0 0 0 0 0 0 0 0 0 0 0 0 0 0
1 0 6 28 0 5 17 3 0 0 0 0 0 43 51 4 0 0 0 7 1 2 4 5 3 0 0 0 0 0 0 0 0 0 0 0 0 0 0 0 0 0 0 0 0 0 0 0 0

GFSSGP_con_sbcape_030.txt.gz
CAPE
39 0 0 0 0 0 0 0 0 0 0 0 0 0 0 0 29 91 156 98 990 997 1134 1124 1365 1033 576 88 24 0 0 0 0 92 82 37 18 9 0 0 0 0 0 0 1 0 0 0 2
0 0 0 0 0 0 0 0 0 0 0 0 0 0 0 0 125 50 224 130 841 1204 985 953 1468 1171 521 89 44 0 0 0 14 23 0 0 0 0 0 0 0 0 0 0 0 0 0 0 0
0 0 0 0 0 0 0 0 0 0 0 0 0 0 0 28 10 111 180 175 1005 1183 866 1235 1564 1192 566 137 66 5 0 13 59 55 0 0 0 0 0 0 0 0 0 0 0 0 0 0 0
0 0 0 0 0 0 0 0 0 0 0 0 0 0 0 0 23 291 169 246 655 852 1068 1445 1543 1220 878 368 59 16 0 63 52 63 1 0 0 0 1 0 0 0 0 0 0 0 0 0 0
0 0 0 0 0 0 0 0 0 0 0 0 0 0 10 24 158 246 189 280 645 1011 1042 1246 1447 1287 934 260 82 17 0 198 1 0 0 0 0 0 1 9 0 0 0 0 2 2 0 0 0
0 0 0 0 0 0 0 0 0 0 0 0 0 0 55 25 254 319 246 339 662 1246 1066 991 1291 1323 1025 545 240 95 37 92 81 36 7 17 2 7 16 11 0 0 0 0 0 5 0 6 34
0 0 0 0 0 0 0 0 0 0 0 0 0 0 35 114 411 466 318 265 576 1194 1263 997 976 1034 929 724 488 270 124 99 100 99 70 12 97 125 105 22 0 0 1 0 11 35 32 45 2
0 0 0 0 0 0 0 0 0 0 0 0 0 0 26 290 490 539 420 411 474 726 1106 961 961 857 708 599 603 439 255 242 229 129 134 0 110 223 245 103 46 6 15 29 55 39 0 0 0
0 0 0 0 0 0 0 0 0 0 0 0 0 0 0 271 527 508 516 556 426 703 661 1180 1169 1064 743 521 461 473 358 136 124 84 26 0 2 44 34 18 43 43 12 17 0 0 0 0 0
0 0 0 0 0 0 0 0 0 0 0 0 0 0 0 0 421 543 563 600 545 689 644 916 1349 1210 937 621 313 205 121 32 6 0 0 0 0 2 0 0 11 33 3 0 0 0 0 0 0
0 0 0 0 0 0 0 0 0 0 0 0 0 0 0 0 11 398 496 565 632 631 645 630 1013 1028 811 642 301 219 96 12 0 0 0 0 0 0 0 0 0 0 0 0 0 0 0 0 0
0 0 0 0 0 0 0 0 0 0 0 0 0 0 0 0 0 0 82 333 520 702 739 865 813 885 903 705 600 327 255 79 0 0 0 0 0 0 0 0 0 0 0 0 0 0 0 0 0
0 0 0 0 0 0 0 0 0 0 0 0 0 0 0 0 0 0 0 5 49 497 698 915 943 986 966 808 718 505 331 167 97 5 0 0 0 0 0 0 0 0 0 0 0 0 0 0 0
0 0 0 0 0 0 0 0 0 0 0 0 0 0 0 0 0 0 0 0 0 38 617 827 999 1194 1179 942 717 747 428 265 258 119 1 0 0 0 0 0 0 0 0 0 0 0 0 0 0
4 0 0 0 0 0 0 0 0 0 0 0 0 0 0 0 0 0 0 0 0 0 142 645 875 1257 1232 1280 1066 858 623 377 416 323 27 8 1 0 0 0 0 0 0 0 0 0 0 0 0
0 0 0 0 0 0 0 0 0 0 0 0 0 0 0 0 0 0 0 0 0 0 0 116 883 1096 1276 1252 1192 983 803 495 408 479 47 19 1 0 0 0 0 0 0 0 0 0 0 0 0
4 0 0 0 0 0 0 0 0 0 0 0 0 0 0 0 0 0 0 0 0 0 0 0 296 936 1098 1185 1215 1141 937 683 591 498 136 86 0 0 0 0 0 0 0 0 0 0 0 0 0
0 1 0 0 0 0 0 0 0 0 0 0 0 0 0 0 0 0 0 0 0 0 0 0 0 179 875 1229 1214 1184 882 659 613 391 202 8 0 0 0 0 0 0 0 0 0 0 0 0 0
1 0 0 0 0 0 0 0 0 0 0 0 0 0 0 0 0 0 0 0 0 0 0 0 0 0 0 83 885 1021 787 687 700 420 134 0 0 0 0 0 0 0 0 0 0 0 0 0 0
0 0 0 0 0 0 0 0 0 0 0 0 0 0 0 0 0 0 0 0 0 0 0 0 0 0 0 0 279 808 786 603 364 66 0 0 0 0 0 0 0 0 0 0 0 0 0 0 0
0 0 0 0 0 0 0 0 0 0 0 0 0 0 0 0 0 0 0 0 0 0 0 0 0 0 0 0 228 3 0 0 0 0 0 0 0 0 0 0 0 0 0 0 0 0 0 0 0
0 0 0 0 0 0 0 0 0 0 0 0 0 0 0 0 0 0 0 0 0 0 0 0 0 0 0 8 243 5 61 0 0 0 0 0 0 0 0 0 0 0 0 0 0 0 0 0 0
0 0 0 0 0 0 0 0 0 0 0 0 0 0 0 0 0 0 0 0 0 0 0 0 0 0 0 41 242 26 0 0 0 0 0 0 0 0 0 0 0 0 0 0 0 0 0 0 0
0 0 0 0 1 0 0 0 0 0 0 0 0 0 0 0 0 0 0 0 0 0 0 0 0 0 20 256 362 0 0 0 0 0 0 0 0 0 0 0 0 0 0 0 0 0 0 0 0
3 1 0 0 2 0 0 0 0 0 0 0 0 0 0 0 0 0 0 0 0 0 0 0 0 0 124 332 283 0 0 0 0 0 0 0 0 0 0 0 0 0 0 0 0 0 0 0 0
7 2 0 0 0 0 0 0 0 0 0 0 0 0 0 0 0 0 0 0 0 0 0 0 0 0 195 164 4 0 0 0 0 0 0 0 0 0 0 0 0 0 0 0 0 0 0 0 0
2 0 0 1 0 0 0 0 0 0 0 0 0 0 0 0 0 0 0 0 0 0 0 0 0 0 85 11 0 0 0 0 0 0 0 0 0 0 0 0 0 0 0 0 0 0 0 0 0
0 0 0 3 0 0 0 0 0 0 0 0 0 0 0 0 0 0 0 0 0 0 0 0 0 0 0 0 0 0 0 0 0 0 0 0 0 0 0 0 0 0 0 0 0 0 0 0 0
1 2 1 1 2 0 0 0 0 0 0 0 0 0 0 0 6 0 0 0 0 0 0 0 0 10 17 6 0 0 0 0 0 0 0 0 0 0 0 0 0 0 0 0 0 0 0 0 0
0 0 0 2 0 0 0 0 0 0 0 0 0 0 0 18 8 2 0 3 4 47 13 1 1 15 5 0 0 0 0 0 0 0 0 0 0 0 0 0 0 0 0 0 0 0 0 0 0

GFSSGP_con_sbcape_033.txt.gz
CAPE
7 0 0 0 0 0 0 0 0 0 0 0 0 0 0 0 0 10 8 485 668 1083 1060 953 1179 965 496 78 35 7 0 19 65 53 43 35 8 0 0 0 0 13 10 3 12 25 13 5 0
0 0 0 0 0 0 0 0 0 0 0 0 0 0 0 68 21 18 312 818 803 1048 922 822 1209 1012 316 51 36 6 0 0 186 75 15 10 5 1 0 0 0 0 3 0 0 0 0 0 0
0 0 0 0 0 0 0 0 0 0 0 0 0 0 0 12 0 13 46 899 991 905 849 945 1252 867 352 100 43 0 0 120 111 18 1 6 2 3 0 0 0 0 0 0 0 0 0 0 0
0 0 0 0 0 0 0 0 0 0 0 0 0 0 0 0 1 13 37 1090 899 746 879 1200 1206 952 648 434 119 67 86 135 46 10 0 10 4 5 1 0 0 0 0 2 0 0 0 0 0
0 0 0 0 0 0 0 0 0 0 0 0 0 0 0 36 14 0 61 1142 889 774 973 1109 1346 1107 788 479 327 123 257 288 61 12 0 0 0 3 3 0 0 0 0 2 3 3 0 0 0
0 0 0 0 0 0 0 0 0 0 0 0 0 0 14 0 26 0 0 601 852 913 968 1019 1221 1069 782 460 300 150 377 293 80 54 7 1 0 5 12 0 0 0 0 0 2 1 0 4 16
0 0 0 0 0 0 0 0 0 0 0 0 0 0 7 23 35 18 0 883 884 876 853 905 846 735 657 498 321 246 546 387 152 213 82 29 70 169 52 0 0 0 0 1 0 0 35 2 0
0 0 0 0 0 0 0 0 0 0 0 0 0 0 142 163 157 122 0 956 1027 861 785 696 723 637 466 345 374 286 292 357 359 367 63 26 160 308 272 85 13 0 7 24 43 44 0 0 0
0 0 0 0 0 0 0 0 0 0 0 0 0 0 28 158 148 108 75 72 916 1019 816 713 669 525 373 280 205 268 281 253 192 148 3 52 51 64 40 12 62 103 36 26 1 4 0 0 0
0 0 0 0 0 0 0 0 0 0 0 0 0 0 0 177 167 232 223 154 315 833 802 800 726 601 428 461 235 112 61 28 24 16 0 0 3 5 7 21 31 124 81 0 0 0 0 0 0
0 0 0 0 0 0 0 0 0 0 0 0 0 0 0 39 148 259 230 216 196 212 921 1048 924 788 560 470 181 75 25 0 0 0 0 0 0 0 0 0 3 0 0 0 0 0 0 0 0
0 0 0 0 0 0 0 0 0 0 0 0 0 0 0 0 3 89 186 215 166 309 201 1193 1074 1008 697 409 162 114 58 0 0 0 0 0 0 0 0 0 0 0 0 0 0 0 0 0 0
0 0 0 0 0 0 0 0 0 0 0 0 0 0 0 0 0 0 0 5 75 291 306 279 1018 913 505 477 306 189 135 72 0 0 0 0 0 0 0 0 0 0 0 0 0 0 0 0 0
0 0 0 0 0 0 0 0 0 0 0 0 0 0 0 0 0 0 0 0 0 145 327 512 350 837 616 606 454 291 258 157 19 0 0 0 0 0 0 0 0 0 0 0 0 0 0 0 0
0 0 0 0 0 0 0 0 0 0 0 0 0 0 0 0 0 0 0 0 0 0 203 594 599 816 746 661 502 382 366 223 109 27 0 0 0 0 0 0 0 0 0 0 0 0 0 0 0
0 0 0 0 0 0 0 0 0 0 0 0 0 0 0 0 0 0 0 0 0 0 0 517 899 902 915 820 576 619 563 246 87 84 24 0 0 0 0 0 0 0 0 0 0 0 0 0 0
1 0 0 0 0 0 0 0 0 0 0 0 0 0 0 0 0 0 0 0 0 0 0 92 712 1088 1029 1063 914 830 487 204 89 71 17 2 0 0 0 0 0 0 0 0 0 0 0 0 0
0 0 0 0 0 0 0 0 0 0 0 0 0 0 0 0 0 0 0 0 0 0 0 0 315 976 1284 1175 1049 792 218 424 258 134 21 0 0 0 0 0 0 0 0 0 0 0 0 0 0
0 0 0 0 0 0 0 0 0 0 0 0 0 0 0 0 0 0 0 0 0 0 0 0 0 625 1172 1204 1046 1021 529 477 412 285 2 0 0 0 0 0 0 0 0 0 0 0 0 0 0
0 0 0 0 0 0 0 0 0 0 0 0 0 0 0 0 0 0 0 0 0 0 0 0 0 3 775 1095 1150 796 199 193 298 75 0 0 0 0 0 0 0 0 0 0 0 0 0 0 0
0 0 0 0 0 0 0 0 0 0 0 0 0 0 0 0 0 0 0 0 0 0 0 0 0 0 0 183 182 0 0 0 0 0 0 0 0 0 0 0 0 0 0 0 0 0 0 0 0
0 0 0 0 0 0 0 0 0 0 0 0 0 0 0 0 0 0 0 0 0 0 0 0 0 0 0 0 18 215 264 141 0 0 0 0 0 0 0 0 0 0 0 0 0 0 0 0 0
0 0 0 0 0 0 0 0 0 0 0 0 0 0 0 0 0 0 0 0 0 0 0 0 0 0 0 0 1 200 245 0 0 0 0 0 0 0 0 0 0 0 0 0 0 0 0 0 0
0 0 0 0 0 0 0 0 0 0 0 0 0 0 0 0 0 0 0 0 0 0 0 0 0 0 0 0 4 133 0 0 0 0 0 0 0 0 0 0 0 0 0 0 0 0 0 0 0
0 0 0 0 0 0 0 0 0 0 0 0 0 0 0 0 0 0 0 0 0 0 0 0 0 0 0 0 10 1 0 0 0 0 0 0 0 0 0 0 0 0 0 0 0 0 0 0 0
0 0 0 0 0 0 0 0 0 0 0 0 0 0 0 0 0 0 0 0 0 0 0 0 0 0 0 61 0 0 0 0 0 0 0 0 0 0 0 0 0 0 0 0 0 0 0 0 0
0 1 0 0 0 0 0 0 0 0 0 0 0 0 0 0 0 0 0 0 0 0 0 0 0 0 0 1 0 0 0 0 0 0 0 0 0 0 0 0 0 0 0 0 0 0 0 0 0
0 0 0 0 0 0 0 0 0 0 0 0 0 0 0 0 0 0 0 0 0 0 0 0 0 0 2 0 0 0 0 0 0 0 0 0 0 0 0 0 0 0 0 0 0 0 0 0 0
0 0 0 0 0 0 0 0 0 0 0 0 0 0 0 0 0 0 0 0 0 0 0 0 0 0 28 0 0 0 0 0 0 0 0 0 0 0 0 0 0 0 0 0 0 0 0 0 0
0 0 0 0 0 0 0 0 0 0 0 0 0 0 0 0 0 0 0 0 0 0 3 31 0 128 1 0 0 0 0 0 0 0 0 0 0 0 0 0 0 0 0 0 0 0 0 0 0

GFSSGP_con_sbcape_036.txt.gz
CAPE
4 0 0 0 0 0 0 0 0 0 0 0 0 0 0 0 0 0 0 133 642 858 900 796 1060 931 708 390 358 417 400 421 285 61 17 6 0 0 0 0 27 17 21 25 54 56 42 4 0
0 0 0 0 0 0 0 0 0 0 0 0 0 0 0 6 1 210 325 601 812 847 837 634 1063 877 342 115 71 67 115 133 168 67 21 6 1 0 0 0 11 10 8 6 7 4 0 0 0
0 0 0 0 0 0 0 0 0 0 0 0 0 0 0 0 0 157 308 784 892 875 722 699 1107 746 232 106 84 47 79 294 298 65 9 4 1 0 0 0 1 4 0 0 0 0 0 0 0
0 0 0 0 0 0 0 0 0 0 0 0 0 0 0 0 0 19 714 855 838 709 645 951 1099 727 490 308 92 37 187 208 43 64 10 1 6 0 0 0 0 0 0 0 0 0 0 0 0
0 0 0 0 0 0 0 0 0 0 0 0 0 0 0 16 0 748 871 839 724 699 727 900 1106 750 454 224 317 387 523 72 0 0 1 7 10 4 0 0 0 1 2 2 1 1 0 0 0
0 0 0 0 0 0 0 0 0 0 0 0 0 0 0 0 0 595 1061 778 675 787 846 831 953 908 756 416 538 787 817 347 68 72 35 3 8 33 0 0 0 1 5 8 5 0 0 0 7
0 0 0 0 0 0 0 0 0 0 0 0 0 0 1 0 0 4 801 660 789 818 783 785 752 645 625 495 382 674 796 448 200 179 182 157 150 133 46 0 0 1 4 6 3 1 30 3 0
0 0 0 0 0 0 0 0 0 0 0 0 0 0 18 23 0 58 656 702 830 794 800 831 656 496 375 262 311 487 498 304 346 373 257 96 91 213 270 53 30 4 38 51 67 80 0 0 0
0 0 0 0 0 0 0 0 0 0 0 0 0 2 0 23 0 12 756 724 738 735 733 641 511 333 243 145 174 336 485 377 367 215 14 58 56 155 107 10 48 190 129 117 52 24 0 0 0
0 0 0 0 0 0 0 0 0 0 0 0 0 0 1 0 8 0 679 908 823 712 619 660 530 374 246 219 129 82 112 80 67 31 0 9 27 34 10 0 51 309 246 41 4 0 0 0 0
0 0 0 0 0 0 0 0 0 0 0 0 0 10 2 0 26 0 85 534 948 831 749 709 587 449 323 283 102 35 19 3 0 4 0 0 4 6 0 0 4 2 5 0 0 0 0 0 0
0 0 0 0 0 0 0 0 0 0 0 0 0 0 0 0 0 6 0 0 128 785 781 782 687 559 377 296 142 66 24 0 0 0 0 0 0 0 0 0 0 0 0 0 0 0 0 0 0
0 0 0 0 0 0 0 0 0 0 0 0 0 0 0 0 0 0 0 0 7 251 836 910 810 731 520 271 136 77 56 1 0 0 0 0 0 0 0 0 0 0 0 0 0 0 0 0 0
0 0 0 0 0 0 0 0 0 0 0 0 0 0 0 0 0 0 0 0 0 56 164 1043 1013 934 682 422 139 90 63 35 0 0 0 0 0 0 0 0 0 0 0 0 0 0 0 0 0
0 0 0 0 0 0 0 0 0 0 0 0 0 0 0 0 0 0 0 0 0 0 56 304 1163 1064 517 546 203 116 113 88 7 0 0 0 0 0 0 0 0 0 0 0 0 0 0 0 0
0 0 0 0 0 0 0 0 0 0 0 0 0 0 0 0 0 0 0 0 0 0 0 51 609 1028 670 614 391 244 173 161 44 1 0 0 0 0 0 0 0 0 0 0 0 0 0 0 0
0 0 0 0 0 0 0 0 0 0 0 0 0 0 0 0 0 0 0 0 0 0 0 0 320 850 779 690 505 381 305 198 35 29 0 0 0 0 0 0 0 0 0 0 0 0 0 0 0
0 0 0 0 0 0 0 0 0 0 0 0 0 0 0 0 0 0 0 0 0 0 0 0 182 659 782 653 484 398 213 84 12 69 0 0 0 0 0 0 0 0 0 0 0 0 0 0 0
0 0 0 0 0 0 0 0 0 0 0 0 0 0 0 0 0 0 0 0 0 0 0 0 2 425 857 817 715 508 371 88 42 59 0 0 0 0 0 0 0 0 0 0 0 0 0 0 0
1 0 0 0 0 0 0 0 0 0 0 0 0 0 0 0 0 0 0 0 0 0 0 0 0 106 742 1001 1026 844 526 277 91 144 0 0 0 0 0 0 0 0 0 0 0 0 0 0 0
0 0 0 0 0 0 0 0 0 0 0 0 0 0 0 0 0 0 0 0 0 0 0 0 0 0 264 961 583 0 0 0 0 0 0 0 0 0 0 0 0 0 0 0 0 0 0 0 0
0 0 0 0 0 0 0 0 0 0 0 0 0 0 0 0 0 0 0 0 0 0 0 0 0 0 0 225 305 288 383 174 96 6 0 0 0 0 0 0 0 0 0 0 0 0 0 0 0
0 0 0 0 0 0 0 0 0 0 0 0 0 0 0 0 0 0 0 0 0 0 0 0 0 0 0 0 255 344 637 373 0 0 0 0 0 0 0 0 0 0 0 0 0 0 0 0 0
0 0 0 0 0 0 0 0 0 0 0 0 0 0 0 0 0 0 0 0 0 0 0 0 0 0 0 0 0 214 440 0 0 0 0 0 0 0 0 0 0 0 0 0 0 0 0 0 0
0 0 0 0 0 0 0 0 0 0 0 0 0 0 0 0 0 0 0 0 0 0 0 0 0 0 0 0 0 3 20 0 0 0 0 0 0 0 0 0 0 0 0 0 0 0 0 0 0
0 0 0 0 0 0 0 0 0 0 0 0 0 0 0 0 0 0 0 0 0 0 0 0 0 0 0 0 0 0 0 0 0 0 0 0 0 0 0 0 0 0 0 0 0 0 0 0 0
0 0 0 0 0 0 0 0 0 0 0 0 0 0 0 0 0 0 0 0 0 0 0 0 0 0 0 0 0 0 0 0 0 0 0 0 0 0 0 0 0 0 0 0 0 0 0 0 0
0 0 0 0 0 0 0 0 0 0 0 0 0 0 0 0 0 0 0 0 0 0 0 0 0 0 0 0 0 0 0 0 0 0 0 0 0 0 0 0 0 0 0 0 0 0 0 0 0
0 0 0 0 0 0 0 0 0 0 0 0 0 0 0 0 0 0 0 0 0 0 0 0 0 0 0 0 0 0 0 0 0 0 0 0 0 0 0 0 0 0 0 0 0 0 0 0 0
0 0 0 0 0 0 0 0 0 0 0 0 0 0 0 0 0 0 0 0 0 0 0 0 0 0 4 0 0 0 0 0 0 0 0 0 0 0 0 0 0 0 0 0 0 0 0 0 0

GFSSGP_con_sbcape_039.txt.gz
CAPE
4 0 0 0 0 0 0 0 0 0 0 0 0 0 0 0 0 0 1 130 465 791 842 1028 1381 1098 1076 929 925 885 732 419 167 95 17 7 1 0 0 21 35 42 64 115 140 92 28 12 0
0 0 0 0 0 0 0 0 0 0 0 0 0 0 0 0 1 111 165 297 695 777 723 608 1211 1047 886 787 687 611 600 483 192 63 15 7 0 0 0 13 11 16 11 8 3 2 0 0 0
0 0 0 0 0 0 0 0 0 0 0 0 0 0 0 0 2 113 74 641 736 707 549 560 1095 865 526 362 313 355 356 345 186 104 14 4 0 0 0 4 11 3 4 1 0 0 0 0 0
0 0 0 0 0 0 0 0 0 0 0 0 0 0 0 0 0 7 526 751 668 601 456 853 1045 834 549 350 165 92 216 312 219 102 7 2 0 0 0 1 3 0 0 0 0 0 0 0 0
0 0 0 0 0 0 0 0 0 0 0 0 0 0 0 0 5 477 765 763 657 456 464 781 1053 648 392 204 138 248 392 437 120 26 14 3 1 0 0 0 0 1 1 0 0 0 0 0 0
0 0 0 0 0 0 0 0 0 0 0 0 0 0 0 0 593 620 809 642 610 548 647 731 768 700 573 215 277 623 592 269 85 95 10 13 20 0 0 0 0 2 3 4 4 1 0 8 18
0 0 0 0 0 0 0 0 0 0 0 0 0 0 0 0 78 790 651 457 617 649 663 622 531 544 579 399 589 733 678 309 170 224 231 177 186 82 0 0 0 3 14 30 35 25 33 19 0
0 0 0 0 0 0 0 0 0 0 0 0 0 0 0 0 12 512 552 470 590 640 637 578 490 472 390 290 534 711 589 351 223 281 254 191 150 223 121 17 22 25 58 88 75 87 0 0 0
0 0 0 0 0 0 0 0 0 0 0 0 0 0 0 0 289 587 575 717 755 690 617 660 446 311 197 152 171 439 462 322 295 279 167 95 32 131 123 5 49 199 177 197 229 70 0 0 0
0 0 0 0 0 0 0 0 0 0 0 0 0 0 0 0 471 780 846 885 624 735 582 552 457 250 157 147 87 155 231 146 159 95 15 4 20 72 72 16 64 348 367 250 140 1 0 0 0
0 0 0 0 0 0 0 0 0 0 0 0 0 0 0 11 7 674 815 868 760 624 645 451 513 265 184 133 52 34 76 42 34 14 0 2 9 31 2 0 27 76 106 0 0 0 0 0 0
0 0 0 0 0 0 0 0 0 0 0 0 0 0 0 0 0 0 594 768 781 675 652 548 544 323 197 126 64 34 34 4 0 0 0 0 0 0 0 0 0 0 0 0 0 0 0 0 0
0 0 0 0 0 0 0 0 0 0 0 0 0 0 0 0 0 0 0 25 573 812 709 722 600 450 268 155 72 22 10 5 0 0 0 0 0 0 0 0 0 0 0 0 0 0 0 0 0
0 0 0 0 0 0 0 0 0 0 0 0 0 0 0 0 0 0 0 0 11 576 774 745 716 569 388 240 109 54 19 10 0 0 0 0 0 0 0 0 0 0 0 0 0 0 0 0 0
0 0 0 0 0 0 0 0 0 0 0 0 0 0 0 0 0 0 0 0 0 0 204 773 812 681 516 373 137 64 39 23 0 0 0 0 0 0 0 0 0 0 0 0 0 0 0 0 0
0 0 0 0 0 0 0 0 0 0 0 0 0 0 0 0 0 0 0 0 0 0 0 233 1058 912 719 514 253 79 36 33 0 0 0 0 0 0 0 0 0 0 0 0 0 0 0 0 0
0 0 0 0 0 0 0 0 0 0 0 0 0 0 0 0 0 0 0 0 0 0 0 0 450 1093 996 548 407 121 59 41 5 0 0 0 0 0 0 0 0 0 0 0 0 0 0 0 0
0 0 0 0 0 0 0 0 0 0 0 0 0 0 0 0 0 0 0 0 0 0 0 0 8 575 1066 711 450 208 64 58 7 12 0 0 0 0 0 0 0 0 0 0 0 0 0 0 0
0 0 0 0 0 0 0 0 0 0 0 0 0 0 0 0 0 0 0 0 0 0 0 0 0 91 707 679 428 352 130 89 8 20 15 0 0 0 0 0 0 0 0 0 0 0 0 0 0
5 0 0 0 0 0 0 0 0 0 0 0 0 0 0 0 0 0 0 0 0 0 0 0 0 21 344 629 633 608 444 208 82 45 7 0 0 0 0 0 0 0 0 0 0 0 0 0 0
4 0 0 0 0 0 0 0 0 0 0 0 0 0 0 0 0 0 0 0 0 0 0 0 0 0 130 587 654 0 2 0 0 0 0 0 0 0 0 0 0 0 0 0 0 0 0 0 0
0 0 0 0 0 0 0 0 0 0 0 0 0 0 0 0 0 0 0 0 0 0 0 0 0 0 0 387 681 440 467 241 103 152 1 0 0 0 0 0 0 0 0 0 0 0 0 0 0
0 0 0 0 0 0 0 0 0 0 0 0 0 0 0 0 0 0 0 0 0 0 0 0 0 0 0 0 462 404 510 378 80 79 0 0 0 0 0 0 0 0 0 0 0 0 0 0 0
0 0 0 0 0 0 0 0 0 0 0 0 0 0 0 0 0 0 0 0 0 0 0 0 0 0 0 0 0 214 380 0 0 0 0 0 0 0 0 0 0 0 0 0 0 0 0 0 0
0 0 0 0 0 0 0 0 0 0 0 0 0 0 0 0 0 0 0 0 0 0 0 0 0 0 0 0 0 0 311 0 0 0 0 0 0 0 0 0 0 0 0 0 0 0 0 0 0
0 0 0 0 0 0 0 0 0 0 0 0 0 0 0 0 0 0 0 0 0 0 0 0 0 0 0 0 0 0 2 19 4 0 0 0 0 0 0 0 0 0 0 0 0 0 0 0 0
0 0 0 0 0 0 0 0 0 0 0 0 0 0 0 0 0 0 0 0 0 0 0 0 0 0 0 0 0 0 0 11 0 0 0 0 0 0 0 0 0 0 0 0 0 0 0 0 0
0 0 0 0 0 0 0 0 0 0 0 0 0 0 0 0 0 0 0 0 0 0 0 0 0 0 0 0 0 0 0 0 0 0 0 0 0 0 0 0 0 0 0 0 0 0 0 0 0
0 0 0 0 0 0 0 0 0 0 0 0 0 0 0 0 0 0 0 0 0 0 0 0 0 0 0 0 0 0 0 0 0 0 0 0 0 0 0 0 0 0 0 0 0 0 0 0 0
0 0 0 0 0 0 0 0 0 0 0 0 0 0 0 0 0 0 0 0 0 0 0 0 0 0 0 0 0 0 0 0 0 0 0 0 0 0 0 0 0 0 0 0 0 0 0 0 0

GFSSGP_con_sbcape_042.txt.gz
CAPE
5 0 0 0 0 0 0 0 0 0 0 0 0 0 0 0 0 0 0 96 227 468 853 1165 1725 1639 1288 879 1240 1074 713 558 221 123 24 4 0 0 0 26 49 77 74 89 119 70 29 5 0
0 0 0 0 0 0 0 0 0 0 0 0 0 0 0 0 0 29 79 113 589 731 821 876 1651 1348 1009 1158 1122 1009 567 355 180 110 23 9 0 0 4 28 28 34 43 30 6 3 0 0 0
0 0 0 0 0 0 0 0 0 0 0 0 0 0 0 0 0 24 16 373 697 665 596 704 1400 1350 1296 1069 814 759 728 431 165 77 16 6 0 0 5 6 14 12 3 3 2 0 0 0 0
0 0 0 0 0 0 0 0 0 0 0 0 0 0 0 0 0 0 290 659 542 390 340 826 1233 1317 1147 815 703 587 651 446 234 123 35 0 0 0 3 9 4 3 0 0 0 0 0 0 0
0 0 0 0 0 0 0 0 0 0 0 0 0 0 0 0 8 317 618 691 590 273 318 754 1161 926 529 313 337 506 335 349 292 132 27 0 0 0 0 2 1 0 0 0 0 0 0 1 1
0 0 0 0 0 0 0 0 0 0 0 0 0 0 0 0 280 411 633 543 440 370 514 654 860 764 580 417 327 459 572 650 277 121 27 8 0 0 0 1 2 2 1 2 3 11 3 22 14
0 0 0 0 0 0 0 0 0 0 0 0 0 0 0 0 296 477 456 446 407 442 493 482 418 436 560 402 355 435 955 553 286 235 157 154 61 3 0 0 2 10 13 30 36 44 55 4 0
0 0 0 0 0 0 0 0 0 0 0 0 0 0 0 0 590 475 447 489 492 492 477 355 285 334 244 205 439 683 494 344 252 321 256 181 151 63 28 38 38 27 75 104 87 117 0 0 0
0 0 0 0 0 0 0 0 0 0 0 0 0 0 0 5 571 546 597 683 568 581 486 331 253 250 173 129 361 570 516 245 201 211 155 111 50 125 39 2 37 161 195 174 163 43 0 0 0
0 0 0 0 0 0 0 0 0 0 0 0 0 0 0 357 568 574 617 747 649 440 402 541 336 193 144 163 118 202 278 155 100 119 94 7 0 61 70 4 51 259 290 319 270 3 0 0 0
0 0 0 0 0 0 0 0 0 0 0 0 0 0 0 6 398 467 560 611 629 468 517 617 340 208 144 131 38 50 123 76 80 59 11 0 4 7 33 0 15 72 119 3 1 0 0 0 0
0 0 0 0 0 0 0 0 0 0 0 0 0 0 0 0 0 223 470 646 699 719 500 391 376 309 141 74 20 18 87 19 34 23 0 0 2 7 3 0 0 1 0 0 0 0 0 0 0
0 0 0 0 0 0 0 0 0 0 0 0 0 0 0 0 0 0 0 314 671 654 595 503 461 268 199 75 26 0 46 46 46 10 0 0 0 3 0 0 0 0 0 0 0 0 0 0 0
0 0 0 0 0 0 0 0 0 0 0 0 0 0 0 0 0 0 0 0 404 810 729 519 497 397 260 146 41 5 0 5 2 0 0 0 0 0 0 0 0 0 0 0 0 0 0 0 0
0 0 0 0 0 0 0 0 0 0 0 0 0 0 0 0 0 0 0 0 0 290 785 645 620 488 343 245 73 8 0 0 0 0 0 0 0 0 0 0 0 0 0 0 0 0 0 0 0
0 0 0 0 0 0 0 0 0 0 0 0 0 0 0 0 0 0 0 0 0 0 48 662 759 746 499 417 197 87 13 3 0 0 0 0 0 0 0 0 0 0 0 0 0 0 0 0 0
0 0 0 0 0 0 0 0 0 0 0 0 0 0 0 0 0 0 0 0 0 0 0 0 662 846 723 587 370 133 48 16 0 0 0 0 0 0 0 0 0 0 0 0 0 0 0 0 0
0 0 0 0 0 0 0 0 0 0 0 0 0 0 0 0 0 0 0 0 0 0 0 0 0 694 806 749 458 147 46 19 0 0 0 0 0 0 0 0 0 0 0 0 0 0 0 0 0
0 0 0 0 0 0 0 0 0 0 0 0 0 0 0 0 0 0 0 0 0 0 0 0 0 0 724 880 589 427 182 98 23 13 8 0 0 0 0 0 0 0 0 0 0 0 0 0 0
0 0 0 0 0 0 0 0 0 0 0 0 0 0 0 0 0 0 0 0 0 0 0 0 0 0 15 676 643 522 485 240 101 32 24 0 0 0 0 0 0 0 0 0 0 0 0 0 0
8 0 0 0 0 0 0 0 0 0 0 0 0 0 0 0 0 0 0 0 0 0 0 0 0 0 0 85 484 2 10 1 0 0 22 0 0 0 0 0 0 0 0 0 0 0 0 0 0
1 0 0 0 0 0 0 0 0 0 0 0 0 0 0 0 0 0 0 0 0 0 0 0 0 0 0 0 227 197 365 349 124 134 73 7 0 0 0 0 0 0 0 0 0 0 0 0 0
0 0 0 0 0 0 0 0 0 0 0 0 0 0 0 0 0 0 0 0 0 0 0 0 0 0 0 0 113 179 209 298 64 108 21 0 0 0 0 0 0 0 0 0 0 0 0 0 0
0 0 0 0 0 0 0 0 0 0 0 0 0 0 0 0 0 0 0 0 0 0 0 0 0 0 0 0 0 193 322 265 0 0 0 0 0 0 0 0 0 0 0 0 0 0 0 0 0
0 0 0 0 0 0 0 0 0 0 0 0 0 0 0 0 0 0 0 0 0 0 0 0 0 0 0 0 0 6 285 279 14 16 0 0 0 0 0 0 0 0 0 0 0 0 0 0 0
0 0 0 0 0 0 0 0 0 0 0 0 0 0 0 0 0 0 0 0 0 0 0 0 0 0 0 0 0 0 0 63 31 33 28 0 0 0 0 0 0 0 0 0 0 0 0 0 0
0 0 0 0 0 0 0 0 0 0 0 0 0 0 0 0 0 0 0 0 0 0 0 0 0 0 0 0 0 0 0 0 33 26 18 4 0 0 0 0 0 0 0 0 0 0 0 0 0
0 0 0 0 0 0 0 0 0 0 0 0 0 0 0 0 0 0 0 0 0 0 0 0 0 0 0 0 0 0 0 0 0 2 0 0 0 0 0 0 0 0 0 0 0 0 0 0 0
0 0 0 0 0 0 0 0 0 0 0 0 0 0 0 0 0 0 0 0 0 0 0 0 0 0 0 0 0 0 0 0 0 0 0 0 0 0 0 0 0 0 0 0 0 0 0 0 0
0 0 0 0 0 0 0 0 0 0 0 0 0 0 0 0 0 0 0 0 0 0 0 0 0 0 0 0 0 0 0 0 0 0 0 0 0 0 0 0 0 0 0 0 0 0 0 0 0

GFSSGP_con_sbcape_045.txt.gz
CAPE
4 0 0 0 0 0 0 0 0 0 0 0 0 0 0 0 0 0 2 231 117 457 994 1125 1810 1922 1949 2022 1442 1357 1048 751 215 56 7 0 0 0 0 5 68 10 4 71 93 60 26 0 0
0 0 0 0 0 0 0 0 0 0 0 0 0 0 0 0 0 22 221 282 294 830 879 953 1860 1938 1614 1801 1472 1101 693 416 223 126 18 0 0 0 5 31 98 131 110 64 24 0 0 0 0
0 0 0 0 0 0 0 0 0 0 0 0 0 0 0 0 0 62 54 481 635 929 839 1113 1765 1736 1233 1145 1606 978 833 408 188 118 16 3 0 0 13 21 41 17 10 5 0 0 0 0 2
0 0 0 0 0 0 0 0 0 0 0 0 0 0 0 0 0 20 271 797 836 872 812 1299 1470 1221 1190 1373 1256 972 767 409 241 74 14 0 0 3 2 8 12 0 0 0 0 0 0 0 1
0 0 0 0 0 0 0 0 0 0 0 0 0 0 0 0 89 405 688 861 830 726 726 815 1206 1371 1288 1110 1008 998 824 461 275 129 6 0 1 2 11 7 7 0 0 0 0 0 2 7 8
0 0 0 0 0 0 0 0 0 0 0 0 0 0 0 39 345 360 527 627 639 655 665 659 893 1030 899 727 642 771 706 580 391 129 3 0 1 1 3 3 1 1 0 1 3 17 24 30 0
0 0 0 0 0 0 0 0 0 0 0 0 0 0 0 0 380 354 391 407 386 631 676 646 536 578 556 520 486 519 795 888 538 279 118 56 31 2 3 4 4 4 9 28 46 61 44 0 0
0 0 0 0 0 0 0 0 0 0 0 0 0 0 0 0 405 371 388 321 410 751 675 632 542 453 360 266 318 374 626 553 345 269 179 105 21 17 33 33 44 39 63 94 106 76 0 0 0
0 0 0 0 0 0 0 0 0 0 0 0 0 0 0 7 363 388 378 384 385 567 696 600 475 402 294 203 197 418 367 257 185 190 105 81 79 14 2 0 28 102 204 186 190 3 0 0 0
0 0 0 0 0 0 0 0 0 0 0 0 0 0 14 192 408 388 344 313 378 568 511 569 513 368 265 154 248 579 428 215 139 157 152 157 162 168 68 0 36 156 218 273 269 0 0 0 0
0 0 0 0 0 0 0 0 0 0 0 0 0 0 0 127 452 421 353 441 401 409 368 281 448 408 320 189 210 353 413 190 135 164 158 130 115 173 199 79 74 178 124 185 51 0 0 0 0
0 0 0 0 0 0 0 0 0 0 0 0 0 0 0 45 78 330 326 443 487 545 458 394 635 380 343 290 173 173 297 211 161 136 134 124 123 118 206 121 88 166 159 17 0 0 0 0 0
0 0 0 0 0 0 0 0 0 0 0 0 0 0 0 0 0 7 284 465 443 537 529 454 469 325 255 275 162 117 144 248 167 143 86 82 96 87 102 143 82 113 75 0 0 0 0 0 0
0 0 0 0 0 0 0 0 0 0 0 0 0 0 0 0 0 0 0 6 665 793 716 605 466 443 289 122 138 116 84 147 174 137 105 43 55 88 97 111 73 60 29 0 0 0 0 0 0
0 0 0 0 0 0 0 0 0 0 0 0 0 0 0 0 0 0 0 0 0 462 860 796 656 490 394 238 210 137 99 73 146 144 87 50 24 71 111 106 61 37 0 0 0 0 0 0 0
0 0 0 0 0 0 0 0 0 0 0 0 0 0 0 0 0 0 0 0 0 0 176 793 794 636 532 401 209 257 104 88 75 107 88 59 17 28 97 99 48 17 0 0 0 0 0 0 0
0 0 0 0 0 0 0 0 0 0 0 0 0 0 0 0 0 0 0 0 0 0 0 0 718 858 705 524 349 188 150 90 60 27 34 43 35 0 45 60 41 0 0 0 0 0 0 0 0
2 0 0 0 0 0 0 0 0 0 0 0 0 0 0 0 0 0 0 0 0 0 0 0 7 683 1045 882 602 328 135 99 125 57 12 0 14 5 8 8 22 0 0 0 0 0 0 0 0
0 0 0 0 0 0 0 0 0 0 0 0 0 0 0 0 0 0 0 0 0 0 0 0 0 0 747 655 636 511 223 144 84 97 19 0 0 0 0 3 0 0 0 0 0 0 0 0 0
0 0 0 0 0 0 0 0 0 0 0 0 0 0 0 0 0 0 0 0 0 0 0 0 0 0 0 423 716 632 468 314 216 154 56 27 0 0 0 2 0 0 0 0 0 0 0 0 0
1 0 0 0 0 0 0 0 0 0 0 0 0 0 0 0 0 0 0 0 0 0 0 0 0 0 0 0 470 588 177 7 327 110 70 62 6 0 0 0 0 0 0 0 0 0 0 0 0
8 0 0 0 0 0 0 0 0 0 0 0 0 0 0 0 0 0 0 0 0 0 0 0 0 0 0 0 60 474 139 169 226 254 195 130 63 0 0 0 0 0 0 0 0 0 0 0 0
0 0 0 0 0 0 0 0 0 0 0 0 0 0 0 0 0 0 0 0 0 0 0 0 0 0 0 0 0 211 374 268 378 367 316 198 12 0 0 0 0 0 0 0 0 0 0 0 0
0 0 0 0 0 0 0 0 0 0 0 0 0 0 0 0 0 0 0 0 0 0 0 0 0 0 0 0 0 0 296 343 327 267 281 230 14 1 1 0 0 0 0 0 0 0 0 0 0
0 0 0 0 0 0 0 0 0 0 0 0 0 0 0 0 0 0 0 0 0 0 0 0 0 0 0 0 0 0 0 232 282 280 261 289 1 0 1 1 1 0 0 0 0 0 0 0 0
0 0 0 0 0 0 0 0 0 0 0 0 0 0 0 0 0 0 0 0 0 0 0 0 0 0 0 0 0 0 0 0 44 133 185 149 23 6 1 2 1 0 0 0 0 0 0 0 0
0 0 0 0 0 0 0 0 0 0 0 0 0 0 0 0 0 0 0 0 0 0 0 0 0 0 0 0 0 0 0 0 0 0 55 102 48 0 0 1 2 0 0 0 0 0 0 0 0
0 0 0 0 0 0 0 0 0 0 0 0 0 0 0 0 0 0 0 0 0 0 0 0 0 0 0 0 0 0 0 0 0 0 0 37 34 0 0 0 1 0 0 0 0 0 0 0 0
0 0 0 0 0 0 0 0 0 0 0 0 0 0 0 0 0 0 0 0 0 0 0 0 0 0 0 0 0 0 0 0 0 1 0 0 0 0 0 0 0 0 0 0 0 0 0 0 0
0 0 0 0 0 0 0 0 0 0 0 0 0 0 0 0 0 0 0 0 0 0 0 0 0 0 0 0 0 0 0 0 0 0 0 0 0 0 0 0 0 0 0 0 0 0 0 0 0

GFSSGP_con_sbcape_048.txt.gz
CAPE
55 0 0 0 0 0 0 0 0 0 0 0 0 0 0 0 0 16 226 579 266 700 1127 1142 2031 2105 2339 2271 1690 1322 790 463 174 11 1 0 0 0 0 24 10 7 10 89 76 22 0 0 0
18 0 0 0 0 0 0 0 0 0 0 0 0 0 0 0 2 357 602 607 436 1129 1276 1176 1986 2247 2328 2060 1388 1095 690 433 166 24 8 0 0 0 4 121 156 88 109 83 20 0 0 0 1
0 0 0 0 0 0 0 0 0 0 0 0 0 0 0 0 6 329 530 620 634 995 900 1350 2109 2239 2236 1971 1542 1088 693 488 272 108 9 0 0 8 36 78 89 62 14 5 1 0 0 0 3
0 0 0 0 0 0 0 0 0 0 0 0 0 0 0 0 7 304 750 623 826 899 923 1386 1827 1490 1532 1522 1498 1080 729 431 168 79 15 0 0 4 7 26 8 3 1 1 0 0 0 1 4
0 0 3 0 0 0 0 0 0 0 0 0 0 0 0 86 468 596 978 875 935 832 765 987 1654 1578 1225 1415 1433 1285 815 475 181 78 7 0 0 2 0 3 2 0 0 0 0 0 0 1 4
0 0 12 8 0 0 0 0 0 0 0 0 0 0 0 252 683 888 1014 1064 988 908 654 697 680 958 1095 1171 1212 1197 900 532 274 135 1 0 0 2 8 6 0 0 0 0 0 3 6 4 0
0 0 1 1 0 0 0 0 0 0 0 0 0 0 0 98 848 680 775 1043 1047 932 574 435 489 565 614 687 816 949 898 712 535 257 55 29 9 2 0 1 1 0 7 29 42 54 48 0 0
0 0 0 0 0 0 0 0 0 0 0 0 0 0 0 0 761 680 522 595 611 932 593 476 385 498 493 441 375 442 669 656 439 269 160 40 0 16 15 41 36 25 61 112 136 50 0 0 0
0 0 0 0 0 0 0 0 0 0 0 0 0 0 0 0 527 561 553 463 553 897 738 596 391 393 297 135 154 233 299 322 231 158 65 8 0 0 0 0 45 136 221 178 168 0 0 0 0
0 0 0 0 0 0 0 0 0 0 0 0 0 0 141 350 453 463 426 387 518 555 708 733 557 367 185 99 115 44 271 371 269 91 69 57 44 9 0 0 27 130 218 243 134 0 0 0 0
0 0 0 0 0 0 0 0 0 0 0 0 0 0 36 355 502 496 500 621 575 594 554 500 579 393 187 131 134 117 375 239 214 72 66 85 122 155 96 2 12 97 76 106 87 0 0 0 0
0 0 0 0 0 0 0 0 0 0 0 0 0 0 0 216 501 500 426 560 507 545 564 401 420 559 280 199 173 138 240 296 202 137 66 130 128 164 170 110 10 75 122 147 167 3 0 0 0
0 0 0 0 0 0 0 0 0 0 0 0 0 0 0 0 32 503 657 655 648 696 674 536 450 904 507 412 323 206 196 253 230 199 124 98 124 139 167 172 115 39 85 106 91 2 0 0 0
0 0 0 0 0 0 0 0 0 0 0 0 0 0 0 0 0 0 69 524 901 967 856 597 603 735 762 386 548 503 338 236 321 244 204 127 80 105 138 160 175 126 69 80 40 0 0 0 0
0 0 0 0 0 0 0 0 0 0 0 0 0 0 0 0 0 0 0 0 0 38 403 947 884 763 704 437 428 716 673 453 340 320 237 177 94 77 79 109 167 178 120 47 27 0 0 0 0
1 0 0 0 0 0 0 0 0 0 0 0 0 0 0 0 0 0 0 0 0 0 0 0 408 912 896 718 679 635 805 731 576 441 309 224 131 78 77 107 164 204 158 37 0 0 0 0 0
2 0 0 0 0 0 0 0 0 0 0 0 0 0 0 0 0 0 0 0 0 0 0 0 0 303 804 929 652 638 628 803 866 640 469 391 230 125 93 99 121 174 150 42 0 0 0 0 0
0 0 0 0 0 0 0 0 0 0 0 0 0 0 0 0 0 0 0 0 0 0 0 0 0 0 186 808 761 675 417 521 1038 880 684 539 414 285 236 92 103 127 131 79 0 0 0 0 0
0 0 0 0 0 0 0 0 0 0 0 0 0 0 0 0 0 0 0 0 0 0 0 0 0 0 0 25 929 700 465 409 360 668 893 704 465 327 270 170 95 110 123 116 9 0 0 0 0
0 0 0 0 0 0 0 0 0 0 0 0 0 0 0 0 0 0 0 0 0 0 0 0 0 0 0 0 148 599 720 635 769 470 392 516 597 385 344 246 179 136 135 125 82 0 0 0 0
0 0 0 0 0 0 0 0 0 0 0 0 0 0 0 0 0 0 0 0 0 0 0 0 0 0 0 0 0 43 555 850 679 677 370 451 472 484 461 332 400 261 169 163 135 1 0 0 0
8 0 0 0 0 0 0 0 0 0 0 0 0 0 0 0 0 0 0 0 0 0 0 0 0 0 0 0 0 0 22 341 382 333 461 771 290 357 427 325 343 333 238 51 45 0 0 0 0
2 0 0 0 0 0 0 0 0 0 0 0 0 0 0 0 0 0 0 0 0 0 0 0 0 0 0 0 0 0 0 18 55 161 408 506 530 247 114 115 153 219 150 59 26 0 0 0 0
0 0 0 0 0 1 0 0 0 0 0 0 0 0 0 0 0 0 0 0 0 0 0 0 0 0 0 0 0 0 0 0 7 269 554 813 738 271 101 22 111 203 128 50 43 1 0 0 0
0 2 17 16 7 2 0 0 0 0 0 0 0 0 0 0 0 0 0 0 0 0 0 0 0 0 0 0 0 0 0 0 0 36 310 642 800 376 43 57 18 50 67 77 30 7 0 0 0
5 7 9 0 0 0 0 0 0 0 0 0 0 0 0 0 0 0 0 0 0 0 0 0 0 0 0 0 0 0 0 0 0 0 11 314 455 598 340 31 49 45 40 13 3 7 3 0 0
2 12 0 0 0 0 0 0 0 0 0 0 0 0 0 0 0 0 0 0 0 0 0 0 0 0 0 0 0 0 0 0 0 0 0 3 100 334 462 386 45 33 12 0 0 2 4 3 2
0 0 0 0 0 0 0 0 0 0 0 0 0 0 0 0 0 0 0 0 0 0 0 0 0 0 0 0 0 0 0 0 0 0 0 1 27 106 227 152 90 11 0 0 0 0 1 1 3
0 0 0 0 0 0 0 0 0 0 0 0 0 0 0 0 0 0 0 0 0 0 0 0 0 0 0 0 0 0 0 0 0 0 0 0 19 58 83 79 65 3 0 0 0 0 0 0 0
0 0 0 0 0 0 0 0 0 0 0 0 0 0 0 0 0 0 0 0 0 0 0 0 0 0 0 0 0 0 0 0 0 1 1 1 1 0 1 0 0 0 0 0 0 0 0 0 0

GFSSGP_con_sbcape_051.txt.gz
CAPE
46 19 0 0 0 0 0 0 0 0 0 0 0 0 0 0 0 112 393 660 493 1004 1274 1404 2041 2356 2450 2254 1677 1169 808 471 109 7 0 2 3 0 1 18 3 0 50 82 48 2 0 0 0
32 0 0 0 0 0 0 0 0 0 0 0 0 0 0 0 12 716 814 656 561 982 1192 1002 2148 2397 2365 1883 1377 981 675 351 36 1 0 0 0 1 100 70 19 15 96 58 3 0 0 0 3
62 1 0 0 0 0 0 0 0 0 0 0 0 0 0 0 107 531 899 527 742 1098 967 1485 2243 2394 2261 1957 1546 946 655 403 65 7 0 0 0 9 96 150 82 59 13 1 0 0 0 1 2
30 0 0 3 0 0 0 0 0 0 0 0 0 0 0 39 155 630 751 577 927 917 1119 1430 2170 2255 2105 1841 1492 1029 699 395 74 22 0 0 3 15 48 21 20 5 11 1 0 0 0 0 2
43 39 26 7 0 0 0 0 0 0 0 0 0 0 0 478 629 846 743 577 907 725 1374 1195 1916 1769 1791 1586 1255 1228 719 291 132 43 0 0 0 4 32 0 3 0 0 0 0 0 0 1 3
39 79 46 42 6 0 0 0 0 0 0 0 0 0 28 618 950 1079 903 870 827 715 890 851 1068 1301 1127 1317 1316 1272 840 510 216 155 0 0 0 1 3 0 0 0 0 0 0 1 4 5 0
11 81 60 41 38 6 0 0 0 0 0 0 0 0 34 689 1110 1053 1047 973 936 766 540 571 400 394 682 708 864 1215 1041 685 336 164 0 0 0 5 0 0 0 0 0 1 3 27 21 0 0
4 112 83 57 34 5 3 0 0 0 0 0 0 0 7 64 1006 928 890 1089 1016 872 467 372 360 460 482 462 459 712 817 615 384 143 87 0 0 0 0 1 0 0 1 42 76 21 0 0 0
0 53 55 41 20 9 16 0 0 0 0 0 0 0 0 0 790 675 561 572 844 904 617 419 320 404 324 253 293 242 374 411 190 107 18 0 0 0 0 0 58 125 160 145 114 0 0 0 0
0 7 4 1 12 2 10 0 0 0 0 0 0 0 83 105 568 709 492 416 548 895 740 553 344 283 220 104 146 61 74 348 188 120 29 0 0 0 0 0 32 80 151 221 51 0 0 0 0
0 0 0 8 0 0 0 0 0 0 0 0 0 0 0 195 429 561 615 719 520 588 729 650 552 331 185 67 73 32 51 325 339 142 51 7 26 9 0 0 0 36 37 67 53 0 0 0 0
0 0 0 0 0 0 0 0 0 0 0 0 0 0 0 14 285 420 536 740 796 690 519 498 670 527 241 103 78 53 176 204 159 140 44 44 92 112 33 2 0 26 57 70 118 67 0 0 0
0 0 0 0 0 0 0 0 0 0 0 0 0 0 0 0 0 297 445 621 672 713 854 508 464 672 544 206 144 122 135 233 182 132 80 64 102 103 122 92 43 5 59 79 164 100 0 0 0
0 1 0 0 0 0 0 0 0 0 0 0 0 0 0 0 0 0 167 572 632 671 781 752 474 480 837 554 365 351 269 254 292 222 173 67 76 89 128 136 134 83 42 55 67 55 0 0 0
2 7 1 0 0 0 0 0 0 0 0 0 0 0 0 0 0 0 0 0 69 438 725 876 804 804 916 983 651 603 715 540 438 492 294 147 92 98 89 114 158 178 120 52 38 18 0 0 0
9 8 5 0 0 0 0 0 0 0 0 0 0 0 0 0 0 0 0 0 0 0 0 61 550 915 914 946 795 635 848 820 678 594 545 348 181 121 100 113 120 136 186 148 69 33 0 0 0
36 0 0 0 0 0 0 0 0 0 0 0 0 0 0 0 0 0 0 0 0 0 0 0 0 44 607 871 867 675 638 1010 1040 830 706 578 403 248 143 118 112 94 219 102 104 37 0 0 0
0 0 0 0 0 0 0 0 0 0 0 0 0 0 0 0 0 0 0 0 0 0 0 0 0 0 0 118 525 1032 668 629 816 1250 1077 836 715 594 407 283 176 123 222 167 121 40 0 0 0
0 0 0 0 0 0 0 0 0 0 0 0 0 0 0 0 0 0 0 0 0 0 0 0 0 0 0 0 35 1077 814 530 368 988 1365 1089 963 808 700 526 379 272 257 320 196 65 1 0 0
0 0 0 0 0 0 0 0 0 0 0 0 0 0 0 0 0 0 0 0 0 0 0 0 0 0 0 0 0 85 856 449 502 441 674 1087 1227 1040 791 774 621 452 321 300 203 94 7 0 0
3 0 0 0 0 0 0 0 0 0 0 0 0 0 0 0 0 0 0 0 0 0 0 0 0 0 0 0 0 0 85 720 865 901 809 491 588 1067 1006 805 775 684 470 391 356 250 20 0 0
16 0 3 0 0 0 0 0 0 0 0 0 0 0 0 0 0 0 0 0 0 0 0 0 0 0 0 0 0 0 0 6 381 592 650 667 579 433 613 625 697 649 634 497 480 348 68 0 0
34 3 0 0 0 0 0 0 0 0 0 0 0 0 0 0 0 0 0 0 0 0 0 0 0 0 0 0 0 0 0 0 0 49 237 251 541 771 431 338 443 515 502 458 529 399 202 0 0
0 0 0 0 0 5 0 0 0 0 0 0 0 0 0 0 0 0 0 0 0 0 0 0 0 0 0 0 0 0 0 0 0 0 73 160 411 690 790 274 202 230 297 324 354 446 165 3 1
0 33 35 31 26 4 0 0 0 0 0 0 0 0 0 0 0 0 0 0 0 0 0 0 0 0 0 0 0 0 0 0 0 0 0 50 255 576 688 346 240 185 195 230 273 198 112 2 0
7 37 73 12 8 3 0 0 0 0 0 0 0 0 0 0 0 0 0 0 0 0 0 0 0 0 0 0 0 0 0 0 0 0 0 0 9 198 481 627 315 210 217 234 212 112 87 0 0
3 5 0 0 0 0 0 0 0 0 0 0 0 0 0 0 0 0 0 0 0 0 0 0 0 0 0 0 0 0 0 0 0 0 0 0 0 8 124 531 526 238 217 228 215 101 32 0 0
5 0 3 1 0 0 0 0 0 0 0 0 0 0 0 0 0 0 0 0 0 0 0 0 0 0 0 0 0 0 0 0 0 0 0 0 0 0 17 161 313 239 172 193 65 7 0 0 0
0 0 0 0 0 0 0 0 0 0 0 0 0 0 0 0 0 0 0 0 0 0 0 0 0 0 0 0 0 0 0 0 0 0 0 0 0 0 1 47 116 124 138 32 0 0 0 0 0
0 0 0 1 0 0 0 0 0 0 0 0 0 0 0 0 0 0 0 0 0 0 0 0 0 0 0 0 0 0 0 0 0 0 0 0 0 1 0 0 0 5 0 0 0 0 0 0 0

GFSSGP_con_sbcape_054.txt.gz
CAPE
52 0 0 0 0 0 0 0 0 0 0 0 0 0 0 0 134 437 366 421 1113 614 1067 1744 2162 2222 2337 2214 1500 1332 975 442 155 32 10 0 0 0 3 0 1 3 76 63 6 0 1 3 4
33 45 0 0 0 0 0 0 0 0 0 0 0 0 0 31 654 360 635 451 872 891 780 895 2168 2451 2365 1982 1298 1057 620 134 0 0 0 0 0 35 42 3 3 51 67 12 0 0 1 3 3
58 61 8 0 0 0 0 0 0 0 0 0 0 0 0 21 333 669 638 372 903 914 824 1454 2318 2480 2159 1742 1455 1214 808 99 4 0 0 0 5 147 90 70 156 92 9 2 0 0 2 3 3
46 71 2 0 0 0 0 0 0 0 0 0 0 0 0 211 380 644 454 457 821 769 997 1820 2264 2360 2100 1744 1459 1217 763 225 10 0 0 0 22 63 39 39 11 44 19 1 0 0 3 7 5
68 44 16 1 0 0 0 0 0 0 0 0 0 0 165 484 630 504 442 739 697 1151 1073 1561 2153 2234 1950 1394 1166 1199 964 261 99 2 0 0 12 45 2 4 9 9 0 0 0 1 2 5 0
103 32 25 3 0 0 0 0 0 0 0 0 0 4 313 616 835 620 428 651 552 1119 977 1005 1419 1761 1708 1147 996 1033 897 502 183 2 0 0 5 16 0 0 0 0 0 0 0 2 3 1 0
35 17 29 1 0 10 0 0 0 0 0 0 0 0 573 922 950 830 694 637 533 721 652 478 390 655 862 860 978 813 978 433 193 65 0 0 12 12 3 0 0 0 0 0 2 11 0 0 0
3 17 13 21 15 1 2 0 0 0 0 0 0 0 88 884 863 821 809 802 666 426 410 204 148 179 277 350 469 641 605 261 197 56 12 0 0 0 2 0 0 2 10 64 72 34 0 0 0
17 25 14 6 9 23 0 0 0 0 0 0 0 21 43 825 763 566 562 525 759 523 253 191 148 184 279 194 201 356 346 223 107 44 9 0 0 0 0 0 0 65 150 193 101 0 0 0 0
15 13 7 12 11 22 0 0 0 0 0 0 0 0 35 501 650 484 395 361 529 678 403 191 204 205 171 137 110 130 153 187 73 18 0 0 0 0 0 0 5 78 157 218 74 0 0 0 0
1 0 1 14 1 0 1 0 0 0 0 0 0 0 96 175 263 529 464 384 349 435 588 306 186 100 88 19 47 2 28 126 117 60 4 0 0 0 0 0 0 0 3 83 12 0 0 0 0
0 0 0 14 0 0 0 0 0 0 0 0 0 0 0 87 179 247 406 529 474 492 487 436 370 179 70 21 15 8 12 111 150 124 11 0 0 0 0 0 0 0 0 22 24 0 0 0 0
0 0 0 0 0 0 0 0 0 0 0 0 0 0 0 0 2 171 242 408 530 512 420 379 383 387 174 36 12 4 0 131 111 31 0 0 8 20 0 0 0 0 0 0 37 14 0 0 0
0 0 0 1 0 0 0 0 0 0 0 0 0 0 0 0 0 0 149 311 402 432 478 402 402 334 370 158 89 9 0 62 98 50 22 0 5 23 30 13 1 0 0 1 40 46 0 0 0
2 6 1 0 0 0 0 0 0 0 0 0 0 0 0 0 0 0 0 0 55 312 374 537 360 268 314 540 231 190 212 147 130 160 55 45 0 14 18 28 10 3 0 0 6 2 0 0 0
14 9 2 0 0 0 0 0 0 0 0 0 0 0 0 0 0 0 0 0 0 0 0 290 636 545 471 551 461 341 322 408 294 216 207 83 38 0 0 17 26 22 16 0 0 0 0 0 0
17 4 0 0 0 0 0 0 0 0 0 0 0 0 0 0 0 0 0 0 0 0 0 0 0 139 594 567 444 357 385 398 538 410 351 236 87 41 12 0 12 25 19 23 11 0 0 0 0
0 0 0 0 0 0 0 0 0 0 0 0 0 0 0 0 0 0 0 0 0 0 0 0 0 0 0 51 413 431 246 320 385 476 576 401 291 121 0 0 0 11 11 27 19 0 0 0 0
0 0 0 0 0 0 0 0 0 0 0 0 0 0 0 0 0 0 0 0 0 0 0 0 0 0 0 0 0 546 544 395 377 443 423 636 380 379 153 63 36 12 14 38 34 13 0 0 0
0 0 0 0 0 0 0 0 0 0 0 0 0 0 0 0 0 0 0 0 0 0 0 0 0 0 0 0 0 0 532 479 385 230 294 290 443 476 396 193 113 81 44 19 28 34 0 0 0
1 0 0 0 0 0 0 0 0 0 0 0 0 0 0 0 0 0 0 0 0 0 0 0 0 0 0 0 0 0 0 114 213 225 186 284 335 260 431 421 309 93 86 36 37 32 0 0 0
3 0 0 3 0 0 0 0 0 0 0 0 0 0 0 0 0 0 0 0 0 0 0 0 0 0 0 0 0 0 0 0 8 267 349 370 306 332 366 239 342 512 397 219 108 60 13 0 0
32 18 0 3 0 0 0 0 0 0 0 0 0 0 0 0 0 0 0 0 0 0 0 0 0 0 0 0 0 0 0 0 0 0 0 17 134 243 258 279 343 237 422 397 310 204 181 30 0
27 0 0 0 0 1 0 0 0 0 0 0 0 0 0 0 0 0 0 0 0 0 0 0 0 0 0 0 0 0 0 0 0 0 0 0 0 2 197 215 216 229 252 345 341 427 246 199 18
6 3 22 29 6 0 0 0 0 0 0 0 0 0 0 0 0 0 0 0 0 0 0 0 0 0 0 0 0 0 0 0 0 0 0 0 0 6 61 191 164 159 228 284 363 351 446 244 42
0 0 28 1 1 0 0 0 0 0 0 0 0 0 0 0 0 0 0 0 0 0 0 0 0 0 0 0 0 0 0 0 0 0 0 0 0 0 1 8 60 61 137 153 242 350 406 454 210
0 0 0 0 0 0 0 0 0 0 0 0 0 0 0 0 0 0 0 0 0 0 0 0 0 0 0 0 0 0 0 0 0 0 0 0 0 0 0 0 0 82 109 187 271 363 459 411 200
0 0 0 0 0 0 0 0 0 0 0 0 0 0 0 0 0 0 0 0 0 0 0 0 0 0 0 0 0 0 0 0 0 0 0 0 0 0 0 0 0 4 88 142 267 348 283 258 33
1 5 0 0 0 0 0 0 0 0 0 0 0 0 0 0 0 0 0 0 0 0 0 0 0 0 0 0 0 0 0 0 0 0 0 0 0 0 0 0 0 0 0 0 7 18 16 34 0
0 0 0 1 0 0 0 0 0 0 0 0 0 0 0 0 0 0 0 0 0 0 0 0 0 0 0 0 0 0 0 0 0 0 0 0 0 0 0 0 0 0 0 0 0 0 0 0 0

GFSSGP_con_sbcape_057.txt.gz
CAPE
97 2 0 0 0 0 0 0 0 0 0 0 0 0 0 2 190 61 87 566 718 1275 1997 2002 2337 2443 2378 2101 1718 1478 1215 850 440 214 19 0 0 1 1 1 7 73 65 1 1 3 5 5 0
140 48 0 0 0 0 0 0 0 0 0 0 0 0 0 341 247 150 371 574 648 1219 1469 1544 2149 2402 2271 1841 1437 1163 760 60 2 0 0 0 0 7 3 4 37 150 18 0 1 2 4 3 0
80 8 0 0 0 0 0 0 0 0 0 0 0 0 0 15 219 269 236 539 624 649 796 1585 2124 2377 2149 1726 1512 1140 452 4 0 0 0 0 189 81 15 77 220 22 0 0 0 1 4 3 0
2 0 0 0 0 0 0 0 0 0 0 0 0 0 19 66 386 382 240 850 680 608 1067 1845 2272 2250 1991 1765 1559 1099 277 0 0 0 0 16 121 189 153 46 92 43 6 0 0 1 5 1 0
13 1 1 0 0 0 0 0 0 0 0 0 0 6 304 270 234 170 216 776 725 889 1207 1763 2242 2159 1935 1497 1173 1076 767 31 6 0 0 35 96 73 75 11 12 1 0 0 0 2 2 0 0
26 18 3 0 0 0 0 0 0 0 0 0 3 51 354 237 254 127 237 979 953 989 1254 1576 2019 1963 1399 1188 924 984 781 473 29 0 0 9 105 22 1 1 0 0 0 0 0 2 2 0 0
1 6 2 0 0 0 0 0 0 0 0 0 0 152 337 728 405 165 164 1025 892 811 885 966 1235 1212 908 746 675 770 743 422 124 25 0 49 86 66 1 0 0 0 0 0 0 1 0 0 0
45 4 0 0 0 0 4 0 0 0 0 0 0 107 542 689 436 368 236 446 757 563 476 204 263 346 392 436 457 526 329 195 123 44 17 0 0 21 44 35 43 2 3 11 52 43 0 0 0
1 37 4 17 2 0 3 1 0 0 0 0 0 12 667 607 370 411 358 407 231 325 200 70 75 101 118 229 261 286 126 103 63 29 5 0 0 0 0 0 14 88 133 130 108 3 0 0 0
51 12 0 0 0 0 0 0 0 0 0 0 0 527 669 584 392 271 332 425 420 128 133 75 44 82 104 182 115 125 124 72 8 2 0 0 0 0 0 0 0 86 151 194 108 2 0 0 0
0 7 0 0 0 0 6 0 0 0 0 0 4 196 380 505 400 309 237 230 336 236 161 20 63 80 71 182 72 54 72 71 0 0 0 0 0 0 0 0 4 3 40 87 38 4 0 0 0
0 0 0 15 10 0 0 0 0 0 0 0 0 18 65 136 184 322 297 234 186 232 249 215 102 12 0 63 0 0 8 40 32 0 0 0 0 0 0 0 0 0 0 17 0 0 0 0 0
1 0 0 0 0 0 0 0 0 0 0 0 0 0 0 34 75 90 287 222 280 262 283 258 172 148 2 0 0 0 0 3 61 23 0 0 0 0 0 0 0 0 0 1 5 0 0 0 0
0 0 1 2 1 0 0 0 0 0 0 0 0 0 0 0 0 11 104 257 227 313 278 194 230 165 103 0 0 0 0 0 21 0 0 0 0 0 0 0 0 0 0 0 3 1 0 0 0
0 29 2 0 0 0 0 0 0 0 0 0 0 0 0 0 0 0 0 121 111 207 230 260 242 197 135 135 0 0 0 0 0 0 0 0 0 0 0 0 0 0 0 0 0 4 0 0 0
14 11 5 0 0 0 0 0 0 0 0 0 0 0 0 0 0 0 0 0 0 0 170 340 412 269 164 140 207 5 70 113 7 0 0 0 0 0 0 0 0 0 0 0 0 0 0 0 0
38 0 0 0 0 0 0 0 0 0 0 0 0 0 0 0 0 0 0 0 0 0 0 133 450 297 190 148 177 173 108 127 214 203 84 0 0 0 0 0 0 0 0 0 0 0 0 0 0
0 0 0 0 0 0 0 0 0 0 0 0 0 0 0 0 0 0 0 0 0 0 0 0 0 12 237 295 163 147 139 116 116 210 253 139 10 0 0 0 0 0 0 0 0 0 0 0 0
0 0 0 0 0 0 0 0 0 0 0 0 0 0 0 0 0 0 0 0 0 0 0 0 0 0 0 0 0 144 249 134 40 131 251 280 180 3 0 0 0 0 0 0 0 0 0 0 0
0 0 0 0 0 0 0 0 0 0 0 0 0 0 0 0 0 0 0 0 0 0 0 0 0 0 0 0 0 0 109 180 224 180 125 144 89 78 65 0 0 0 0 0 0 0 0 0 0
0 0 0 0 0 0 0 0 0 0 0 0 0 0 0 0 0 0 0 0 0 0 0 0 0 0 0 0 0 0 0 0 29 19 22 40 48 80 105 75 0 0 0 0 0 0 0 3 0
0 0 0 0 0 0 0 0 0 0 0 0 0 0 0 0 0 0 0 0 0 0 0 0 0 0 0 0 0 0 0 0 0 0 1 26 0 0 8 67 64 0 8 0 0 0 0 0 0
0 2 0 0 0 0 0 0 0 0 0 0 0 0 0 0 0 0 0 0 0 0 0 0 0 0 0 0 0 0 0 0 0 0 0 0 0 31 42 67 19 5 1 23 43 1 1 1 17
1 0 2 0 0 0 0 0 0 0 0 0 0 0 0 0 0 0 0 0 0 0 0 0 0 0 0 0 0 0 0 0 0 0 0 0 0 0 0 19 62 22 10 88 114 90 62 57 37
0 0 12 6 6 0 0 0 0 0 0 0 0 0 0 0 0 0 0 0 0 0 0 0 0 0 0 0 0 0 0 0 0 0 0 0 0 0 0 0 6 2 3 39 96 134 195 124 154
0 0 0 0 0 0 0 0 0 0 0 0 0 0 0 0 0 0 0 0 0 0 0 0 0 0 0 0 0 0 0 0 0 0 0 0 0 0 0 0 0 0 0 16 45 109 133 219 146
0 0 0 0 0 0 0 0 0 0 0 0 0 0 0 0 0 0 0 0 0 0 0 0 0 0 0 0 0 0 0 0 0 0 0 0 0 0 0 0 0 0 0 0 0 23 75 124 208
0 0 0 0 0 0 0 0 0 0 0 0 0 0 0 0 0 0 0 0 0 0 0 0 0 0 0 0 0 0 0 0 0 0 0 0 0 0 0 0 0 0 0 0 0 0 3 13 37
0 0 0 0 0 0 0 0 0 0 0 0 0 0 0 0 0 0 0 0 0 0 0 0 0 0 0 0 0 0 0 0 0 0 0 0 0 0 0 0 0 0 0 0 0 0 0 0 0
0 0 0 0 0 0 0 0 0 0 0 0 0 0 0 0 0 0 0 0 0 0 0 0 0 0 0 0 0 0 0 0 0 0 0 0 0 0 0 0 0 0 0 0 0 0 0 0 0

GFSSGP_con_sbcape_060.txt.gz
CAPE
73 0 0 0 0 0 0 0 0 0 0 0 0 11 40 13 64 0 17 303 1162 1746 1979 2123 2379 2393 2298 1936 1643 1607 1310 1168 946 348 19 0 0 1 0 0 90 57 1 2 2 4 3 0 0
51 0 0 0 0 0 0 0 0 0 0 0 0 0 10 358 156 456 488 891 1299 1773 1898 1939 2431 2405 2185 1898 1513 1245 646 199 95 9 0 0 8 2 4 3 191 18 1 1 1 2 2 0 0
60 0 0 0 0 0 0 0 0 0 0 0 0 0 0 257 144 278 434 819 1322 1464 1459 1785 2354 2288 2080 1636 1408 852 163 1 0 0 0 86 90 7 2 208 170 0 0 0 0 0 0 0 0
7 0 0 0 0 0 0 0 0 0 0 0 0 52 72 51 336 321 502 837 761 592 1095 1546 2217 2219 1941 1729 1292 653 39 0 0 0 0 456 424 86 467 255 2 0 0 0 0 1 0 0 0
9 0 0 0 0 0 0 0 0 0 0 0 0 71 331 175 53 534 538 459 512 843 1266 1426 2117 2128 1874 1726 1240 775 112 8 0 0 119 413 123 277 153 54 0 0 0 0 0 0 0 0 0
14 0 0 0 0 0 0 0 0 0 0 0 151 185 223 57 30 754 696 547 745 932 1308 1596 1944 1807 1746 1547 1321 894 502 40 5 0 117 151 126 82 67 42 0 0 0 0 1 1 0 0 0
3 0 0 0 0 0 0 0 0 0 0 0 4 161 395 498 143 313 762 815 936 1090 1310 1519 1492 1337 854 890 874 825 709 240 67 27 91 196 149 109 68 32 21 0 0 0 1 31 15 0 0
0 0 0 0 0 0 0 0 0 0 0 0 0 395 788 510 237 306 872 726 763 880 945 837 946 790 505 425 477 533 580 243 101 66 64 23 41 47 79 55 57 43 41 44 60 60 0 0 0
15 11 0 0 0 0 0 0 0 0 0 0 1 72 330 358 197 326 366 447 416 493 422 367 371 347 217 210 183 228 137 114 80 48 14 9 0 9 11 0 22 82 115 113 102 48 0 0 0
47 17 0 0 0 0 0 0 0 0 0 65 754 667 593 301 299 264 374 377 224 193 110 94 72 95 97 251 106 88 59 32 8 2 0 0 0 0 1 0 20 102 147 162 145 36 13 0 0
31 0 0 0 0 0 0 0 0 0 0 10 608 829 561 197 176 243 204 255 176 34 52 44 35 47 57 91 50 52 45 8 0 0 0 0 0 0 0 0 6 24 66 75 113 23 0 0 0
0 0 0 3 3 1 0 0 0 0 0 0 166 529 334 280 189 140 141 130 123 145 51 36 30 30 40 50 28 22 30 9 0 0 0 0 0 0 0 0 0 4 13 26 18 0 0 0 0
1 0 0 8 11 9 1 0 0 0 0 0 9 75 184 215 240 225 139 87 37 130 170 78 38 0 0 30 3 0 0 1 0 0 0 0 0 0 0 0 0 0 0 6 6 0 0 0 0
2 0 7 0 4 43 30 0 1 0 0 0 0 0 0 19 46 43 210 235 179 144 121 101 97 0 0 0 0 0 0 0 0 0 0 0 0 0 0 0 0 0 0 0 0 0 0 0 0
0 39 4 0 0 0 7 1 0 0 0 0 0 0 0 0 0 15 48 126 180 248 125 47 64 75 3 0 0 0 0 0 0 0 0 0 0 0 0 0 0 0 0 0 0 0 0 0 0
0 30 6 0 0 0 0 0 0 0 0 0 0 0 0 0 0 0 0 14 4 118 285 220 257 133 23 20 25 0 0 0 0 0 0 0 0 0 0 0 0 0 0 0 0 0 0 0 0
4 0 0 0 0 0 0 0 0 0 0 0 0 0 0 0 0 0 0 0 0 0 0 166 258 304 127 19 0 52 0 0 0 0 0 0 0 0 0 0 0 0 0 0 0 0 0 0 0
0 0 0 0 0 0 0 0 0 0 0 0 0 0 0 0 0 0 0 0 0 0 0 0 0 25 103 41 0 0 0 0 0 31 39 0 0 0 0 0 0 0 0 0 0 0 0 0 0
0 0 0 0 0 0 0 0 0 0 0 0 0 0 0 0 0 0 0 0 0 0 0 0 0 0 0 0 0 22 54 60 0 0 0 74 47 0 0 0 0 0 0 0 0 0 0 0 0
0 0 0 0 0 0 0 0 0 0 0 0 0 0 0 0 0 0 0 0 0 0 0 0 0 0 0 0 0 0 0 5 1 0 1 0 0 0 6 0 0 0 0 0 0 0 0 0 0
0 0 0 0 0 0 0 0 0 0 0 0 0 0 0 0 0 0 0 0 0 0 0 0 0 0 0 0 0 0 0 0 0 0 0 0 0 0 0 0 0 0 0 0 0 0 0 0 0
0 0 0 0 0 0 0 0 0 0 0 0 0 0 0 0 0 0 0 0 0 0 0 0 0 0 0 0 0 0 0 0 0 0 0 0 0 0 0 0 0 0 0 0 0 0 0 0 0
0 0 0 0 0 0 0 0 0 0 0 0 0 0 0 0 0 0 0 0 0 0 0 0 0 0 0 0 0 0 0 0 0 0 0 0 0 0 0 0 0 0 0 0 0 0 0 0 0
0 0 0 0 0 2 0 0 0 0 0 0 0 0 0 0 0 0 0 0 0 0 0 0 0 0 0 0 0 0 0 0 0 0 0 0 0 0 0 0 0 0 0 0 0 0 0 0 0
0 0 1 14 2 0 0 0 0 0 0 0 0 0 0 0 0 0 0 0 0 0 0 0 0 0 0 0 0 0 0 0 0 0 0 0 0 0 0 0 0 0 0 0 0 0 0 0 4
4 0 0 0 0 0 0 0 0 0 0 0 0 0 0 0 0 0 0 0 0 0 0 0 0 0 0 0 0 0 0 0 0 0 0 0 0 0 0 0 0 0 0 0 0 0 0 0 0
0 0 0 0 0 0 0 0 0 0 0 0 0 0 0 0 0 0 0 0 0 0 0 0 0 0 0 0 0 0 0 0 0 0 0 0 0 0 0 0 0 0 0 0 0 0 0 0 0
0 0 0 1 0 0 0 0 0 0 0 0 0 0 0 0 0 0 0 0 0 0 0 0 0 0 0 0 0 0 0 0 0 0 0 0 0 0 0 0 0 0 0 0 0 0 0 0 0
1 1 0 0 0 0 0 0 0 0 0 0 0 0 0 0 0 0 0 0 0 0 0 0 0 0 0 0 0 0 0 0 0 0 0 0 0 0 0 0 0 0 0 0 0 0 0 0 0
0 0 0 0 0 0 0 0 0 0 0 0 0 0 0 0 0 0 0 0 0 0 0 0 0 0 0 0 0 0 0 0 0 0 0 0 0 0 0 0 0 0 0 0 0 0 0 0 0

GFSSGP_con_sbcape_063.txt.gz
CAPE
49 0 0 0 0 0 0 0 0 0 0 0 0 0 0 21 0 0 11 285 971 1622 1899 1960 2259 2286 2250 1981 1655 1664 1463 1251 864 310 6 0 1 0 0 76 32 3 1 0 1 1 0 0 0
26 0 0 0 0 0 0 0 0 0 0 0 0 0 81 218 113 331 468 850 1344 1642 1836 1854 2379 2367 2010 1673 1475 1162 589 337 188 22 0 0 0 0 0 177 42 0 0 0 0 2 0 0 0
62 0 0 0 0 0 0 0 0 0 0 0 0 3 53 308 330 309 298 1213 1489 1577 1708 1908 2348 2244 2024 1618 1143 500 185 79 12 0 0 35 2 1 0 324 1 0 0 0 0 0 0 0 0
2 0 0 0 0 0 0 0 0 0 0 0 0 107 131 67 217 219 918 1432 1421 1193 1422 2073 2172 2220 1937 1570 1007 318 56 1 0 0 96 553 0 2 438 228 0 0 0 0 0 0 0 0 0
1 0 0 0 0 0 0 0 0 0 0 0 0 246 302 89 168 626 956 987 916 898 1007 1738 2197 2147 1883 1418 945 513 42 6 0 13 459 674 304 463 477 39 0 0 0 0 0 0 0 0 0
27 0 0 0 0 0 0 0 0 0 0 87 163 201 244 44 438 573 632 601 865 998 1161 1426 1839 1857 1812 1458 1024 640 76 18 0 55 414 238 202 309 110 35 0 0 0 0 0 0 0 0 0
30 0 0 0 0 0 0 0 0 0 0 0 42 360 269 259 142 502 383 527 733 1037 1130 1224 1357 1381 1445 1315 988 724 393 102 39 94 404 403 186 162 116 67 40 5 0 0 0 0 0 0 0
0 0 0 0 0 0 0 0 0 0 0 0 40 312 550 443 200 633 689 692 860 1076 1196 1092 1107 951 724 770 712 546 419 155 65 52 144 103 77 90 98 77 80 61 24 11 32 45 25 0 0
41 11 0 0 0 0 0 0 0 0 0 0 48 216 331 229 608 672 569 643 672 813 773 777 703 432 221 135 270 403 242 84 55 33 40 73 18 32 35 18 30 72 83 58 61 76 21 0 0
62 6 0 0 0 0 0 0 0 0 0 38 660 533 373 356 763 751 758 561 437 500 436 461 407 288 113 195 80 70 69 35 3 0 3 0 0 0 4 4 13 56 109 122 120 102 26 1 0
34 0 0 0 0 0 0 0 0 0 0 0 138 725 383 307 495 649 550 516 405 284 192 182 94 72 77 126 39 24 3 0 0 0 0 0 0 0 0 0 1 14 54 57 110 60 7 0 0
85 1 0 5 12 0 0 0 0 0 0 0 0 344 193 347 362 410 342 302 199 74 49 23 10 22 25 23 18 0 0 0 0 0 0 0 0 0 0 0 0 0 5 19 25 6 0 0 0
11 3 21 35 0 2 0 0 0 0 0 0 0 256 141 100 118 109 186 123 69 127 49 26 10 0 0 0 0 0 0 0 0 0 0 0 0 0 0 0 0 0 0 0 6 0 0 0 0
12 1 38 6 1 28 0 0 0 0 0 0 9 169 164 127 86 59 69 133 70 130 129 41 21 0 0 0 0 0 0 0 0 0 0 0 0 0 0 0 0 0 0 0 0 0 0 0 0
29 1 0 0 0 1 1 1 0 0 0 0 0 0 0 19 42 78 117 138 90 45 99 135 58 14 0 0 0 0 0 0 0 0 0 0 0 0 0 0 0 0 0 0 0 0 0 0 0
11 9 2 0 0 0 24 3 0 0 0 0 0 0 0 0 0 0 17 75 28 76 167 49 164 85 1 0 0 0 0 0 0 0 0 0 0 0 0 0 0 0 0 0 0 0 0 0 0
6 0 0 0 0 2 0 0 0 0 0 0 0 0 0 0 0 0 0 0 0 7 56 107 68 72 46 0 0 0 0 0 0 0 0 0 0 0 0 0 0 0 0 0 0 0 0 0 0
0 0 0 0 0 0 0 0 0 0 0 0 0 0 0 0 0 0 0 0 0 0 0 0 0 5 7 0 0 0 0 0 0 0 0 0 0 0 0 0 0 0 0 0 0 0 0 0 0
0 0 0 0 0 0 0 0 0 0 0 0 0 0 0 0 0 0 0 0 0 0 0 0 0 0 0 0 0 0 0 0 0 0 0 0 0 0 0 0 0 0 0 0 0 0 0 0 0
0 0 0 0 0 0 0 0 0 0 0 0 0 0 0 0 0 0 0 0 0 0 0 0 0 0 0 0 0 0 0 0 0 0 0 0 0 0 0 0 0 0 0 0 0 0 0 0 0
0 0 0 0 0 0 0 0 0 0 0 0 0 0 0 0 0 0 0 0 0 0 0 0 0 0 0 0 0 0 0 0 0 0 0 0 0 0 0 0 0 0 0 0 0 0 0 0 0
0 0 0 0 0 0 0 0 0 0 0 0 0 0 0 0 0 0 0 0 0 0 0 0 0 0 0 0 0 0 0 0 0 0 0 0 0 0 0 0 0 0 0 0 0 0 0 0 0
0 0 0 0 0 0 0 0 0 0 0 0 0 0 0 0 0 0 0 0 0 0 0 0 0 0 0 0 0 0 0 0 0 0 0 0 0 0 0 0 0 1 0 0 0 0 0 0 0
0 0 0 0 0 0 0 0 0 0 0 0 0 0 0 0 0 0 0 0 0 0 0 0 0 0 0 0 0 0 0 0 0 0 0 0 0 0 0 0 0 0 1 1 0 0 0 0 0
0 0 0 5 0 0 0 0 0 0 0 0 0 0 0 0 0 0 0 0 0 0 0 0 0 0 0 0 0 0 0 0 0 0 0 0 0 0 0 0 0 0 0 0 0 0 0 0 1
0 0 0 1 0 0 0 0 0 0 0 0 0 0 0 0 0 0 0 0 0 0 0 0 0 0 0 0 0 0 0 0 0 0 0 0 0 0 0 0 0 0 0 0 0 0 0 0 0
2 8 0 0 0 0 0 0 0 0 0 0 0 0 0 0 0 0 0 0 0 0 0 0 0 0 0 0 0 0 0 0 0 0 0 0 0 0 0 0 0 0 0 0 0 0 0 0 0
0 0 0 0 0 0 0 0 0 0 0 0 0 0 0 0 0 0 0 0 0 0 0 0 0 0 0 0 0 0 0 0 0 0 0 0 0 0 0 0 0 0 0 0 0 0 0 0 0
5 1 0 0 0 0 0 0 0 0 0 0 0 0 0 0 0 0 0 0 0 0 0 0 0 0 0 0 0 0 0 0 0 0 0 0 0 0 0 0 0 0 0 0 0 0 0 0 0
2 10 0 0 0 0 0 0 0 0 0 0 0 0 0 0 0 0 0 0 0 0 0 0 0 0 0 0 0 0 0 0 0 0 0 0 0 0 0 0 0 0 0 0 0 0 0 0 0

GFSSGP_con_sbcape_066.txt.gz
CAPE
97 0 0 0 0 0 0 0 0 0 0 0 0 0 0 10 0 0 4 230 841 1346 1793 1875 2233 2244 2275 2013 1552 1476 1232 1213 628 225 35 3 0 2 94 4 1 1 0 0 4 3 0 0 0
90 0 0 0 0 0 0 0 0 0 0 0 0 0 37 180 128 159 475 580 1145 1589 1677 1643 2272 2390 2108 1739 1423 1334 876 512 241 11 0 0 1 0 191 108 2 1 0 0 3 0 0 0 0
66 0 0 0 0 0 0 0 0 0 0 0 0 6 58 191 269 346 242 1120 1425 1560 1603 1863 2371 2254 1936 1546 1200 650 455 275 50 0 0 2 2 0 408 138 0 0 0 0 1 0 0 0 0
1 0 0 0 0 0 0 0 0 0 0 0 1 133 115 39 321 204 1109 1362 1321 1424 1483 2080 2149 2228 1881 1328 954 362 116 37 12 0 189 3 3 0 429 87 0 0 0 0 0 0 0 0 0
0 0 0 0 0 0 0 0 0 0 0 0 0 190 269 87 249 947 1418 1330 992 1237 1571 1885 2260 2101 1714 1222 879 387 26 22 11 133 568 177 64 285 411 38 0 0 0 0 0 0 0 0 0
12 0 0 0 0 0 0 0 0 0 0 3 157 200 220 58 541 959 1126 990 1056 1053 1286 1688 1987 1865 1474 1062 812 471 39 13 29 336 628 726 703 689 170 32 0 0 0 0 0 0 0 0 0
18 0 0 0 0 0 0 0 0 0 0 0 4 253 199 230 323 430 488 695 875 932 1015 1254 1483 1500 1306 1033 859 590 228 53 60 359 538 383 383 284 128 56 40 22 0 0 12 28 0 0 0
7 0 1 0 0 0 0 0 0 0 0 0 0 142 361 249 353 437 522 538 782 934 904 805 920 1024 1064 771 615 461 285 74 51 178 204 95 87 118 130 78 82 75 40 24 41 54 38 0 0
44 14 2 0 0 0 0 0 0 0 0 0 304 162 213 221 565 567 660 773 883 970 906 672 694 576 485 519 408 340 146 57 28 36 79 61 19 37 41 21 29 67 73 47 62 65 29 0 0
101 47 0 0 0 11 4 0 0 0 0 0 0 146 347 667 722 535 472 355 416 578 459 593 473 288 59 129 109 85 47 17 0 0 2 7 3 2 9 9 18 49 82 84 72 94 38 2 0
68 2 0 0 21 45 14 0 0 0 0 0 0 0 28 489 763 627 500 395 421 340 410 404 313 150 53 64 30 24 13 0 0 0 0 0 0 0 0 0 0 3 32 32 54 46 3 0 0
81 3 5 68 34 0 0 0 0 0 0 0 0 0 0 200 483 498 505 431 323 252 229 156 87 45 29 23 16 2 0 0 0 0 0 0 0 0 0 0 0 0 0 4 4 4 0 0 0
11 2 28 43 6 0 0 0 0 0 0 0 0 0 74 85 190 240 341 294 163 195 98 35 12 21 21 10 0 0 0 0 0 0 0 0 0 0 0 0 0 0 0 0 0 0 0 0 0
2 10 20 41 20 4 0 0 0 0 0 0 0 0 25 19 65 123 260 360 235 166 96 34 22 2 0 0 0 0 0 0 0 0 0 0 0 0 0 0 0 0 0 0 0 0 0 0 0
8 105 100 63 16 25 0 0 0 0 0 0 0 0 0 0 9 66 104 233 147 77 108 70 35 14 0 0 0 0 0 0 0 0 0 0 0 0 0 0 0 0 0 0 0 0 0 0 0
50 18 54 0 11 1 0 0 0 0 0 0 0 0 0 0 0 0 12 90 58 70 126 99 161 54 1 0 0 0 0 0 0 0 0 0 0 0 0 0 0 0 0 0 0 0 0 0 0
45 4 0 0 5 0 0 0 0 0 0 0 0 0 0 0 0 0 0 0 4 22 69 82 69 110 34 0 0 0 0 0 0 0 0 0 0 0 0 0 0 0 0 0 0 0 0 0 0
0 0 0 0 0 0 0 0 0 0 0 0 0 0 0 0 0 0 0 0 0 0 0 0 27 40 28 4 0 0 0 0 0 0 0 0 0 0 0 0 0 0 0 0 0 0 0 0 0
0 0 0 0 0 0 1 0 0 0 0 0 0 0 0 0 0 0 0 0 0 0 0 0 0 0 0 0 0 0 0 0 0 0 0 0 0 0 0 0 0 0 0 0 0 0 0 0 0
0 0 0 0 0 0 0 0 0 0 0 0 0 0 0 0 0 0 0 0 0 0 0 0 0 0 0 0 0 0 0 0 0 0 0 0 0 0 0 0 0 0 0 0 0 0 0 0 0
0 0 0 0 0 0 0 0 0 0 0 0 0 0 0 0 0 0 0 0 0 0 0 0 0 0 0 0 0 0 0 0 0 0 0 0 0 0 0 0 0 0 0 0 0 0 0 0 0
0 0 0 0 0 0 0 0 0 0 0 0 0 0 0 0 0 0 0 0 0 0 0 0 0 0 0 0 0 0 0 0 0 0 0 0 0 0 0 0 0 1 0 1 0 0 0 0 0
0 0 0 0 0 0 0 0 0 0 0 0 0 0 0 0 0 0 0 0 0 0 0 0 0 0 0 0 0 0 0 0 0 0 0 0 0 0 0 0 0 0 1 0 0 1 1 0 0
0 0 0 0 0 0 0 0 0 0 0 0 0 0 0 0 0 0 0 0 0 0 0 0 0 0 0 0 0 0 0 0 0 0 0 0 0 0 0 0 0 0 0 0 0 0 0 1 0
0 0 0 0 0 0 0 0 0 0 0 0 0 0 0 0 0 0 0 0 0 0 0 0 0 0 0 0 0 0 0 0 0 0 0 0 0 0 0 0 0 0 0 0 0 0 0 0 0
0 0 0 0 0 0 0 0 0 0 0 0 0 0 0 0 0 0 0 0 0 0 0 0 0 0 0 0 0 0 0 0 0 0 0 0 0 0 0 0 0 0 0 0 0 0 1 0 0
0 0 0 0 0 0 0 0 0 0 0 0 0 0 0 0 0 0 0 0 0 0 0 0 0 0 0 0 0 0 0 0 0 0 0 0 0 0 0 0 0 0 0 0 0 0 0 0 0
0 0 0 0 0 0 0 0 0 0 0 0 0 0 0 0 0 0 0 0 0 0 0 0 0 0 0 0 0 0 0 0 0 0 0 0 0 0 0 0 0 0 0 0 0 0 0 0 0
1 0 0 0 0 0 0 0 0 0 0 0 0 0 0 0 0 0 0 0 0 0 0 0 0 0 0 0 0 0 0 0 0 0 0 0 0 0 0 0 0 0 0 0 0 0 0 0 0
0 0 0 0 0 0 0 0 0 0 0 0 0 0 0 0 0 0 0 0 0 0 0 0 0 0 0 0 0 0 0 0 0 0 0 0 0 0 0 0 0 0 0 0 0 0 0 0 0

GFSSGP_con_sbcape_069.txt.gz
CAPE
194 0 0 0 0 0 0 0 0 0 0 0 0 0 0 7 0 0 24 433 478 1302 1712 1771 2298 2319 2211 2028 1499 1410 1441 1068 476 192 33 1 3 171 20 1 2 0 1 7 7 1 1 0 0
125 0 0 0 0 0 0 0 0 0 0 0 0 0 41 191 259 181 555 669 918 1513 1511 1559 2281 2391 2305 1885 1430 1334 1358 496 180 11 0 0 0 141 137 3 2 0 1 5 3 1 1 2 0
12 0 0 0 0 0 0 0 0 0 0 0 1 15 112 249 330 398 362 1059 1289 1560 1468 1600 2297 2349 2153 1818 1513 959 556 260 17 0 0 0 0 265 360 5 0 0 0 2 0 0 1 0 0
1 0 0 0 0 0 0 0 0 0 0 0 0 227 155 34 427 402 1041 1345 1478 1477 1482 1789 2195 2202 1977 1484 1155 646 384 156 0 115 68 0 0 366 330 32 0 0 0 0 0 0 0 0 0
0 0 0 0 0 0 0 0 0 0 0 0 0 132 292 201 298 1129 1345 1434 1193 1397 1653 1752 2083 1968 1539 1223 934 522 67 7 32 279 324 99 53 455 214 0 0 0 0 0 0 0 0 0 0
97 0 0 0 0 0 0 0 0 0 0 0 121 265 285 221 649 941 1369 1241 913 1382 1784 1659 1785 1720 1365 1125 800 436 34 20 336 894 690 371 362 572 109 24 3 0 0 2 3 0 0 0 0
149 0 0 0 0 0 0 0 0 0 0 0 62 315 267 383 603 975 890 881 1104 1625 1670 1697 1540 1183 980 887 715 462 151 65 377 513 704 886 743 377 101 48 32 19 0 18 29 30 0 0 0
78 53 2 0 0 0 0 0 0 0 0 0 4 86 365 380 574 686 805 953 1346 1483 1385 1518 1484 1162 787 512 436 300 113 50 230 273 82 52 85 124 149 57 63 52 24 22 42 48 32 14 3
17 50 25 0 0 0 3 0 0 0 0 0 0 154 191 445 720 818 979 1097 1085 1172 1306 1155 1193 1186 881 580 313 164 56 24 35 81 60 56 88 82 51 19 26 45 40 33 50 54 30 2 0
182 77 1 0 0 7 13 0 0 0 0 0 0 0 105 508 611 552 597 563 581 680 796 1021 952 863 858 573 422 269 58 12 0 23 82 70 50 55 45 20 13 35 53 51 56 66 29 0 0
94 36 0 0 59 67 27 10 0 0 0 0 0 0 0 434 493 459 499 509 476 534 575 890 868 594 502 503 432 288 96 22 0 0 0 8 11 13 15 12 12 25 20 40 41 48 39 3 0
75 41 13 100 73 5 3 6 0 0 0 0 0 0 0 232 524 386 546 565 511 398 633 821 707 617 378 297 339 263 104 32 0 0 0 0 0 0 0 0 0 0 13 29 28 25 26 4 0
15 59 30 101 7 0 5 0 0 0 0 0 0 0 6 48 161 257 561 535 481 614 630 597 509 529 367 285 209 155 93 41 5 0 0 0 0 0 0 0 0 0 0 0 2 2 2 1 0
3 14 60 100 60 22 13 0 0 0 0 0 0 0 0 20 144 99 235 500 440 607 528 370 344 395 321 305 219 188 103 53 0 0 0 0 0 0 0 0 0 0 0 0 0 0 0 0 0
11 50 60 94 81 49 0 0 0 0 0 0 0 0 0 0 0 99 184 290 355 429 481 346 272 189 196 244 215 173 160 55 56 3 0 0 0 0 0 0 0 0 0 0 0 0 0 0 0
27 28 31 73 89 1 5 0 0 0 0 0 0 0 0 0 0 0 6 165 245 315 377 363 280 184 135 108 126 118 71 82 73 58 37 19 0 0 0 0 0 0 0 0 0 0 0 0 0
48 0 0 21 33 1 0 1 0 0 0 0 0 0 0 0 0 0 0 0 87 189 221 268 335 358 250 102 48 50 35 21 22 11 30 32 5 0 0 0 0 0 0 0 0 0 0 0 0
0 0 0 0 17 13 0 0 0 0 0 0 0 0 0 0 0 0 0 0 0 0 6 113 197 251 275 181 37 13 0 0 0 0 0 0 0 0 0 0 0 0 0 0 0 0 0 0 0
0 0 0 0 0 2 2 0 0 0 0 0 0 0 0 0 0 0 0 0 0 0 0 0 4 0 30 68 109 112 148 47 0 0 0 0 0 0 0 0 0 0 0 0 0 0 0 0 0
0 0 0 0 0 0 2 0 0 0 0 0 0 0 0 0 0 0 0 0 0 0 0 0 0 0 0 0 0 13 16 0 0 0 0 0 0 0 0 0 0 0 0 0 0 0 0 0 0
0 0 0 0 0 0 0 0 0 0 0 0 0 0 0 0 0 0 0 0 0 0 0 0 0 0 0 0 0 0 0 0 0 0 0 0 0 0 0 2 3 3 1 1 0 0 1 1 0
0 0 0 0 0 0 0 0 0 0 0 0 0 0 0 0 0 0 0 0 0 0 0 0 0 0 0 0 0 0 0 0 0 0 0 0 0 0 0 0 0 0 2 5 2 0 0 1 2
0 0 0 0 0 0 0 0 0 0 0 0 0 0 0 0 0 0 0 0 0 0 0 0 0 0 0 0 0 0 0 0 0 0 0 0 0 0 0 0 0 0 0 1 1 7 1 1 2
0 0 0 0 0 0 0 0 0 0 0 0 0 0 0 0 0 0 0 0 0 0 0 0 0 0 0 0 0 0 0 0 0 0 0 0 0 0 0 0 0 0 0 0 1 1 7 2 1
0 0 0 4 0 0 0 0 0 0 0 0 0 0 0 0 0 0 0 0 0 0 0 0 0 0 0 0 0 0 0 0 0 0 0 0 0 0 0 0 0 0 0 0 2 3 5 2 1
0 0 0 0 0 0 0 0 0 0 0 0 0 0 0 0 0 0 0 0 0 0 0 0 0 0 0 0 0 0 0 0 0 0 0 0 0 0 0 0 0 0 0 0 0 1 1 1 1
1 0 0 0 0 0 0 0 0 0 0 0 0 0 0 0 0 0 0 0 0 0 0 0 0 0 0 0 0 0 0 0 0 0 0 0 0 0 0 0 0 0 0 0 0 0 1 0 0
0 0 0 0 0 0 0 0 0 0 0 0 0 0 0 0 0 0 0 0 0 0 0 0 0 0 0 0 0 0 0 0 0 0 0 0 0 0 0 0 0 0 0 0 0 0 0 0 1
0 0 0 0 0 0 0 0 0 0 0 0 0 0 0 0 0 0 0 0 0 0 0 0 0 0 0 0 0 0 0 0 0 0 0 0 0 0 0 0 0 0 0 0 0 0 0 0 0
0 0 0 0 0 0 0 0 0 0 0 0 0 0 0 0 0 0 0 0 0 0 0 0 0 0 0 0 0 0 0 0 0 0 0 0 0 0 0 0 0 0 0 0 0 0 0 0 0

GFSSGP_con_sbcape_072.txt.gz
CAPE
416 37 0 0 0 0 0 0 0 0 0 0 0 0 76 72 0 94 486 685 601 800 1318 1805 2232 2340 2268 1900 1318 1180 1135 760 269 126 43 51 271 73 35 4 0 3 12 12 8 7 5 1 0
373 0 0 0 0 0 0 0 0 0 0 0 0 0 15 252 569 706 602 760 728 1118 1560 1510 2323 2414 2164 1572 1280 1200 778 354 168 72 0 28 262 175 87 4 0 2 5 7 8 6 2 1 0
224 0 0 0 0 0 0 0 0 0 0 0 4 163 252 581 776 603 721 795 918 1343 1198 1766 2407 2352 2108 1582 1453 1511 552 166 8 0 0 0 232 436 133 0 0 1 6 2 5 4 0 0 0
126 0 0 0 0 0 0 0 0 0 0 0 2 296 559 566 771 771 1042 904 1077 1223 1045 1736 2235 2304 2015 1762 1278 700 452 162 8 98 1 0 246 567 101 0 0 0 1 0 1 0 0 0 1
120 3 0 0 0 0 0 0 0 0 0 0 6 279 657 849 768 1176 1088 971 1190 991 1305 1594 2250 2200 1681 1400 1038 547 240 87 231 291 94 97 283 551 67 0 0 0 0 0 0 1 0 0 0
191 27 0 0 0 0 0 0 0 0 0 0 90 424 708 863 1138 1241 1086 1111 1037 1104 1228 1428 1737 1651 1382 1142 772 350 78 82 491 721 311 249 793 363 63 9 0 0 0 0 0 0 0 0 0
202 68 0 3 0 0 0 0 0 0 0 0 337 383 868 750 1093 1206 1104 1155 1026 1280 1102 1598 1420 1085 977 831 627 424 239 385 532 1126 860 852 741 357 96 48 35 11 28 40 30 14 12 4 0
169 117 81 5 0 0 0 0 0 0 0 2 315 380 873 1090 996 1144 1055 889 1259 1199 1038 1640 1343 1001 698 311 354 217 116 254 427 288 152 162 115 125 145 79 66 35 26 47 47 32 20 9 0
114 222 131 24 0 1 3 13 0 0 0 0 0 137 251 609 919 1002 1187 1182 1100 1318 1260 1227 950 950 812 523 204 51 26 51 149 48 31 36 90 98 65 11 23 36 25 23 35 39 11 0 0
187 155 28 9 11 0 19 27 0 0 0 0 0 0 91 898 972 1159 1347 1291 1243 1325 1353 1327 1069 1020 839 559 355 336 38 1 1 29 59 49 76 79 68 26 5 24 32 25 32 46 18 0 0
103 16 67 94 18 99 63 55 8 0 0 0 0 0 0 752 934 757 1087 781 944 1013 1068 1295 1195 1141 953 694 641 502 300 108 44 30 33 0 0 15 21 30 44 57 6 48 22 22 7 0 0
151 60 124 49 58 34 60 52 29 11 0 0 0 0 0 451 750 588 852 1186 1039 748 672 1426 1251 1121 978 871 757 589 419 277 138 61 39 23 0 0 0 0 0 0 0 11 16 0 0 0 0
109 92 116 96 119 81 58 44 57 14 0 0 0 0 115 79 387 406 530 952 1204 1155 1222 1500 1332 1227 1016 1014 872 769 583 373 259 142 47 20 0 0 0 0 0 0 0 0 0 0 0 0 0
40 92 159 130 148 86 28 15 3 2 0 0 0 0 0 26 533 455 306 517 671 1148 1345 1334 1276 1066 1073 1082 937 844 672 483 387 262 150 41 19 2 0 0 0 0 0 0 0 0 0 0 0
88 137 182 137 170 100 64 62 15 13 0 0 0 0 0 0 0 302 632 844 1003 1331 1330 1316 1045 904 899 1078 1123 904 746 533 511 435 277 136 58 50 0 0 0 0 0 0 0 0 0 0 0
127 124 125 202 164 78 73 7 0 9 0 0 0 0 0 0 0 0 15 495 886 1125 1348 1119 778 794 910 965 931 822 699 645 646 614 535 358 188 75 53 36 37 10 0 0 0 0 0 2 7
117 48 49 76 172 77 22 9 14 5 0 0 0 0 0 0 0 0 0 0 496 949 1074 916 899 829 786 760 731 737 699 642 651 643 618 551 440 211 94 54 56 55 34 11 2 0 16 36 54
6 33 26 40 109 58 46 47 0 0 0 0 0 0 0 0 0 0 0 0 0 180 629 753 868 921 1000 943 824 730 721 714 669 675 615 538 502 303 163 117 93 74 65 78 117 64 117 43 49
7 25 19 26 96 75 34 6 5 0 0 0 0 0 0 0 0 0 0 0 0 0 0 201 690 863 955 1005 1005 976 944 804 676 536 428 286 202 100 49 109 183 199 167 178 174 104 42 54 41
35 29 51 71 178 171 52 45 4 1 0 0 0 0 0 0 0 0 0 0 0 0 0 0 4 449 455 803 836 808 832 806 758 565 446 335 333 307 328 331 343 330 255 228 175 63 48 26 82
27 20 25 7 126 50 61 19 2 0 0 0 0 0 0 0 0 0 0 0 0 0 0 0 0 0 0 0 0 0 0 0 0 64 102 0 0 0 0 1 3 5 7 3 25 22 7 7 18
17 16 9 46 79 2 4 0 0 0 0 0 0 0 0 0 0 0 0 0 0 0 0 0 0 0 0 0 0 0 0 0 0 0 0 0 0 0 0 0 0 0 1 6 9 12 20 11 20
8 0 7 4 1 1 0 2 0 0 0 0 0 0 0 0 0 0 0 0 0 0 0 0 0 0 0 0 0 0 0 0 0 0 0 0 0 0 0 0 0 0 0 0 0 2 5 14 18
0 0 3 6 22 10 0 2 0 0 0 0 0 0 0 0 0 0 0 0 0 0 0 0 0 0 0 0 0 0 0 0 0 0 0 0 0 0 0 0 0 0 0 0 1 1 1 7 8
11 18 33 22 37 8 0 3 0 0 0 0 0 0 0 0 0 0 0 0 0 0 0 0 0 0 0 0 0 0 0 0 0 0 0 0 0 0 0 0 0 0 0 0 0 2 5 12 21
41 26 12 3 6 6 0 0 0 0 0 0 0 0 0 0 0 0 0 0 0 0 0 0 0 0 0 0 0 0 0 0 0 0 0 0 0 0 0 0 0 0 0 0 0 7 15 9 3
13 14 0 0 0 0 0 0 0 0 0 0 0 0 0 0 0 0 0 0 0 0 0 0 0 0 0 0 0 0 0 0 0 0 0 0 0 0 0 0 0 0 0 0 0 2 7 2 1
20 0 7 3 0 0 0 0 0 0 0 0 0 0 0 0 0 0 0 0 0 0 0 0 0 0 0 0 0 0 0 0 0 0 0 0 0 0 0 0 0 0 0 0 0 0 0 2 2
9 6 0 1 0 1 0 0 0 0 0 0 0 0 0 0 0 0 0 0 0 0 0 0 0 0 0 0 0 0 0 0 0 0 0 0 0 0 0 0 0 0 0 0 0 0 0 0 0
4 22 12 22 1 0 0 0 0 0 0 0 0 0 0 0 0 0 0 0 0 0 0 0 0 0 0 0 0 0 0 0 0 0 0 0 0 0 0 0 0 0 0 0 0 0 0 0 1

GFSSGP_con_sbcape_075.txt.gz
CAPE
606 218 2 6 0 0 0 0 0 0 0 0 0 0 42 224 18 788 380 486 741 1109 1337 1530 2293 2373 2123 1554 1146 837 548 400 218 105 118 246 102 60 1 0 5 11 13 6 9 12 6 2 1
646 60 0 0 0 0 0 0 0 0 0 0 0 0 22 481 733 656 583 549 620 1157 1202 1353 2346 2251 2096 1423 1105 884 474 303 175 49 97 407 183 100 3 0 4 10 9 5 11 8 4 1 0
424 58 0 0 0 0 0 0 0 0 0 0 0 18 131 972 777 426 604 514 906 1297 1166 1691 2295 2319 1975 1458 1421 944 401 115 19 23 35 247 408 110 1 0 4 7 6 12 8 3 1 1 1
331 58 32 0 0 0 0 0 0 0 0 0 0 7 646 882 709 645 602 501 1073 1194 1432 1922 2320 2285 1998 1850 1711 771 322 85 10 30 39 138 611 151 0 0 0 0 1 5 4 1 1 54 53
432 104 1 0 0 0 0 0 0 0 0 0 16 271 821 1141 935 1015 665 677 1044 882 1804 1732 2265 2167 1996 1490 1215 735 380 136 193 99 100 186 708 103 0 0 0 0 0 0 0 0 0 0 33
329 133 37 13 0 2 0 0 0 0 0 0 15 320 1011 1049 1147 910 758 819 869 1036 1114 1546 1745 1736 1515 1153 778 395 118 152 516 275 228 282 590 121 43 0 0 0 0 0 0 0 0 0 18
407 183 28 33 15 0 0 0 0 0 0 108 165 188 1144 1075 1172 1065 798 899 792 1271 1213 1271 1258 1024 963 796 588 399 370 627 701 903 779 1067 567 310 88 40 7 15 24 18 6 12 11 0 0
323 261 129 99 38 1 0 0 0 0 0 136 279 280 899 1151 1204 1482 952 797 831 1188 1179 1392 1118 808 433 153 241 207 380 541 863 855 626 233 113 127 142 86 56 20 32 35 34 18 13 0 0
126 251 227 70 49 5 0 0 0 0 0 0 34 316 294 1007 1119 1075 1120 914 852 955 1287 1465 961 641 341 327 42 4 64 238 84 27 79 49 80 77 35 20 48 39 21 25 33 26 7 0 0
141 189 87 106 38 21 0 0 0 12 3 2 3 60 778 1028 1192 984 1010 1138 1077 1105 1098 998 799 620 595 322 109 64 0 70 24 16 18 52 60 85 60 29 11 30 26 17 29 34 14 0 0
136 13 147 84 51 36 7 0 0 9 43 0 0 29 493 1206 1085 1277 1593 1348 1254 1036 1190 979 868 739 564 409 345 311 82 0 0 0 0 0 0 18 5 46 31 36 4 35 13 14 4 0 0
67 58 21 35 101 99 16 0 13 20 40 0 0 11 180 831 1121 1064 1347 1218 1166 1203 1251 1064 852 972 709 509 518 331 244 173 79 48 27 6 0 0 0 0 0 0 0 0 16 0 0 0 0
146 112 87 55 27 31 26 10 19 5 2 0 0 7 264 747 1019 601 544 1027 988 991 833 1280 926 906 765 699 484 387 311 265 193 122 46 19 4 0 0 0 0 0 0 0 0 0 0 0 0
21 38 49 133 22 78 86 39 0 2 15 0 0 0 36 541 748 514 503 729 1111 1033 1090 1096 1050 1161 731 764 626 563 440 313 279 272 193 45 27 5 0 0 0 0 0 0 0 0 0 0 0
85 108 112 118 10 81 162 90 0 0 1 0 0 0 0 0 33 884 924 869 1057 1228 1076 1168 1013 872 716 859 795 604 476 372 405 395 287 168 107 111 0 0 8 0 0 0 0 0 0 0 0
118 153 100 68 49 125 167 15 1 0 33 12 1 0 0 0 0 0 357 808 1117 1252 1084 1094 975 854 624 655 870 727 643 551 564 554 494 344 205 148 153 104 97 108 8 3 7 7 0 1 20
97 52 65 90 135 93 114 2 50 45 12 2 3 0 0 0 0 0 0 62 853 1205 1243 1306 1172 970 872 765 815 748 701 715 684 699 670 653 556 398 260 156 112 114 181 160 115 101 138 187 104
26 36 21 42 89 76 76 74 41 16 3 5 0 2 0 0 0 0 0 0 7 845 1202 1394 1309 1127 1004 968 888 841 857 931 834 815 791 779 753 652 509 351 254 192 256 222 275 293 296 257 235
0 0 49 39 83 103 76 97 53 12 21 8 8 2 0 0 0 0 0 0 0 0 541 1147 1183 1139 1143 1161 1225 1198 1054 1036 1034 954 865 762 709 640 581 425 368 434 425 453 439 361 284 325 308
49 38 60 55 47 95 63 54 64 26 10 4 0 0 0 2 0 0 0 0 0 0 0 195 702 966 1088 1161 1245 1267 1323 1149 1011 1048 843 761 623 522 412 345 392 412 440 339 282 235 236 129 172
22 46 74 63 62 73 67 42 11 1 1 0 0 0 0 0 0 0 0 0 0 0 0 0 0 235 425 772 773 199 51 53 302 679 499 0 0 0 0 0 0 0 0 26 18 3 20 40 33
34 28 51 53 93 10 33 0 0 0 0 0 0 0 0 0 4 4 1 0 0 0 0 0 0 0 0 0 1 39 173 203 25 9 0 0 0 0 0 0 0 0 0 6 6 10 16 45 26
9 43 53 51 103 55 27 10 0 0 0 0 0 0 0 0 0 0 0 0 0 0 0 0 0 0 0 0 0 0 0 0 0 0 0 0 0 0 0 0 0 0 0 0 0 0 2 6 6
33 65 41 51 38 21 0 1 0 0 0 0 0 0 0 0 0 0 0 0 0 0 0 0 0 0 0 0 0 0 0 0 0 0 0 0 0 0 0 0 0 0 0 0 0 0 1 2 2
50 62 48 29 26 12 0 5 0 0 0 0 0 0 0 0 0 0 0 0 0 0 0 0 0 0 0 0 0 0 0 0 0 0 0 0 0 0 0 0 0 0 0 0 0 0 4 6 17
34 54 23 1 4 2 0 0 0 0 0 0 0 0 0 0 0 0 0 0 0 0 0 0 0 0 0 0 0 0 0 0 0 0 0 0 0 0 0 0 0 0 0 0 0 0 5 11 1
40 40 0 1 0 10 8 0 0 0 0 0 0 0 0 0 0 0 0 0 0 0 0 0 0 0 0 0 0 0 0 0 0 0 0 0 0 0 0 0 0 0 0 0 0 0 2 4 0
36 24 6 4 0 0 0 0 0 0 0 0 0 0 0 0 0 0 0 0 0 0 0 0 0 0 0 0 0 0 0 0 0 0 0 0 0 0 0 0 0 0 0 0 0 0 2 2 1
19 1 20 12 5 12 1 2 0 0 0 0 0 0 0 0 0 0 0 0 0 0 0 0 0 0 0 0 0 0 0 0 0 0 0 0 0 0 0 0 0 0 0 0 0 0 0 1 0
11 27 25 24 7 0 0 0 0 0 0 0 0 0 0 0 0 0 0 0 0 0 0 0 0 0 0 0 0 0 0 0 0 0 0 0 0 0 0 0 0 0 0 0 0 0 0 0 0

GFSSGP_con_sbcape_078.txt.gz
CAPE
497 494 354 45 43 0 0 0 0 0 27 0 0 0 0 430 239 328 93 620 1399 1068 1076 1670 2143 2123 1834 1503 884 988 815 631 471 314 108 67 13 2 3 11 15 15 44 14 11 9 3 1 2
63 374 16 39 0 0 0 0 0 0 0 0 0 0 1 769 524 185 389 800 1217 1153 812 1124 2261 2163 1953 1305 942 929 386 224 203 311 435 228 15 0 3 7 15 22 11 4 12 6 3 1 0
23 394 28 0 0 0 0 0 0 0 0 0 0 0 452 828 283 338 423 723 1065 1105 957 1609 2196 2157 1873 1438 1260 538 241 165 88 259 488 343 25 0 0 5 11 8 8 10 7 5 8 5 0
109 380 81 1 0 0 0 0 0 0 0 0 0 197 646 757 328 488 310 829 944 793 1392 1904 2121 2081 1845 1724 1388 511 101 4 50 158 314 651 84 0 0 2 2 5 12 4 1 0 2 0 0
162 368 4 0 0 0 1 0 0 0 0 0 0 124 854 883 874 392 309 935 843 1512 1558 1858 2125 2054 1923 1771 1223 803 192 62 61 97 182 805 98 0 0 0 1 0 1 1 0 0 3 36 35
342 338 1 0 0 0 45 0 0 0 0 3 25 252 998 1046 1125 499 437 852 1330 1552 1341 1579 1788 1767 1454 1313 1080 791 419 400 251 509 568 702 135 3 0 0 0 0 0 0 0 0 0 9 34
298 94 4 0 0 14 29 0 0 0 0 35 9 94 795 993 1115 1066 505 674 1128 1095 1199 1262 1163 1011 884 703 472 416 566 799 682 700 728 884 325 158 42 13 26 29 16 8 10 1 0 0 0
309 244 14 6 14 41 4 0 0 0 5 70 52 180 1024 973 1412 1360 991 843 1043 1158 1135 1018 702 465 133 50 173 372 513 587 950 706 678 193 103 90 136 77 63 45 43 40 25 17 14 0 0
205 165 66 9 118 10 0 0 0 0 37 0 102 146 1006 1350 1157 1230 1001 634 963 1094 1154 865 680 377 114 0 2 118 180 251 341 297 178 32 6 26 14 36 48 57 51 39 37 22 7 0 0
135 144 51 52 4 0 0 0 0 1 5 30 81 695 853 1253 1061 1053 1011 762 962 1156 1327 1060 604 281 158 41 0 0 86 7 30 66 14 4 3 9 15 0 10 39 30 32 38 43 27 0 0
121 37 17 139 82 21 0 1 0 2 1 0 0 469 1159 1308 1149 869 1009 850 994 1018 1187 889 653 380 371 99 9 0 0 4 0 0 0 0 0 0 0 0 0 0 1 0 15 14 8 0 0
100 14 2 108 64 4 14 2 8 0 0 0 0 368 728 1181 1295 1248 1217 1194 903 1026 1035 816 759 563 437 275 182 75 2 0 0 0 0 0 0 0 0 0 0 0 0 0 0 0 0 0 0
54 75 64 43 17 10 26 17 7 2 0 0 0 334 742 835 1104 781 685 1120 977 1036 1022 851 847 747 517 450 303 178 84 62 42 16 3 0 0 0 0 0 0 0 0 0 0 0 0 0 0
69 43 74 13 1 0 0 14 1 0 0 0 0 23 430 811 926 372 339 495 951 910 815 778 740 823 589 536 407 332 199 124 70 64 34 18 0 0 0 0 0 0 0 0 0 0 0 0 0
64 99 81 31 46 0 8 56 0 1 0 0 0 0 5 3 77 557 584 459 1055 933 890 764 778 771 691 657 564 429 353 179 169 163 81 24 18 12 0 0 0 0 0 0 0 0 0 0 0
97 55 14 14 48 39 28 0 25 14 0 0 0 0 0 0 0 113 716 620 759 937 883 907 955 691 638 684 630 569 381 238 287 251 164 109 58 74 40 0 0 0 0 0 0 0 0 0 0
49 15 18 52 2 0 0 15 45 38 0 0 0 0 0 0 0 0 6 203 845 950 769 774 760 661 569 612 629 615 428 375 361 395 369 265 218 118 89 55 34 32 42 10 0 0 0 0 2
5 0 22 10 15 1 7 30 69 7 1 0 0 0 0 0 0 0 0 0 30 658 876 986 854 760 617 606 591 522 504 548 561 560 513 577 496 442 266 222 147 52 23 22 18 36 57 6 24
0 0 0 0 86 69 72 52 41 24 0 0 0 0 0 0 0 0 0 0 0 0 570 1106 1080 954 786 754 551 624 592 654 741 731 750 651 569 469 454 383 270 229 176 175 180 92 55 20 10
0 0 2 31 93 50 37 34 38 4 2 0 0 0 0 0 0 0 0 0 0 0 72 413 969 886 718 879 691 695 689 717 741 795 665 195 144 166 237 190 158 91 111 150 140 92 53 62 5
0 0 4 0 21 23 25 26 1 0 0 0 0 0 0 0 0 0 0 0 0 0 0 36 113 533 824 741 251 91 2 14 187 572 268 0 0 0 0 0 0 0 0 0 2 3 4 14 11
5 5 32 9 30 43 50 0 0 0 0 0 0 0 0 0 0 0 0 0 0 0 0 0 0 0 0 0 96 64 66 143 18 56 0 0 0 0 0 0 0 0 0 0 0 4 5 7 8
17 0 10 54 57 24 27 0 0 0 0 0 0 0 0 0 0 0 0 0 0 0 0 0 0 0 0 0 0 0 0 0 0 0 0 0 0 0 0 0 0 0 0 0 0 0 0 0 0
1 24 4 26 29 2 0 0 0 0 0 0 0 0 0 0 0 0 0 0 0 0 0 0 0 0 0 0 0 0 0 0 0 0 0 0 0 0 0 0 0 0 0 0 0 0 0 0 0
19 8 2 4 1 0 0 0 0 0 0 0 0 0 0 0 0 0 0 0 0 0 0 0 0 0 0 0 0 0 0 0 0 0 0 0 0 0 0 0 0 0 0 0 0 0 0 0 3
9 0 2 0 0 0 0 0 0 0 0 0 0 0 0 0 0 0 0 0 0 0 0 0 0 0 0 0 0 0 0 0 0 0 0 0 0 0 0 0 0 0 0 0 0 0 0 2 0
20 18 0 0 0 0 0 0 0 0 0 0 0 0 0 0 0 0 0 0 0 0 0 0 0 0 0 0 0 0 0 0 0 0 0 0 0 0 0 0 0 0 0 0 0 0 0 0 5
13 3 0 0 0 0 0 0 0 0 0 0 0 0 0 0 0 0 0 0 0 0 0 0 0 0 0 0 0 0 0 0 0 0 0 0 0 0 0 0 0 0 0 0 0 0 0 0 0
0 4 6 4 0 12 0 0 0 0 0 0 0 0 0 0 0 0 0 0 0 0 0 0 0 0 0 0 0 0 0 0 0 0 0 0 0 0 0 0 0 0 0 0 0 0 0 0 0
6 15 3 3 4 0 0 0 0 0 0 0 0 0 0 0 0 0 0 0 0 0 0 0 0 0 0 0 0 0 0 0 0 0 0 0 0 0 0 0 0 0 0 0 0 0 0 0 0

GFSSGP_con_sbcape_081.txt.gz
CAPE
537 29 248 20 0 0 0 0 0 1 0 0 0 0 108 278 207 12 336 1061 846 1322 1494 1693 2023 1829 1631 1057 748 853 824 693 551 369 15 2 0 8 13 52 130 139 14 6 10 4 4 0 0
262 27 10 15 0 0 0 0 0 0 0 0 0 1 265 424 120 75 1083 1016 798 1029 1275 1684 2017 1836 1638 920 584 570 507 361 844 677 86 1 2 6 10 24 36 19 11 10 7 2 0 0 0
32 29 3 1 0 0 0 0 0 0 0 0 0 145 793 505 109 118 1083 969 832 722 1258 1733 1949 1803 1522 1014 682 371 178 173 555 851 359 1 0 6 10 17 14 9 9 7 7 4 1 0 0
31 29 31 3 0 0 0 0 0 0 0 0 0 137 590 748 618 335 1005 1000 616 622 1383 1829 1930 1885 1600 1259 831 254 113 63 309 779 316 2 0 4 10 13 14 8 9 5 7 5 1 0 0
46 40 35 0 0 0 0 0 0 0 0 0 38 299 711 798 597 250 907 807 893 1252 1500 1662 1965 1848 1723 1341 899 448 34 55 168 638 375 28 0 0 2 2 3 4 3 2 1 5 24 24 24
133 91 0 0 0 0 0 0 0 0 0 0 149 600 598 689 531 506 707 1110 1257 1361 1522 1563 1615 1710 1588 1237 962 667 383 174 337 790 852 91 0 0 0 0 0 1 1 0 6 5 30 40 27
139 63 0 0 0 0 4 0 0 0 0 26 23 168 531 370 431 980 827 1408 1283 1373 1334 1285 1098 949 869 835 722 678 688 532 715 1025 837 379 124 28 0 0 0 0 17 18 16 9 4 0 0
204 110 16 0 0 4 0 0 0 0 37 60 24 155 3 376 1064 925 1077 1011 1161 1165 944 747 503 278 33 25 235 501 521 592 616 587 431 110 65 62 75 46 57 34 26 25 20 12 0 0 0
203 80 21 1 8 36 0 0 0 0 0 58 85 301 525 773 784 599 644 781 984 984 749 455 176 8 0 0 152 162 289 503 352 359 93 39 0 0 0 0 30 55 47 34 29 17 0 0 0
199 76 11 28 17 0 0 0 0 0 9 398 587 676 1048 797 399 382 441 599 929 885 655 456 181 21 0 0 2 10 65 97 106 165 4 0 0 0 0 0 9 39 33 35 34 28 16 0 0
128 69 40 156 275 43 4 20 0 0 0 0 642 888 946 884 317 219 347 288 742 1028 943 514 263 98 5 0 0 0 0 1 12 67 2 0 0 0 0 0 0 0 0 0 6 4 0 0 0
132 81 22 130 57 48 21 0 1 0 0 0 485 1052 1073 955 697 250 461 376 463 1018 886 733 329 269 87 0 0 0 0 0 0 0 0 0 0 0 0 0 0 0 0 0 0 0 0 0 0
9 72 41 14 36 11 4 0 6 0 0 0 590 683 970 892 914 752 367 699 608 725 907 761 532 474 303 143 21 0 0 0 0 0 0 0 0 0 0 0 0 0 0 0 0 0 0 0 0
22 16 47 29 25 1 3 11 0 0 0 0 575 655 756 1029 682 410 403 435 840 820 898 716 734 568 448 366 126 219 12 0 0 0 0 0 0 0 0 0 0 0 0 0 0 0 0 0 0
69 39 0 9 1 8 0 34 0 0 0 0 35 414 510 603 638 433 214 304 666 824 652 648 592 715 495 471 367 240 130 31 0 8 9 4 0 0 0 0 0 0 0 0 0 0 0 0 0
98 76 37 14 59 9 5 4 0 0 0 0 0 0 0 0 249 175 352 361 744 714 672 682 965 700 613 579 525 367 392 82 80 43 17 9 7 7 0 0 0 0 0 0 0 0 0 0 0
41 1 20 7 24 12 24 1 0 0 0 0 0 0 0 0 0 22 102 358 553 735 592 559 654 608 650 539 604 503 437 116 116 118 108 35 22 21 7 0 0 0 0 0 0 0 0 0 1
30 26 23 26 0 19 7 0 0 0 0 0 0 0 0 0 0 0 0 0 355 506 580 597 585 706 710 594 432 492 395 312 239 272 232 147 111 61 27 13 0 0 0 0 0 0 0 4 5
2 5 21 30 30 0 0 0 0 0 0 0 0 0 0 0 0 0 0 0 0 119 483 649 658 450 385 455 473 356 450 448 419 330 495 416 355 364 284 262 160 122 108 51 24 9 7 4 1
0 5 2 30 63 23 0 0 0 0 0 0 0 0 0 0 0 0 0 0 0 1 173 464 702 415 465 387 414 360 448 402 379 315 13 47 46 78 89 128 148 86 70 42 7 20 9 10 16
1 0 1 0 32 2 23 4 0 0 0 0 0 0 0 0 0 0 0 0 0 0 24 268 415 612 585 498 215 52 49 55 270 182 0 0 0 0 0 0 0 0 0 0 0 0 9 14 13
3 0 0 12 17 19 8 0 0 0 0 0 0 0 0 0 0 0 0 0 0 0 0 19 80 153 253 285 157 146 158 175 35 84 0 0 0 0 0 0 0 0 0 0 0 0 0 0 0
3 0 0 1 18 3 19 0 0 0 0 0 0 0 0 0 0 0 0 0 0 0 0 0 0 0 0 0 61 58 0 0 0 0 0 0 0 0 0 0 0 0 0 0 0 0 0 0 0
0 2 16 4 0 5 0 0 0 0 0 0 0 0 0 0 0 0 0 0 0 0 0 0 0 0 0 0 0 0 0 0 0 0 0 0 0 0 0 0 0 0 0 0 0 0 0 0 0
4 0 1 0 0 0 0 0 0 0 0 0 0 0 0 0 0 0 0 0 0 0 0 0 0 0 0 0 0 0 0 0 0 0 0 0 0 0 0 0 0 0 0 0 0 0 0 0 0
4 0 0 0 0 0 0 0 0 0 0 0 0 0 0 0 0 0 0 0 0 0 0 0 0 0 0 0 0 0 0 0 0 0 0 0 0 0 0 0 0 0 0 0 0 0 0 0 0
0 0 0 0 0 0 0 0 0 0 0 0 0 0 0 0 0 0 0 0 0 0 0 0 0 0 0 0 0 0 0 0 0 0 0 0 0 0 0 0 0 0 0 0 0 0 0 0 0
0 0 0 0 0 0 0 0 0 0 0 0 0 0 0 0 0 0 0 0 0 0 0 0 0 0 0 0 0 0 0 0 0 0 0 0 0 0 0 0 0 0 0 0 0 0 0 0 0
0 3 0 0 0 0 0 0 0 0 0 0 0 0 0 0 0 0 0 0 0 0 0 0 0 0 0 0 0 0 0 0 0 0 0 0 0 0 0 0 0 0 0 0 0 0 0 0 0
0 0 1 0 0 0 0 0 0 0 0 0 0 0 0 0 0 0 0 0 0 0 0 0 0 0 0 0 0 0 0 0 0 0 0 0 0 0 0 0 0 0 0 0 0 0 0 0 0

GFSSGP_con_sbcape_084.txt.gz
CAPE
386 65 13 10 1 0 0 0 0 0 0 0 0 0 298 44 8 0 313 625 966 1158 1306 1493 1839 1554 1265 881 608 708 562 502 313 2 1 39 141 184 313 199 43 9 17 6 6 4 4 1 3
294 64 29 0 13 0 0 0 0 0 0 0 0 48 435 82 39 708 835 979 1096 1081 1258 1385 1669 1498 1257 738 562 758 860 556 389 1 0 5 8 34 35 11 8 10 8 3 2 1 0 0 62
96 52 13 16 0 0 0 0 0 0 0 0 0 435 504 597 342 413 796 1064 1061 1146 1321 1513 1552 1454 1195 742 613 600 710 670 506 5 1 2 5 12 13 9 9 8 6 3 1 0 0 0 44
112 34 45 0 0 0 0 0 0 1 0 0 11 112 363 701 658 660 735 695 747 1054 1323 1510 1436 1544 1186 888 726 434 572 578 379 5 0 3 6 14 6 10 10 6 7 6 1 0 0 24 92
107 10 42 8 0 0 0 0 0 1 0 0 0 97 221 353 832 946 655 367 668 1213 1395 1318 1439 1410 1019 699 673 529 435 770 565 50 0 3 7 8 34 10 4 4 4 4 16 33 40 42 28
210 75 16 0 0 0 0 0 0 0 0 24 70 42 228 420 329 673 639 626 1054 1276 1314 1321 1247 1361 1163 724 479 408 533 593 1051 423 0 0 3 6 7 12 5 4 4 20 48 42 30 18 5
187 91 5 0 0 0 0 0 0 0 0 0 249 100 305 61 117 522 422 1104 1260 1280 1154 1085 1153 1048 939 859 690 489 542 650 987 748 244 33 17 4 1 2 3 19 27 28 28 26 15 2 0
210 118 6 0 0 0 0 0 0 0 38 0 18 58 280 195 354 585 783 1020 1369 1344 941 643 450 372 240 300 429 521 475 607 810 597 193 45 0 21 84 64 46 30 25 32 23 16 4 0 0
41 126 19 1 0 0 0 0 0 0 2 87 93 71 213 257 159 443 595 809 1125 946 659 378 80 0 0 1 217 341 302 334 381 167 29 4 0 0 0 0 36 66 57 35 28 13 0 0 0
137 35 17 0 21 0 0 0 0 11 179 495 705 775 351 40 169 274 481 533 943 699 553 299 37 0 0 79 26 32 204 116 110 67 0 0 0 0 0 0 0 36 48 40 29 14 0 0 0
129 48 24 166 297 151 0 0 0 0 0 76 688 690 673 245 159 158 131 254 612 605 432 247 49 0 0 2 0 0 9 16 34 48 0 0 0 0 0 0 0 0 0 0 1 0 0 0 0
230 90 72 183 58 114 26 0 0 0 0 111 738 892 824 385 164 136 171 338 232 191 510 327 195 26 0 0 0 0 0 0 3 23 6 0 0 0 0 0 0 0 0 0 0 0 0 0 0
86 123 80 49 34 13 1 0 0 0 0 129 828 1065 996 760 513 156 185 84 7 0 14 563 335 154 1 0 0 0 0 0 0 0 0 0 0 0 0 0 0 0 0 0 0 0 0 0 0
7 28 18 48 15 0 0 3 0 0 0 552 624 764 849 758 734 303 68 106 5 0 59 477 336 270 85 24 0 0 0 0 0 0 0 0 0 0 0 0 0 0 0 0 0 0 0 0 0
38 55 17 2 31 10 0 3 0 0 0 385 422 508 610 728 520 509 362 240 271 147 268 723 536 383 284 164 59 90 0 0 0 0 0 0 0 0 0 0 0 0 0 0 0 0 0 0 0
34 84 19 35 91 23 0 1 0 0 0 0 8 249 295 264 399 220 225 285 394 514 708 706 993 499 341 359 199 230 101 62 30 20 2 0 0 0 0 0 0 0 0 0 0 0 0 0 0
34 9 6 31 6 43 0 0 0 0 0 0 0 0 0 0 0 58 263 341 365 465 399 643 660 616 526 471 490 281 321 129 118 84 39 16 6 1 0 0 0 0 0 0 0 0 0 0 0
6 6 8 28 14 5 50 26 0 0 0 0 0 0 0 0 0 9 188 262 319 321 476 632 629 529 566 556 366 419 351 145 153 120 84 80 32 16 16 9 0 0 0 0 0 0 0 1 5
4 0 0 0 11 3 5 10 0 0 0 0 0 0 0 0 0 0 0 0 159 230 322 391 609 570 544 405 264 341 387 249 276 314 311 199 141 99 40 80 53 43 44 53 20 28 92 43 12
7 5 5 22 28 12 2 0 0 0 0 0 0 0 0 0 0 0 0 0 4 182 257 262 400 446 416 440 288 256 195 156 166 146 145 158 288 221 144 124 101 119 145 111 72 72 42 9 6
1 0 0 3 26 29 5 1 1 0 0 0 0 0 0 0 0 0 0 0 0 0 138 349 381 423 412 366 213 72 117 134 152 25 0 0 0 0 0 4 8 6 9 10 0 0 3 3 0
18 0 0 31 30 40 23 1 0 0 0 0 0 0 0 0 0 0 0 0 0 0 1 240 402 463 450 393 270 240 314 317 155 119 0 0 0 0 0 0 0 0 0 0 0 0 0 0 0
16 6 2 35 1 0 7 0 0 0 0 0 0 0 0 0 0 0 0 0 0 0 0 3 165 248 166 302 293 145 86 16 0 0 0 0 0 0 0 0 0 0 0 0 0 0 0 0 0
4 4 0 1 4 0 0 0 0 0 0 0 0 0 0 0 0 0 0 0 0 0 0 0 0 10 13 19 123 86 24 0 0 0 0 0 0 0 0 0 0 0 0 0 0 0 0 0 0
0 0 0 0 0 0 0 0 0 0 0 0 0 0 0 0 0 0 0 0 0 0 0 0 0 0 0 0 0 0 0 0 0 0 0 0 0 0 0 0 0 0 0 0 0 0 0 0 0
10 0 0 0 0 0 0 0 0 0 0 0 0 0 0 0 0 0 0 0 0 0 0 0 0 0 0 0 0 0 0 0 0 0 0 0 0 0 0 0 0 0 0 0 0 0 0 0 0
0 0 0 0 0 0 0 0 0 0 0 0 0 0 0 0 0 0 0 0 0 0 0 0 0 0 0 0 0 0 0 0 0 0 0 0 0 0 0 0 0 0 0 0 0 0 0 0 0
0 0 0 0 0 0 0 0 0 0 0 0 0 0 0 0 0 0 0 0 0 0 0 0 0 0 0 0 0 0 0 0 0 0 0 0 0 0 0 0 0 0 0 0 0 0 0 0 0
0 0 0 0 0 0 0 0 0 0 0 0 0 0 0 0 0 0 0 0 0 0 0 0 0 0 0 0 0 0 0 0 0 0 0 0 0 0 0 0 0 0 0 0 0 0 0 0 0
0 0 0 0 0 0 0 0 0 0 0 0 0 0 0 0 0 0 0 0 0 0 0 0 0 0 0 0 0 0 0 0 0 0 0 0 0 0 0 0 0 0 0 0 0 0 0 0 0

GFSSGP_con_sbcape_087.txt.gz
CAPE
431 199 1 45 0 0 0 0 0 0 0 0 0 15 96 4 0 0 185 470 766 977 1099 1200 1586 1382 1152 602 459 431 521 308 97 392 616 726 830 795 389 78 17 11 5 8 12 10 42 19 73
248 155 86 41 0 0 0 0 0 0 0 0 0 58 223 75 292 727 875 838 918 976 1049 1006 1454 1147 887 493 334 243 177 7 1 109 441 379 500 338 56 7 8 6 6 10 46 71 127 158 193
359 174 187 27 1 0 0 0 0 0 0 0 0 214 346 524 467 609 865 1108 896 1022 1143 1074 1320 1138 997 473 464 173 345 2 1 6 146 182 89 34 6 9 3 4 2 3 1 1 84 148 61
316 252 176 4 0 0 0 0 0 0 0 0 0 4 297 441 424 619 1209 1030 859 952 1045 1222 1161 1176 1161 965 824 621 484 40 1 4 7 17 13 6 5 6 7 5 26 2 35 60 71 151 40
238 174 182 54 0 0 0 0 0 0 0 1 1 3 237 324 593 911 962 838 881 1091 1077 970 1275 1078 694 620 639 998 749 171 3 4 10 9 13 10 10 11 8 6 4 11 38 64 104 72 35
274 229 150 34 0 0 0 0 0 0 0 0 2 38 242 199 675 683 599 864 957 968 1039 932 945 906 831 587 505 748 1143 582 7 2 9 11 21 9 9 8 5 4 32 42 34 51 57 31 14
321 177 140 0 0 0 0 0 0 0 0 3 37 21 226 195 63 613 702 929 1075 1024 1019 828 749 722 674 586 559 634 869 1042 476 32 8 17 54 67 10 8 22 37 40 41 44 40 23 5 0
157 295 25 0 0 0 0 0 0 0 2 103 118 73 26 5 76 370 806 1054 1092 888 760 710 561 630 481 434 392 439 597 759 660 191 26 0 0 7 67 61 85 45 35 31 25 14 0 0 0
302 163 28 2 0 0 0 4 0 15 66 162 173 98 100 140 97 419 694 851 939 878 656 340 196 150 81 108 315 297 395 500 499 87 0 0 0 0 0 0 18 53 30 14 11 1 0 0 0
198 11 3 2 0 0 0 1 6 187 442 561 857 420 207 220 87 642 657 897 683 498 671 286 86 22 16 169 132 83 159 167 234 14 0 0 0 0 0 0 6 50 43 25 9 0 0 0 0
58 35 0 22 277 179 10 0 0 77 119 338 545 559 258 308 280 632 560 657 507 497 551 248 80 5 16 131 27 34 68 56 98 12 0 0 0 0 0 0 0 0 0 0 0 0 0 0 0
37 31 0 153 106 106 51 0 0 0 0 14 746 529 277 200 228 165 160 370 319 52 4 56 99 41 0 62 34 36 45 23 56 31 7 0 0 0 0 0 0 0 0 0 0 0 0 0 0
48 0 30 255 95 9 23 0 0 0 0 902 1092 627 246 233 196 176 144 78 94 44 14 0 0 49 0 41 19 22 28 17 25 58 14 0 0 0 0 0 0 0 0 0 0 0 0 0 0
32 90 30 231 73 2 7 0 0 0 1 795 908 911 650 406 291 255 252 157 110 0 0 7 0 105 16 21 13 13 5 6 7 22 35 0 0 0 0 0 0 0 0 0 0 0 0 0 0
14 74 19 173 3 12 0 26 0 0 0 473 499 500 591 540 364 268 261 60 32 13 3 0 0 122 115 7 11 1 15 0 0 0 0 0 0 0 0 0 0 0 0 0 0 0 0 0 0
73 26 2 91 13 2 0 24 0 0 0 43 83 278 313 405 529 288 145 34 3 1 0 0 0 476 343 216 43 30 2 0 0 0 0 0 0 0 0 0 0 0 0 0 0 0 0 0 0
55 12 5 24 1 13 2 0 0 0 0 0 0 0 0 6 129 193 191 159 79 1 17 6 93 444 394 347 264 233 144 51 8 0 16 1 0 0 0 0 0 0 0 0 0 0 0 0 0
3 3 8 6 32 35 5 0 0 0 0 0 0 0 0 0 0 5 191 347 386 287 305 367 582 618 419 406 429 394 160 103 131 88 80 31 12 9 0 0 0 0 0 0 0 0 0 0 4
0 0 2 19 43 17 1 6 0 0 0 0 0 0 0 0 0 0 55 112 255 287 398 545 522 407 351 354 452 423 347 247 87 91 126 92 52 22 35 38 26 14 18 27 30 37 44 62 4
19 39 62 46 46 12 11 3 0 0 0 0 0 0 0 0 0 0 0 0 26 189 349 381 443 430 417 466 420 413 320 227 196 120 128 128 103 79 68 75 64 69 118 189 164 146 93 36 0
10 28 30 30 43 30 15 3 0 0 0 0 0 0 0 0 0 0 0 0 0 2 163 331 385 426 469 464 166 63 61 89 106 96 44 25 35 14 44 45 47 45 63 70 6 0 0 0 0
41 0 11 66 18 97 12 5 0 0 0 0 0 0 0 0 0 0 0 0 0 0 0 223 377 434 406 271 189 221 207 252 172 32 0 0 0 0 0 0 0 0 0 0 0 0 0 0 0
28 0 0 16 0 13 15 1 0 0 0 0 0 0 0 0 0 0 0 0 0 0 0 0 154 287 246 290 275 232 109 91 2 0 0 0 0 0 0 0 0 0 0 0 0 0 0 0 0
0 4 11 10 7 1 0 0 0 0 0 0 0 0 0 0 0 0 0 0 0 0 0 0 0 62 79 174 216 171 124 0 0 0 0 0 0 0 0 0 0 0 0 0 0 0 0 0 0
1 0 0 0 0 0 0 0 0 0 0 0 0 0 0 0 0 0 0 0 0 0 0 0 0 0 0 0 35 66 21 0 0 0 0 0 0 0 0 0 0 0 0 0 0 0 0 0 0
21 0 0 0 0 0 0 0 0 0 0 0 0 0 0 0 0 0 0 0 0 0 0 0 0 0 0 0 0 0 0 0 0 0 0 0 0 0 0 0 0 0 0 0 0 0 0 0 0
0 0 0 0 0 0 0 0 0 0 0 0 0 0 0 0 0 0 0 0 0 0 0 0 0 0 0 0 0 0 0 0 0 0 0 0 0 0 0 0 0 0 0 0 0 0 0 0 0
0 0 0 0 0 0 0 0 0 0 0 0 0 0 0 0 0 0 0 0 0 0 0 0 0 0 0 0 0 0 0 0 0 0 0 0 0 0 0 0 0 0 0 0 0 0 0 0 0
0 0 0 0 0 0 0 0 0 0 0 0 0 0 0 0 0 0 0 0 0 0 0 0 0 0 0 0 0 0 0 0 0 0 0 0 0 0 0 0 0 0 0 0 0 0 0 0 0
0 0 0 0 0 0 0 0 0 0 0 0 0 0 0 0 0 0 0 0 0 0 0 0 0 0 0 0 0 0 0 0 0 0 0 0 0 0 0 0 0 0 0 0 0 0 0 0 0

GFSSGP_con_sbcape_090.txt.gz
CAPE
216 98 15 112 42 0 0 0 0 0 0 0 0 7 16 0 0 0 68 382 606 821 946 1088 1490 1334 844 245 319 302 270 350 851 1155 1239 1215 980 776 484 169 29 4 8 14 19 51 15 21 58
107 134 104 53 57 0 0 0 0 0 0 0 0 5 73 82 173 633 773 803 761 834 900 991 1460 1108 661 395 339 335 156 163 681 899 956 900 871 417 136 5 10 9 67 71 86 63 131 179 75
262 211 138 122 44 1 0 0 0 0 1 7 0 70 180 464 464 562 899 996 882 822 806 1060 1334 1076 787 577 392 229 35 28 277 591 793 817 814 137 8 11 9 12 71 56 83 164 190 58 88
197 227 217 132 32 0 0 0 0 0 0 0 0 0 403 86 411 706 1084 828 873 783 761 1168 1148 1129 983 646 389 81 2 2 23 102 419 336 106 8 8 10 8 10 72 49 138 165 155 63 161
161 85 66 151 25 0 0 0 0 0 28 25 3 9 211 484 513 1161 1059 811 655 901 826 817 1288 1051 1014 812 782 694 14 2 4 6 18 9 10 12 12 8 7 7 82 115 133 155 115 47 42
134 173 114 114 52 0 0 0 0 0 0 46 0 2 134 193 1011 1140 1019 734 558 919 730 690 832 1007 1052 685 928 1043 133 3 8 13 21 10 13 10 7 7 9 50 72 94 123 141 62 31 22
82 176 88 73 49 0 0 0 0 0 0 4 18 0 59 400 281 657 906 628 430 745 604 524 483 549 540 645 650 776 831 117 12 51 69 108 15 6 11 9 35 50 72 74 73 49 18 0 0
169 257 94 87 57 0 0 0 0 0 0 6 73 30 5 325 50 499 743 891 787 597 602 484 299 135 126 139 317 391 527 310 27 11 14 11 9 3 4 32 57 41 31 26 21 8 0 0 0
172 186 50 74 66 0 0 0 3 39 183 231 54 43 51 88 0 0 584 799 429 280 562 383 213 115 70 53 89 250 474 362 52 0 0 0 0 0 1 0 28 49 35 20 13 0 0 0 0
149 59 4 20 3 0 0 0 7 374 477 477 497 305 234 45 0 0 276 657 730 603 427 286 133 64 50 178 73 41 148 288 135 0 0 0 0 0 0 0 12 40 31 23 11 0 0 0 0
80 63 0 70 2 40 60 0 5 277 447 436 411 229 94 77 0 5 1 159 589 682 146 3 3 16 73 121 66 23 48 77 94 2 0 0 0 0 0 0 0 0 0 0 0 0 0 0 0
81 10 13 38 0 164 185 43 3 185 59 1 638 322 164 60 64 17 0 32 424 108 4 0 0 0 0 43 75 34 50 39 83 8 0 0 0 0 0 0 0 0 0 0 0 0 0 0 0
59 0 26 11 20 15 19 21 6 0 0 749 784 362 413 157 83 66 13 294 295 126 31 0 1 0 12 0 28 76 66 45 65 38 4 0 0 0 0 0 0 0 0 0 0 0 0 0 0
21 3 10 25 4 32 10 25 0 0 0 1229 755 423 474 429 373 337 241 304 244 50 31 5 33 6 5 4 15 55 81 53 42 86 38 0 0 0 0 0 0 0 0 0 0 0 0 0 0
1 54 54 0 4 172 0 10 0 0 0 506 857 444 370 343 403 326 146 88 2 0 0 0 11 14 3 44 0 7 63 70 45 49 63 26 0 0 0 0 0 0 0 0 0 0 0 0 0
23 58 60 2 0 30 1 40 0 0 0 0 131 357 483 455 409 358 183 75 0 0 0 0 16 8 84 50 40 18 4 12 30 26 17 25 1 0 0 0 0 0 0 0 0 0 0 0 0
51 19 42 2 1 70 0 16 0 0 0 0 0 0 61 268 235 225 159 55 15 0 5 6 0 54 170 287 179 123 125 39 0 0 0 5 0 0 0 0 0 0 0 0 0 0 0 0 0
4 14 7 4 37 11 8 1 0 0 0 0 0 0 0 0 189 240 212 87 30 0 0 0 1 57 179 222 168 237 251 136 47 4 6 11 0 0 0 0 0 0 0 0 0 0 0 0 0
1 16 0 2 10 9 12 10 0 0 0 0 0 0 0 0 0 26 194 173 34 0 0 0 2 155 94 108 196 310 228 244 138 103 39 20 0 0 0 0 0 0 6 6 7 33 31 45 0
46 33 41 28 20 10 10 0 0 0 0 0 0 0 0 0 0 0 135 136 377 115 59 42 32 235 346 163 83 115 156 196 137 153 38 41 32 28 17 22 25 27 22 36 121 145 75 4 0
19 2 3 3 13 33 13 0 0 0 0 0 0 0 0 0 0 0 0 0 2 235 363 339 234 334 313 278 221 47 66 51 102 84 114 82 72 70 13 21 46 33 59 116 45 7 17 3 0
39 4 58 45 6 5 0 0 0 0 0 0 0 0 0 0 0 0 0 0 0 0 28 240 286 338 310 242 175 120 118 145 157 159 67 0 0 0 0 4 14 2 0 0 0 0 0 0 0
35 1 38 8 16 13 7 0 0 0 0 0 0 0 0 0 0 0 0 0 0 0 0 0 60 116 156 194 194 146 139 21 1 1 1 1 2 0 1 0 0 0 0 0 0 0 0 0 0
4 2 12 1 3 2 0 0 0 0 0 0 0 0 0 0 0 0 0 0 0 0 0 0 0 4 67 69 145 160 106 1 0 1 0 2 4 1 0 0 0 0 0 0 0 0 0 0 0
51 2 0 0 0 0 0 0 0 0 0 0 0 0 0 0 0 0 0 0 0 0 0 0 0 0 0 0 25 50 56 3 2 0 0 1 1 0 0 0 0 0 0 0 0 0 0 0 0
2 0 0 0 0 0 0 0 0 0 0 0 0 0 0 0 0 0 0 0 0 0 0 0 0 0 0 0 0 0 0 0 0 0 0 0 0 0 0 0 0 0 0 0 0 0 0 0 0
2 0 0 0 0 0 0 0 0 0 0 0 0 0 0 0 0 0 0 0 0 0 0 0 0 0 0 0 0 0 0 0 0 0 0 0 0 0 0 0 0 0 0 0 0 0 0 0 0
0 0 0 0 0 0 0 0 0 0 0 0 0 0 0 0 0 0 0 0 0 0 0 0 0 0 0 0 0 0 0 0 0 0 0 0 0 0 0 0 0 0 0 0 0 0 0 0 0
0 0 0 0 0 0 0 0 0 0 0 0 0 0 0 0 0 0 0 0 0 0 0 0 0 0 0 0 0 0 0 0 0 0 0 0 0 0 0 0 0 0 0 0 0 0 0 0 0
0 0 0 0 0 0 0 0 0 0 0 0 0 0 0 0 0 0 0 0 0 0 0 0 0 0 0 0 0 0 0 0 0 0 0 0 0 0 0 0 0 0 0 0 0 0 0 0 0

GFSSGP_con_sbcape_093.txt.gz
CAPE
5 0 2 77 115 2 0 0 0 0 6 0 0 78 5 8 0 0 181 371 694 1033 1028 865 1196 1381 826 627 551 423 597 951 1271 1269 1489 1226 1072 802 394 27 8 5 9 21 78 24 13 17 38
11 26 64 25 72 1 0 0 0 0 0 0 0 0 112 138 295 669 645 705 942 1113 974 771 1187 1291 687 407 387 311 425 755 1127 1207 1378 1475 941 610 196 14 13 94 53 144 12 38 91 84 101
0 42 124 142 68 0 0 0 0 0 20 15 0 0 50 257 573 673 980 922 981 1061 1052 928 1183 1103 879 433 407 225 217 597 815 956 1037 946 1004 201 8 11 173 11 10 117 134 181 97 89 47
16 91 94 93 34 2 0 0 0 2 32 20 0 1 52 264 698 904 1030 1048 1024 1082 993 1157 1157 1154 1109 936 539 88 76 309 595 591 711 869 403 35 5 14 122 173 221 141 175 108 103 414 86
54 24 116 43 1 12 0 0 0 0 41 25 0 0 1 610 741 1030 1181 1067 942 997 1011 1074 1071 1180 826 734 410 26 0 68 154 316 412 211 8 8 9 10 48 82 109 161 189 113 69 58 62
97 148 96 65 3 2 8 0 0 0 142 90 36 1 3 392 813 1037 1127 973 798 916 969 769 738 1030 790 675 703 132 0 2 30 193 84 8 13 11 7 6 5 40 96 156 123 100 46 39 26
34 94 8 0 0 8 0 1 0 0 131 186 128 74 49 534 517 815 1090 816 617 849 865 748 697 679 716 739 591 325 11 9 30 24 16 28 47 8 5 5 4 56 108 154 145 73 24 2 0
111 84 17 11 2 0 10 20 0 0 0 143 196 115 46 400 97 98 861 742 925 832 698 554 491 394 246 338 401 393 40 27 17 11 25 12 3 2 2 9 52 52 93 82 53 21 0 0 0
148 87 19 8 27 0 13 73 15 1 23 368 231 103 118 38 24 64 261 670 489 311 632 292 122 52 44 46 194 255 46 0 0 5 0 7 7 3 5 0 31 71 46 37 20 8 0 0 0
110 74 16 0 13 32 72 69 37 22 117 445 496 593 222 40 0 0 2 261 383 360 340 231 175 81 39 0 109 324 311 0 0 0 0 0 0 4 0 0 6 29 25 20 7 0 0 0 0
43 50 17 5 2 169 264 96 33 5 17 282 436 698 240 3 4 16 12 6 167 409 21 70 17 80 121 62 9 120 463 307 22 0 0 0 0 1 0 2 0 0 0 0 0 0 0 0 0
49 48 51 51 82 209 195 233 181 8 0 0 579 576 266 65 70 109 136 10 12 39 8 10 20 0 0 38 63 55 138 341 64 8 0 0 0 0 0 0 0 0 0 0 0 0 0 0 0
47 0 64 66 19 145 190 40 35 45 0 0 426 557 308 151 147 108 108 6 65 63 28 26 3 0 0 2 47 53 86 224 218 52 38 16 7 0 0 0 0 0 0 0 0 0 0 0 0
56 66 45 91 97 119 96 21 0 11 0 0 521 504 362 112 122 74 4 0 93 87 47 60 38 18 14 6 43 86 75 93 225 145 104 34 13 2 0 9 0 0 0 0 0 0 0 0 0
0 0 75 68 99 89 61 0 0 0 0 6 545 442 173 162 116 22 0 18 170 45 49 67 94 80 73 67 0 32 101 100 91 187 179 77 26 17 15 17 11 0 0 0 0 0 0 0 0
6 23 40 75 82 0 0 0 1 0 0 114 224 516 357 326 115 8 2 130 157 41 0 21 37 106 159 134 27 18 12 98 90 68 86 165 58 28 30 32 42 14 0 0 0 0 0 0 0
50 36 36 97 0 20 0 0 8 0 0 0 0 5 318 510 501 252 192 32 23 16 0 16 15 91 156 169 119 102 58 24 49 69 31 58 108 58 35 27 23 0 0 0 0 0 0 1 13
1 28 46 70 42 0 1 0 0 0 0 0 0 0 45 323 227 190 105 21 0 1 0 3 1 51 146 333 208 240 216 175 100 42 15 25 56 39 14 6 1 0 0 0 0 0 0 6 57
8 39 21 126 44 7 8 2 1 0 0 0 0 0 0 0 0 50 40 39 0 2 0 3 2 45 171 189 116 142 164 264 224 217 74 11 6 19 8 0 0 0 2 0 0 11 61 134 120
54 95 86 49 4 0 0 2 3 0 0 0 0 0 0 0 0 22 136 52 0 8 11 0 0 26 208 147 135 85 190 238 388 283 130 83 18 18 7 1 0 0 19 66 99 129 216 109 43
21 34 24 6 9 0 0 3 11 0 0 0 0 0 0 0 0 0 22 135 210 19 23 19 9 26 162 177 162 164 168 71 103 229 154 107 52 20 17 7 19 32 26 48 43 36 87 200 3
46 31 28 9 0 11 0 1 2 0 0 0 0 0 0 0 0 0 0 0 26 292 213 93 55 34 108 255 181 164 58 99 84 62 12 5 11 4 2 2 7 2 0 0 0 0 0 5 49
42 21 35 2 21 0 0 1 0 0 0 0 0 0 0 0 0 0 0 0 0 0 31 212 276 162 145 122 172 36 39 88 37 40 1 0 2 1 1 1 1 0 0 0 0 0 0 0 0
12 4 0 0 0 1 2 0 0 0 0 0 0 0 0 0 0 0 0 0 0 0 0 0 20 143 123 152 170 208 199 79 39 16 2 0 0 1 1 1 2 0 0 0 0 0 0 0 0
0 2 15 0 0 0 0 0 0 0 0 0 0 0 0 0 0 0 0 0 0 0 0 0 0 0 0 56 29 48 79 55 16 12 2 1 1 1 1 0 0 0 0 0 0 0 0 0 0
5 0 0 0 0 2 0 0 0 0 0 0 0 0 0 0 0 0 0 0 0 0 0 0 0 0 0 0 0 1 0 0 0 0 1 2 1 1 0 0 0 0 0 0 0 0 0 0 0
0 0 0 0 0 0 0 0 0 0 0 0 0 0 0 0 0 0 0 0 0 0 0 0 0 0 0 0 0 0 0 0 0 0 0 0 0 0 0 0 0 0 0 0 0 0 0 0 0
0 0 0 0 0 0 0 0 0 0 0 0 0 0 0 0 0 0 0 0 0 0 0 0 0 0 0 0 0 0 0 0 0 0 0 0 0 0 0 0 0 0 0 0 0 0 0 0 0
0 0 0 0 0 0 0 0 0 0 0 0 0 0 0 0 0 0 0 0 0 0 0 0 0 0 0 0 0 0 0 0 0 0 0 0 0 0 0 0 0 0 0 0 0 0 0 0 0
0 0 0 0 0 0 0 0 0 0 0 0 0 0 0 0 0 0 0 0 0 0 0 0 0 0 0 0 0 0 0 0 0 0 0 0 0 0 0 0 0 0 0 0 0 0 0 0 0

GFSSGP_con_sbcape_096.txt.gz
CAPE
15 28 36 57 0 0 0 0 8 0 12 78 0 3 59 93 1 125 659 497 545 860 1028 884 998 1049 922 778 802 830 799 1258 1218 1338 1569 1165 756 566 139 4 6 41 17 77 291 189 12 8 4
41 52 94 86 26 2 0 2 23 0 0 73 41 2 0 127 668 621 734 522 663 809 971 773 1331 1166 977 668 669 756 791 1476 1041 1322 1332 1001 728 372 84 7 16 252 448 148 15 13 69 62 38
5 73 107 26 35 9 1 18 20 0 0 95 119 0 0 76 485 751 1006 863 793 920 980 790 1346 1145 991 578 549 593 788 1331 1220 1092 809 822 647 232 34 200 331 77 392 237 192 104 67 50 0
24 132 103 56 0 1 9 16 61 0 11 58 85 0 0 94 268 916 1072 977 1062 990 843 948 1283 1182 928 952 687 516 737 1127 894 959 785 828 600 35 38 256 161 166 446 355 98 113 115 48 0
60 70 12 4 0 0 14 38 51 0 14 140 110 17 0 371 199 884 1090 1050 904 923 794 978 1200 1326 1249 928 596 532 633 618 704 660 536 547 246 27 21 124 161 251 288 198 71 89 116 60 21
61 22 5 0 0 0 8 75 39 14 2 19 180 131 61 81 62 796 1002 1028 914 828 797 900 788 1089 1110 583 368 437 470 518 487 639 509 180 93 23 19 24 100 180 263 174 77 70 47 40 31
33 48 0 0 0 0 8 58 80 43 29 29 154 170 30 13 8 354 641 942 875 870 689 732 673 538 596 447 146 161 268 304 410 317 167 187 64 12 20 31 103 135 190 199 95 45 26 17 4
40 82 25 1 1 0 0 21 34 111 61 20 241 150 89 22 12 192 2 769 933 807 691 732 416 33 6 418 105 5 31 44 65 43 13 13 7 13 22 16 117 197 179 139 75 21 0 0 0
64 78 33 20 11 2 0 19 22 93 131 40 129 254 210 194 260 85 1 23 814 834 777 743 278 34 20 132 138 0 0 0 0 3 3 3 4 3 6 2 24 115 113 65 36 6 0 0 0
36 20 4 0 3 21 3 56 0 116 165 117 61 382 541 474 339 125 2 0 58 694 674 573 245 35 176 112 315 15 1 4 3 15 5 3 1 0 0 2 34 89 58 38 4 0 0 0 0
9 31 2 5 0 28 45 102 84 255 152 161 104 172 536 458 219 17 42 6 26 305 322 297 51 18 23 169 553 430 22 1 0 8 11 4 3 4 2 14 2 2 0 0 0 0 0 0 0
17 0 4 0 18 83 36 79 162 214 96 123 123 42 596 477 285 61 2 1 0 6 206 403 125 4 5 225 382 508 436 32 9 0 0 0 0 0 0 0 0 0 0 0 0 0 0 0 0
11 0 1 1 0 26 134 115 187 196 183 139 71 63 202 419 44 12 0 0 8 4 44 458 456 245 97 1 16 324 583 222 80 76 1 0 0 0 0 0 0 0 0 0 0 0 0 0 0
12 16 5 2 3 65 101 88 177 138 191 185 96 23 29 255 130 0 0 0 26 30 76 211 532 353 199 73 24 6 298 522 327 133 90 50 28 0 0 12 22 1 0 0 0 0 0 0 0
26 23 30 63 15 100 140 166 84 56 60 19 35 1 117 229 117 76 1 6 0 25 83 115 263 270 207 146 91 101 25 139 469 377 387 136 68 57 26 82 77 38 10 0 0 0 0 0 0
0 24 31 25 62 103 136 48 17 110 20 16 65 39 232 187 171 154 37 4 5 112 58 134 197 189 352 261 204 199 187 105 113 363 606 462 174 112 110 166 178 66 42 28 7 0 0 0 0
4 127 38 93 97 159 137 69 70 0 0 0 89 75 209 145 189 172 158 78 220 97 55 48 65 113 257 404 282 260 284 352 255 148 177 310 410 215 165 193 205 119 66 33 23 0 0 12 64
48 114 93 97 143 121 110 52 0 0 0 0 18 56 218 145 250 256 108 292 162 73 35 84 82 96 248 440 424 317 263 236 315 374 230 162 292 396 283 234 213 148 85 10 5 0 4 86 171
2 44 85 104 114 90 33 0 0 0 0 0 36 139 338 170 233 304 331 181 142 82 31 61 94 158 349 666 436 428 439 443 335 221 184 249 213 233 231 212 216 147 70 26 19 20 65 134 188
14 48 92 118 47 16 1 1 0 0 0 0 6 5 194 100 4 6 115 26 21 14 4 30 61 88 290 361 323 220 272 459 493 460 427 347 222 167 137 142 155 104 89 102 87 151 223 192 226
100 19 68 29 15 4 1 1 1 0 0 4 0 0 5 51 1 5 2 54 5 4 13 68 49 88 91 300 321 306 358 456 391 387 435 467 303 178 147 78 75 126 171 212 147 62 130 224 173
45 15 62 13 28 52 5 4 9 4 27 18 0 0 0 1 0 3 9 210 165 108 93 87 71 49 99 380 349 237 273 223 252 251 122 23 94 96 50 76 14 9 7 20 7 0 14 139 177
48 73 43 16 16 36 4 6 10 12 2 4 6 0 0 0 0 0 0 68 175 149 152 150 178 124 127 199 239 256 98 42 132 109 22 0 1 1 22 25 1 1 0 1 0 0 0 0 0
89 57 70 73 33 29 13 25 11 0 0 0 0 0 0 0 0 0 0 0 0 0 6 366 355 268 222 151 138 120 51 141 140 99 52 16 2 0 0 1 1 1 1 0 0 0 0 0 0
9 62 43 36 44 13 5 18 4 0 0 0 0 0 0 0 0 0 0 0 0 0 0 0 0 191 325 302 284 277 255 195 153 168 141 45 1 1 1 0 1 1 0 0 0 0 0 0 0
2 8 21 3 12 11 3 9 0 0 0 0 0 0 0 0 0 0 0 0 0 0 0 0 0 0 0 24 280 205 250 353 321 318 215 36 4 4 1 1 0 0 0 0 0 0 0 0 0
11 0 0 1 5 10 0 0 0 0 0 0 0 0 0 0 0 0 0 0 0 0 0 0 0 0 0 0 12 76 226 204 210 142 147 8 4 3 1 1 0 0 0 0 0 0 0 0 0
1 0 0 0 1 8 1 0 0 0 0 0 0 0 0 0 0 0 0 0 0 0 0 0 0 0 0 0 0 0 0 0 2 15 4 3 2 1 0 0 0 0 0 0 0 0 0 0 0
0 0 0 0 0 1 3 1 0 0 0 0 0 0 0 0 0 0 0 0 0 0 0 0 0 0 0 0 0 0 0 0 0 0 1 0 0 0 0 0 0 0 0 0 0 0 0 0 0
0 0 0 0 0 0 0 1 0 0 0 0 0 0 0 0 0 0 0 0 0 0 0 0 0 0 0 0 0 0 0 0 0 0 0 0 0 0 0 0 0 0 0 0 0 0 0 0 0

GFSSGP_con_sbcape_099.txt.gz
CAPE
0 14 24 88 38 8 0 0 0 0 0 30 97 54 54 141 128 331 621 432 633 1180 1192 1010 1371 1145 948 850 1163 1219 1217 1715 1647 1539 1507 995 894 588 172 313 695 257 214 467 17 9 9 4 3
0 0 36 43 26 3 0 0 0 0 2 29 92 42 121 275 539 722 883 592 606 1176 1177 697 1162 1131 1077 924 1029 1046 1298 1269 1413 1466 1539 1292 717 360 56 122 330 486 623 411 23 10 11 6 0
1 2 28 27 43 4 0 0 0 0 10 13 87 94 87 215 437 542 1017 778 685 1130 1024 814 1341 1270 1231 984 976 950 1173 1435 1173 1263 1258 982 674 171 12 231 516 567 176 33 90 52 34 0 0
3 5 26 26 0 0 0 0 0 6 25 26 68 100 52 195 262 712 1011 854 812 1075 996 1078 1384 1409 1268 1153 909 940 1294 1166 1116 1106 1099 651 765 363 321 132 333 124 462 249 83 48 0 0 0
0 8 9 0 0 0 0 0 0 2 21 20 45 64 53 87 175 433 1117 951 980 1007 853 1025 1241 1283 1219 980 884 1206 1456 1346 1190 875 689 854 656 204 339 136 167 307 415 86 136 117 49 3 0
15 0 1 0 0 0 0 0 0 1 8 19 28 98 101 57 253 719 1291 1149 989 940 1063 924 882 1141 1178 948 911 1013 1364 1154 944 789 854 774 391 139 15 20 191 359 267 80 122 123 67 30 0
1 11 0 0 0 0 0 0 0 11 16 18 3 89 103 108 346 949 1065 936 865 809 912 784 799 657 787 670 771 838 1042 866 759 754 702 307 102 118 153 175 242 525 362 115 77 43 32 21 15
0 1 1 0 0 0 0 0 1 12 21 12 33 46 112 161 333 413 118 16 0 0 939 783 742 470 364 126 271 328 451 440 387 329 24 9 10 26 101 92 212 309 474 268 71 25 7 0 0
0 10 0 0 0 0 0 0 0 5 22 22 38 82 126 407 287 106 3 0 1 1 15 759 727 268 12 3 3 22 28 20 23 0 0 2 9 12 8 6 61 210 309 166 51 14 0 0 0
7 3 0 0 0 3 5 3 1 0 28 42 41 70 61 556 360 84 19 3 0 4 6 22 591 40 6 17 0 0 0 0 1 1 1 1 0 5 9 9 49 113 103 78 33 1 0 0 0
17 10 0 0 0 2 4 23 22 13 29 65 31 96 324 631 464 165 86 62 3 1 82 0 286 74 13 82 6 0 0 0 2 3 4 2 0 0 7 11 26 41 13 2 1 0 0 0 0
1 9 2 0 0 4 30 36 50 39 74 97 63 102 218 374 264 218 77 94 76 31 0 3 86 154 167 291 134 6 0 0 8 6 0 3 7 2 2 0 0 0 0 0 0 0 0 0 0
21 4 5 1 0 2 3 20 71 20 38 81 120 157 139 144 349 200 136 114 36 2 0 0 9 66 281 432 536 112 11 2 1 12 10 4 1 0 0 0 0 0 0 0 0 0 0 0 0
23 28 18 9 4 2 6 4 26 45 54 85 223 210 101 45 222 198 165 60 62 20 0 0 172 141 115 207 345 573 71 24 14 2 0 0 0 0 0 0 0 0 0 0 0 0 0 0 0
28 27 26 7 10 14 10 24 40 21 91 161 191 181 150 87 306 95 129 84 51 0 0 0 30 326 236 148 227 465 523 252 57 110 5 0 0 0 0 27 45 19 0 0 0 0 0 0 0
21 16 7 0 10 18 71 15 20 27 129 176 160 229 174 98 158 177 104 78 73 15 15 105 193 261 388 330 232 127 211 604 548 265 250 120 77 78 66 166 124 57 37 22 2 0 0 0 0
20 13 2 1 21 49 60 40 158 136 189 154 150 189 167 100 19 245 125 55 43 104 32 100 226 181 258 436 322 232 144 190 379 555 619 469 266 199 246 253 241 131 95 53 30 4 0 0 19
10 21 27 126 36 32 62 87 177 153 157 127 104 253 60 54 124 202 102 138 119 168 111 85 89 102 79 401 406 295 339 327 259 258 319 506 476 379 297 263 238 222 187 82 25 15 0 14 49
15 9 3 21 1 27 71 73 77 80 45 43 41 164 24 43 111 195 99 182 198 331 171 51 42 90 118 369 379 368 312 344 450 439 319 252 334 444 366 415 332 312 245 135 34 14 20 99 126
16 10 1 102 89 14 67 109 97 45 1 0 0 0 122 196 3 0 105 212 200 181 61 68 51 121 125 218 373 345 514 583 463 476 404 410 332 366 432 371 343 296 278 199 106 82 220 339 173
10 10 33 61 47 64 18 90 33 9 0 0 0 0 143 204 9 0 24 95 111 38 106 38 69 112 168 184 201 345 440 480 478 555 533 514 455 457 439 341 323 300 232 142 248 259 250 260 224
61 29 8 4 39 56 46 35 1 5 1 0 0 0 259 49 1 0 7 77 28 8 55 59 48 58 73 130 134 212 264 290 317 508 422 325 311 286 332 331 223 220 139 62 41 29 92 134 148
42 26 9 0 1 11 12 28 20 7 4 0 0 5 49 15 0 5 3 77 5 5 1 20 79 103 44 69 176 250 223 153 172 265 307 215 189 223 226 221 190 74 0 0 0 0 0 0 0
0 35 28 26 30 77 40 12 27 21 5 6 4 0 2 4 5 22 2 19 86 104 118 106 104 120 139 184 116 156 52 47 65 175 220 168 48 99 75 117 56 4 0 0 0 0 1 0 0
40 7 52 56 27 30 10 21 15 2 2 0 2 0 0 0 0 0 0 0 0 5 0 12 38 254 228 314 241 188 84 8 27 66 97 160 28 1 2 1 1 0 1 1 1 1 0 0 0
13 10 66 23 32 19 11 13 16 3 8 0 0 0 0 0 0 0 0 0 0 0 0 0 0 0 6 109 356 446 430 73 35 38 109 198 67 0 1 1 1 1 1 0 0 0 0 0 0
27 22 0 11 10 1 8 8 6 2 0 0 0 0 0 0 0 0 0 0 0 0 0 0 0 0 0 0 34 262 349 334 444 341 372 381 113 12 1 1 0 1 0 0 0 0 0 0 0
5 0 4 11 19 2 1 14 28 8 4 0 0 0 0 0 0 0 0 0 0 0 0 0 0 0 0 0 0 37 118 199 271 278 165 22 3 0 0 0 0 0 0 0 0 0 0 0 0
6 2 0 0 0 3 3 12 0 1 1 0 0 0 0 0 0 0 0 0 0 0 0 0 0 0 0 0 0 0 0 0 0 11 53 0 2 0 0 0 0 0 0 0 0 0 0 0 0
0 0 0 0 0 0 0 0 0 0 0 0 0 0 0 0 0 0 0 0 0 0 0 0 0 0 0 0 0 0 0 0 0 0 0 0 0 0 0 0 0 0 0 0 0 0 0 0 0

GFSSGP_con_sbcape_102.txt.gz
CAPE
0 0 15 13 17 2 0 0 0 0 0 0 0 26 48 46 295 381 472 307 990 1192 1127 1342 1614 1318 1119 947 1489 1276 1181 1990 1842 1561 1402 1002 910 745 699 819 703 472 349 3 3 8 10 7 5
0 0 1 11 1 0 0 0 0 0 0 0 8 68 61 100 620 875 664 428 1102 1184 1021 949 1513 1347 1025 1284 1298 1618 1108 1952 1776 1457 1630 1531 927 484 867 837 926 877 695 44 6 7 3 0 0
0 0 3 6 1 0 0 0 0 0 0 0 4 64 69 60 515 875 812 583 1221 1145 922 952 1429 1336 1243 1258 1200 1329 1566 1510 1529 1414 1408 1306 1094 332 535 763 815 961 597 270 38 8 0 0 0
0 0 0 0 0 0 0 0 0 0 0 0 0 40 58 36 348 707 891 725 1094 1202 848 1013 1320 1373 1331 1379 1345 1381 1539 1301 1360 1079 1102 1003 992 503 736 673 654 238 332 279 27 0 0 0 0
0 0 0 0 0 0 0 0 0 0 0 0 1 12 90 56 261 845 915 843 985 1117 956 922 1382 1445 1396 1267 1299 1456 1458 1547 1124 1041 936 798 911 676 543 349 37 433 461 176 55 6 0 0 0
6 0 0 0 0 0 0 0 0 0 0 0 0 1 51 97 109 552 1073 998 838 1032 954 858 989 1278 1203 1233 1160 1126 1468 1345 1168 1239 914 825 751 559 14 11 11 493 238 169 129 63 21 0 0
0 0 0 0 0 0 0 0 0 0 0 0 0 0 0 204 173 846 1251 1161 100 169 934 730 652 884 832 859 897 824 1392 1209 1063 818 678 556 178 7 13 12 212 332 252 227 193 94 57 34 0
0 0 0 0 0 0 0 0 0 0 0 0 0 0 0 182 381 881 452 281 62 0 0 1 0 447 386 402 485 530 893 804 711 440 196 5 2 12 37 19 184 243 343 262 185 41 31 22 4
0 0 0 0 0 0 0 0 0 0 0 0 0 0 70 347 415 161 48 55 13 0 0 1 0 1 144 74 203 272 325 273 116 4 0 0 0 7 10 11 25 107 320 215 76 20 0 0 0
0 0 0 0 0 0 0 0 0 0 0 0 0 0 4 332 268 191 60 19 9 0 0 6 1 0 0 70 48 44 89 15 0 0 0 0 1 4 5 10 16 108 146 105 60 17 0 0 0
0 0 0 0 0 0 0 0 0 0 0 0 0 1 0 190 304 152 49 24 4 0 0 0 0 5 0 1 45 30 15 0 0 0 0 0 0 0 2 4 11 4 5 6 7 0 0 0 0
0 0 0 0 0 0 0 0 0 0 0 0 0 0 13 124 244 169 75 103 29 0 0 1 0 0 0 2 0 0 0 0 0 0 0 0 0 0 0 0 0 0 0 0 0 0 0 0 0
1 0 0 0 0 0 0 0 0 0 0 0 0 0 30 69 137 202 168 161 106 28 10 19 21 11 16 46 0 0 0 0 1 0 0 0 0 0 0 0 0 0 0 0 0 0 0 0 0
0 1 0 3 7 0 0 0 0 0 0 0 0 0 12 129 79 84 169 114 141 88 7 0 6 76 102 55 75 0 0 0 0 0 0 0 0 0 0 0 0 0 0 0 0 0 0 0 0
9 3 0 0 1 0 3 0 0 0 0 0 0 0 13 44 75 20 190 108 174 133 35 5 21 141 33 45 117 276 14 0 0 0 0 0 0 0 0 0 0 0 0 0 0 0 0 0 0
0 19 8 0 0 0 16 0 0 0 0 0 0 21 65 66 120 75 72 51 71 25 21 57 9 11 20 83 172 274 192 11 0 0 0 0 0 0 0 5 11 2 0 0 0 0 0 0 0
0 0 1 0 0 0 9 0 0 0 0 0 0 129 17 20 149 257 192 147 63 44 32 116 7 0 12 14 55 74 117 179 65 87 35 21 26 3 40 82 57 26 20 2 1 0 0 0 0
1 5 7 0 1 1 2 0 0 1 0 0 146 141 71 66 142 333 236 199 112 72 97 115 17 0 4 3 132 158 66 94 164 309 288 209 94 120 127 151 135 88 64 35 14 0 0 0 0
0 13 6 0 3 3 0 0 0 1 0 25 114 164 302 238 170 340 260 169 87 104 130 120 73 1 0 45 180 240 260 214 144 155 252 410 318 238 204 194 157 146 115 64 19 8 0 0 38
27 16 0 0 35 0 0 0 0 5 0 29 21 46 95 184 242 233 209 116 178 42 81 77 3 58 55 56 151 195 335 357 383 363 267 189 272 371 330 298 237 213 204 171 79 2 13 56 85
7 8 0 18 0 11 18 7 6 30 35 9 3 0 0 164 202 47 58 57 65 83 56 20 10 39 76 92 80 131 159 265 371 382 324 275 256 286 308 295 253 213 203 163 127 125 151 146 29
4 13 20 16 10 55 15 17 13 0 0 0 0 0 6 176 50 17 0 54 27 39 26 33 39 55 86 82 53 117 96 84 143 330 339 286 305 308 288 216 251 223 181 139 81 27 1 42 45
0 6 6 19 11 2 5 7 10 4 7 0 0 11 207 79 14 0 30 7 8 1 2 17 58 78 73 62 45 60 58 87 63 103 110 132 184 212 216 212 223 205 139 44 8 0 0 0 0
3 0 0 0 6 2 36 16 8 9 9 1 127 270 120 47 33 5 29 54 6 6 13 11 34 28 63 88 66 53 60 52 45 61 105 106 69 69 104 127 122 86 29 10 0 0 0 0 0
7 25 2 4 4 2 4 8 4 12 2 0 3 4 18 7 0 3 5 0 26 12 9 32 55 67 54 82 118 78 77 31 19 53 70 71 25 11 9 32 29 12 1 0 0 0 0 0 0
20 7 4 4 1 26 0 1 1 16 2 1 3 6 0 0 0 0 0 0 0 3 3 0 0 0 0 85 112 63 46 8 19 16 9 7 16 5 0 4 1 1 0 0 0 1 0 0 0
7 4 0 2 0 1 27 3 7 13 3 0 0 0 1 0 0 0 0 0 0 0 0 0 0 0 0 0 12 207 212 117 58 23 14 3 2 37 12 5 3 4 1 0 0 0 0 0 0
1 0 0 0 3 10 5 2 4 5 6 0 0 0 0 0 0 0 0 0 0 0 0 0 0 0 0 0 0 0 15 33 136 183 137 34 39 18 0 1 1 3 1 0 0 0 0 0 0
0 0 0 0 0 0 2 6 12 11 0 0 0 0 0 0 0 0 0 0 0 0 0 0 0 0 0 0 0 0 0 0 0 0 6 0 0 0 0 0 0 0 0 0 0 0 0 0 0
0 0 0 0 0 0 0 0 1 0 0 0 0 0 0 0 0 0 0 0 0 0 0 0 0 0 0 0 0 0 0 0 0 0 0 0 0 0 0 0 0 0 0 0 0 0 0 0 0

GFSSGP_con_sbcape_105.txt.gz
CAPE
0 0 0 0 0 0 0 0 0 0 0 0 0 0 16 86 136 22 196 900 1083 1071 1269 1363 1598 1494 1191 906 930 1174 1854 1973 1649 1644 1204 1082 930 625 769 407 741 573 235 21 11 14 22 9 1
0 0 0 0 0 0 0 0 0 0 0 0 0 0 30 325 772 580 346 814 979 1135 1182 1237 1584 1522 1048 1030 1098 976 1398 2077 1829 1569 1681 1458 862 877 949 801 694 392 19 6 7 7 8 7 0
0 0 0 0 0 0 0 0 0 0 0 0 0 10 23 292 694 667 483 995 1102 1183 1135 1164 1532 1477 1152 1302 1415 1229 1222 2022 1790 1536 1703 1395 1115 1217 828 1174 915 625 280 79 6 1 0 0 0
0 0 0 0 0 0 0 0 0 0 0 0 0 49 32 28 439 748 720 1060 1103 959 948 1293 1479 1500 1392 1559 1384 1447 1192 1678 1800 1490 1324 1192 1243 996 835 1154 725 591 412 200 7 0 0 0 0
0 0 0 0 0 0 0 0 0 0 0 0 0 12 46 251 708 667 627 966 985 758 882 1183 1472 1547 1514 1488 1427 1633 1625 1346 1565 1357 1230 986 946 844 1003 843 406 511 375 6 0 0 0 0 0
0 0 0 0 0 0 0 0 0 0 0 0 0 0 35 72 703 657 617 713 957 889 840 1017 1254 1326 1408 1494 1359 1538 1367 1492 1197 1166 1320 1079 957 876 761 398 304 453 153 17 6 0 0 0 0
0 0 0 0 0 0 0 0 0 0 0 0 0 0 0 63 181 549 337 198 143 216 171 0 175 894 1035 1180 1066 1190 1198 1403 1130 978 979 732 601 527 204 27 387 487 313 356 81 34 16 5 0
0 0 0 0 0 0 0 0 0 0 0 0 0 0 0 57 562 227 134 30 0 0 0 0 0 0 0 512 552 643 705 915 764 529 403 232 20 11 14 15 109 382 475 391 246 72 57 39 17
0 0 0 0 0 0 0 0 0 0 0 0 0 0 12 277 222 137 68 29 2 0 0 0 0 0 0 0 220 308 524 652 340 231 36 0 0 3 5 7 19 125 255 221 64 34 30 14 0
0 0 0 0 0 0 0 0 0 0 0 0 0 0 99 319 202 158 101 63 1 0 1 0 0 0 0 0 0 8 180 158 138 7 0 0 0 1 5 12 16 66 107 77 53 22 3 0 0
0 0 0 0 0 0 0 0 0 0 0 0 0 0 0 10 184 124 79 41 0 0 0 1 1 1 0 0 0 0 29 26 7 0 0 0 0 3 12 12 14 17 11 1 13 3 0 0 0
0 0 0 0 0 0 0 0 0 0 0 0 0 0 0 0 0 60 93 71 0 2 0 0 0 0 0 0 0 0 41 4 1 0 0 0 0 2 4 6 9 5 0 0 0 0 0 0 0
0 0 0 0 0 0 0 0 0 0 0 0 0 0 0 0 0 0 100 78 0 9 0 0 0 0 0 0 0 6 34 22 0 0 0 0 0 0 0 0 0 0 0 0 0 0 0 0 0
0 0 0 0 0 0 0 0 0 0 0 0 0 0 0 0 0 0 105 74 93 25 4 0 8 0 0 0 0 2 22 50 3 0 0 0 0 0 0 0 0 0 0 0 0 0 0 0 0
4 0 0 0 0 0 0 0 0 0 0 0 0 0 0 0 0 0 4 56 123 76 20 4 30 33 28 18 58 9 0 5 23 1 0 0 0 0 0 0 0 0 0 0 0 0 0 0 0
0 0 0 0 0 0 0 0 0 0 0 0 0 0 0 0 0 0 39 176 156 129 63 13 93 184 30 35 6 17 11 1 13 0 0 0 0 0 0 0 0 0 0 0 0 0 0 0 0
0 0 0 0 0 0 0 0 0 0 0 0 0 0 0 0 3 0 93 96 140 80 53 61 87 14 80 31 0 67 72 12 0 0 0 0 0 0 0 0 0 0 0 0 0 0 0 0 0
0 0 0 0 0 7 0 0 0 0 0 0 0 0 0 27 1 11 255 210 200 92 71 55 34 0 66 25 0 128 90 189 120 19 0 0 0 0 31 22 24 0 0 0 0 0 0 0 0
0 0 0 0 0 13 0 0 0 0 0 0 0 0 1 21 119 85 308 271 206 122 38 12 90 2 7 13 14 83 94 84 119 213 142 93 46 37 74 112 88 41 39 26 8 0 0 0 0
0 12 0 0 0 5 0 0 0 0 0 0 0 2 0 81 160 312 294 233 200 116 65 44 43 30 55 10 66 43 27 53 91 112 241 268 140 157 150 147 128 125 101 61 45 3 5 1 0
5 10 0 0 0 0 0 0 0 0 0 0 0 0 1 11 171 277 268 179 170 111 100 86 91 102 84 18 30 13 28 108 127 162 93 136 218 270 278 233 211 179 151 137 99 49 44 105 26
4 0 5 18 4 3 1 0 0 0 0 0 0 0 0 1 226 129 124 83 87 80 84 56 40 53 68 63 51 29 28 74 54 70 144 220 242 304 320 285 246 208 141 124 107 85 62 81 66
0 0 0 0 47 2 0 9 10 5 0 0 0 0 49 303 103 140 53 53 58 62 54 47 46 73 37 41 31 22 18 31 53 87 78 72 77 99 145 128 128 150 83 10 35 0 0 1 2
3 3 0 0 10 5 14 20 3 7 5 0 0 10 233 164 40 55 43 11 5 12 28 23 3 10 27 41 20 9 50 52 56 77 66 50 38 55 119 119 107 108 88 34 3 0 0 0 0
4 10 0 0 1 3 8 4 0 5 2 0 71 114 95 63 35 19 6 3 2 3 1 1 8 2 11 15 36 43 53 48 33 33 42 33 12 13 53 81 87 25 9 4 2 0 0 0 0
3 18 4 0 2 4 6 1 1 6 28 8 7 3 1 0 0 0 10 0 1 0 0 0 0 0 0 7 52 55 42 50 42 27 27 40 49 13 1 4 18 2 0 0 1 0 0 0 0
7 13 5 3 10 1 4 1 4 0 1 0 4 0 2 1 0 0 0 0 0 0 0 0 0 0 0 0 11 35 78 105 55 41 26 11 0 12 2 1 1 0 6 2 1 0 0 0 0
1 0 1 3 0 3 6 2 0 2 7 1 2 1 0 0 0 0 0 0 0 0 0 0 0 0 0 0 0 0 53 52 94 55 34 11 0 0 5 3 4 12 3 2 0 0 0 0 0
0 0 0 0 0 0 0 2 8 18 3 0 0 0 0 0 0 0 0 0 0 0 0 0 0 0 0 0 0 0 0 0 0 0 13 14 2 1 1 3 1 1 1 1 0 0 0 0 0
0 0 0 0 0 0 0 6 16 9 1 0 0 0 0 0 0 0 0 0 0 0 0 0 0 0 0 0 0 0 0 0 0 0 0 0 0 0 0 0 0 0 0 0 0 0 0 0 0

GFSSGP_con_sbcape_108.txt.gz
CAPE
0 0 0 0 0 0 0 0 0 0 0 0 0 0 0 0 6 0 157 544 743 841 1219 1352 1537 1455 1343 1195 1321 1996 2003 1930 1797 1677 1352 1257 819 556 592 889 729 615 151 173 52 19 5 83 113
0 0 0 0 0 0 0 0 0 0 0 0 0 0 0 19 638 405 751 940 822 1147 1216 1127 1672 1548 1158 959 799 1515 2082 1936 1726 1530 1706 1410 856 921 619 819 593 240 29 20 18 8 0 64 59
0 0 0 0 0 0 0 0 0 0 0 0 0 0 0 427 529 451 310 989 1004 1130 1108 1154 1675 1549 1191 1176 837 871 1719 1989 1864 1483 1732 1611 1122 1152 773 849 726 443 139 10 8 7 1 0 0
0 0 0 0 0 0 0 0 0 0 0 0 0 0 0 3 760 582 688 958 1025 1039 1074 1409 1597 1563 1439 1642 1546 829 1444 1934 1772 1590 1397 1447 1223 1122 1187 1021 491 260 143 7 0 0 0 0 0
0 0 0 0 0 0 0 0 0 0 0 0 0 0 0 87 334 583 983 1024 994 867 982 1342 1656 1581 1753 1556 1550 1432 1287 1877 1663 1525 1118 1274 1136 1139 828 855 624 454 327 2 0 0 0 0 0
0 0 0 0 0 0 0 0 0 0 0 0 0 0 0 0 329 357 1007 974 869 824 1102 1239 1456 1442 1495 1516 1422 1676 1778 1700 1524 1508 1281 1307 1068 905 915 751 678 372 20 0 0 0 0 0 0
0 0 0 0 0 0 0 0 0 0 0 0 0 0 0 64 47 88 108 554 603 458 104 247 795 729 1129 1259 1364 1499 1570 1261 1331 1438 1101 1003 726 789 881 611 678 248 19 3 1 0 0 0 0
0 0 0 0 0 0 0 0 0 0 0 0 0 0 0 0 138 35 39 16 0 0 0 0 0 0 0 77 546 721 984 934 1110 884 510 602 365 387 631 223 406 464 443 266 124 24 17 1 0
0 0 0 0 0 0 0 0 0 0 0 0 0 0 0 24 39 12 16 4 3 1 0 0 0 0 0 0 0 67 476 708 771 431 215 143 56 22 0 0 120 370 519 438 183 72 74 41 0
0 0 0 0 0 0 0 0 0 0 0 0 0 0 0 0 0 8 40 26 8 4 1 0 0 0 0 0 0 0 6 22 175 106 40 13 0 1 0 2 13 99 143 127 92 55 29 0 0
0 0 0 0 0 0 0 0 0 0 0 0 0 0 0 0 0 0 0 5 33 4 0 0 0 0 0 0 0 0 0 5 7 0 2 0 0 0 1 17 13 12 7 0 14 5 0 0 0
0 0 0 0 0 0 0 0 0 0 0 0 0 0 0 0 0 0 0 11 0 0 3 0 0 0 0 0 0 0 0 0 9 0 0 0 0 0 0 15 16 6 0 0 0 0 0 0 0
0 0 0 0 0 0 0 0 0 0 0 0 0 0 0 0 0 0 0 0 0 1 0 1 0 0 0 0 0 0 0 0 43 1 0 0 0 0 0 7 7 10 0 0 0 0 0 0 0
0 0 0 0 0 0 0 0 0 0 0 0 0 0 0 0 0 0 0 0 4 1 2 0 0 0 0 0 0 0 0 9 91 4 0 0 0 0 0 0 0 0 0 0 0 0 0 0 0
0 0 0 0 0 0 0 0 0 0 0 0 0 0 0 0 0 0 0 0 33 32 0 0 0 0 0 0 0 0 0 50 69 6 0 0 0 0 0 0 0 0 0 0 0 0 0 0 0
0 0 0 0 0 0 0 0 0 0 0 0 0 0 0 0 0 0 0 0 50 57 13 0 28 55 0 0 0 0 0 39 71 23 8 0 0 0 0 0 0 0 0 0 0 0 0 0 0
0 0 0 0 0 0 0 0 0 0 0 0 0 0 0 0 0 0 0 0 144 146 77 16 10 118 114 37 58 10 0 3 49 0 12 0 0 0 0 0 3 0 0 0 0 0 0 0 0
0 0 0 0 0 0 0 0 0 0 0 0 0 0 0 0 0 0 0 7 143 170 93 69 115 132 90 40 60 34 1 0 0 0 26 4 0 0 0 0 0 0 0 0 0 0 0 0 0
0 0 0 0 0 0 0 0 0 0 0 0 0 0 0 0 0 0 0 132 198 152 149 137 119 56 27 3 28 37 38 12 19 0 10 16 5 0 1 4 0 0 0 0 0 0 0 0 0
0 2 1 0 0 0 0 0 0 0 0 0 0 0 0 0 0 0 68 214 232 192 161 158 143 31 18 18 39 64 115 52 19 22 15 25 8 26 96 50 44 24 26 12 2 0 2 0 0
11 1 0 0 0 0 0 0 0 0 0 0 0 0 0 0 0 79 239 251 262 250 181 128 107 21 11 2 32 37 47 21 28 15 78 119 124 92 142 155 121 98 84 70 60 24 22 49 38
11 0 1 15 23 3 0 1 0 0 0 0 0 0 0 0 8 216 323 250 242 237 200 139 97 34 20 13 45 3 0 1 0 14 49 94 175 236 216 212 198 170 105 103 117 75 30 36 56
4 0 0 0 1 1 5 3 0 0 0 0 0 0 0 0 84 239 257 217 155 156 170 155 105 81 0 47 63 4 1 3 17 34 63 49 39 102 183 188 163 132 69 49 54 34 11 12 15
3 2 0 0 13 5 7 7 0 5 7 1 0 0 0 88 122 111 144 104 96 152 89 112 93 49 43 60 11 1 19 16 20 9 43 50 24 20 24 39 45 52 47 49 20 12 8 17 9
2 9 0 0 1 0 15 11 0 5 1 0 0 29 75 162 101 99 40 27 191 143 108 80 57 57 36 48 63 24 1 3 14 25 43 62 46 11 15 10 29 60 71 64 30 4 2 0 0
0 7 0 0 0 0 1 0 0 7 23 49 7 2 27 1 1 2 2 4 2 3 2 1 1 1 1 0 27 37 37 23 25 10 28 34 40 38 22 15 12 18 24 19 2 2 0 0 0
3 14 7 5 4 1 7 0 4 4 3 4 5 2 3 2 1 1 1 2 1 0 0 0 0 0 0 0 0 11 48 58 61 33 45 27 15 7 8 4 7 1 0 0 0 1 0 1 0
0 4 18 6 0 0 0 1 0 0 14 1 3 3 2 2 1 0 1 0 0 0 0 0 0 0 0 0 0 0 25 34 52 52 44 21 0 0 0 0 0 0 0 1 0 1 0 0 0
1 7 4 0 0 0 0 2 6 10 10 0 2 1 0 1 0 0 0 0 0 0 0 0 0 0 0 0 0 0 0 0 0 0 0 20 4 0 0 0 1 1 9 8 9 4 0 0 0
0 0 0 0 0 0 0 3 14 18 9 0 0 0 0 0 0 0 0 0 0 0 0 0 0 0 0 0 0 0 0 0 0 0 0 0 0 0 0 0 0 0 0 0 1 1 0 0 0

GFSSGP_con_sbcape_111.txt.gz
CAPE
0 0 0 0 0 0 0 0 0 0 0 0 0 0 0 0 0 0 121 543 642 892 1193 1280 1555 1604 1889 2147 2211 1999 1895 1900 1645 1069 696 736 146 394 843 949 705 437 544 374 190 14 21 14 45
0 0 0 0 0 0 0 0 0 0 0 0 0 0 0 0 461 397 770 555 699 1076 1181 1077 1518 1520 1389 1515 1787 1970 1735 1619 1670 1603 1274 1106 456 761 1032 929 785 633 267 21 16 20 46 109 11
0 0 0 0 0 0 0 0 0 0 0 0 0 0 0 0 475 288 256 790 640 1041 1114 1110 1612 1618 1352 1044 1375 1821 1931 1775 1642 1412 1609 1498 1102 889 965 863 764 353 356 8 19 12 52 6 0
0 0 0 0 0 0 0 0 0 0 0 0 0 0 0 16 322 370 769 901 924 980 932 1436 1649 1621 1532 1366 1116 1464 1752 1682 1738 1438 1346 1413 1065 1139 894 968 446 225 190 29 7 7 0 0 0
0 0 0 0 0 0 0 0 0 0 0 0 0 0 0 0 147 514 861 870 964 846 971 1439 1748 1664 1745 1731 1366 1090 1645 1820 1684 1560 1177 1191 1193 1062 947 684 332 168 24 2 0 0 0 0 0
0 0 0 0 0 0 0 0 0 0 0 0 0 0 0 0 0 77 751 707 722 924 1116 1269 1554 1592 1723 1644 1822 1305 1610 1898 1687 1394 1478 1394 1202 881 1002 458 404 116 4 0 0 0 0 0 0
0 0 0 0 0 0 0 0 0 0 0 0 0 0 0 0 0 1 119 224 357 626 816 873 1204 1260 1377 1359 1510 1552 1444 1741 1526 1304 1363 1054 1074 735 834 555 408 57 0 0 0 0 0 0 0
0 0 0 0 0 0 0 0 0 0 0 0 0 0 0 0 0 0 0 11 0 1 0 17 10 63 314 612 736 1061 1355 1144 1159 944 1024 711 507 419 702 477 379 233 34 32 2 0 0 0 0
0 0 0 0 0 0 0 0 0 0 0 0 0 0 0 0 0 0 0 0 5 4 0 0 0 0 0 0 2 71 513 797 765 655 632 228 153 181 150 101 185 244 239 197 20 15 31 11 0
0 0 0 0 0 0 0 0 0 0 0 0 0 0 0 0 0 0 0 0 0 1 0 0 0 0 0 0 0 0 54 46 151 230 46 57 64 9 0 0 68 361 324 268 175 122 56 0 0
0 0 0 0 0 0 0 0 0 0 0 0 0 0 0 0 0 0 0 0 0 0 1 0 0 0 0 0 0 0 0 11 37 7 12 3 1 0 0 0 4 22 48 33 56 13 0 0 0
0 0 0 0 0 0 0 0 0 0 0 0 0 0 0 0 0 0 0 0 0 0 0 0 0 0 0 0 0 0 0 0 20 8 0 0 0 0 0 0 0 2 8 7 0 0 0 0 0
0 0 0 0 0 0 0 0 0 0 0 0 0 0 0 0 0 0 0 0 0 0 0 0 0 0 0 0 0 0 0 0 0 39 4 0 0 0 0 0 0 2 0 0 0 0 0 0 0
0 0 0 0 0 0 0 0 0 0 0 0 0 0 0 0 0 0 0 0 0 0 0 0 0 0 0 0 0 0 0 1 27 40 35 2 2 1 0 0 0 0 0 0 0 0 0 0 0
0 0 0 0 0 0 0 0 0 0 0 0 0 0 0 0 0 0 0 0 0 0 0 0 0 0 0 0 0 0 0 2 78 58 32 21 10 4 0 0 0 0 0 0 0 0 0 0 0
0 0 0 0 0 0 0 0 0 0 0 0 0 0 0 0 0 0 0 0 0 0 0 0 0 0 0 0 0 0 0 0 62 53 27 19 0 22 0 0 0 0 0 0 0 0 0 0 0
0 0 0 0 0 0 0 0 0 0 0 0 0 0 0 0 0 0 0 0 0 0 0 0 0 0 0 0 0 0 0 0 3 68 47 5 1 7 0 0 0 0 0 0 0 0 0 0 0
0 0 0 0 0 0 0 0 0 0 0 0 0 0 0 0 0 0 0 0 0 0 42 33 15 14 60 15 14 8 6 12 0 78 11 18 1 1 1 6 0 0 0 0 0 0 0 0 0
0 0 0 0 0 0 0 0 0 0 0 0 0 0 0 0 0 0 0 0 0 0 76 68 60 82 124 92 57 26 86 17 0 52 25 21 11 1 0 14 11 0 3 2 2 0 0 0 0
0 3 0 0 0 0 0 0 0 0 0 0 0 0 0 0 0 0 0 0 6 64 128 127 128 114 125 62 33 22 37 20 0 0 15 51 24 0 1 1 0 3 16 10 0 0 0 0 0
0 2 1 0 0 0 0 0 0 0 0 0 0 0 0 0 0 0 0 0 29 118 155 160 193 132 80 79 30 27 3 7 13 8 12 2 18 2 16 18 24 30 42 33 4 0 0 14 0
3 0 2 2 20 1 0 0 0 0 0 0 0 0 0 0 0 0 4 53 134 185 180 183 200 79 37 54 38 25 5 31 10 46 45 20 25 2 40 38 25 58 80 67 46 18 14 28 34
0 0 0 1 19 0 0 4 0 0 0 0 0 0 0 0 0 1 88 135 130 205 185 169 117 91 60 43 6 10 1 10 1 21 7 14 9 12 31 79 90 152 154 140 84 32 27 23 26
1 0 0 0 8 2 3 3 0 1 9 4 0 0 0 0 6 137 190 217 200 128 89 104 130 106 58 41 48 26 0 5 3 12 6 12 9 2 8 16 26 68 80 43 43 30 25 32 24
4 21 0 0 1 0 9 12 0 7 1 0 0 0 36 57 53 141 101 150 198 109 116 128 81 47 54 63 21 24 1 4 18 14 7 10 17 28 17 6 23 27 29 33 15 3 29 21 30
1 5 1 0 0 0 6 0 0 8 8 13 9 9 15 13 3 5 1 2 2 2 69 104 39 44 5 5 5 6 6 7 10 19 20 23 4 18 15 22 2 7 5 1 10 1 0 0 0
2 23 8 6 2 2 0 0 5 1 3 2 6 6 3 1 1 4 3 10 4 2 1 2 1 1 0 0 2 20 22 14 9 26 9 29 34 50 42 32 19 3 10 9 4 0 1 1 1
1 9 11 8 0 0 0 1 0 0 5 11 17 6 3 0 0 0 1 2 2 0 0 0 0 0 0 0 0 0 0 7 36 35 36 22 11 1 6 1 2 0 0 3 0 1 0 1 1
7 12 19 12 0 0 0 2 5 4 9 16 14 3 2 0 0 0 0 0 0 0 0 0 0 0 0 0 0 0 0 0 0 0 0 1 2 1 1 0 0 0 0 0 1 1 1 1 1
0 0 0 0 0 0 0 2 8 12 13 3 0 0 0 0 0 0 0 0 0 0 0 0 0 0 0 0 0 0 0 0 0 0 0 0 0 0 0 0 0 0 0 1 1 1 0 0 0

GFSSGP_con_sbcape_114.txt.gz
CAPE
0 0 0 0 0 0 0 0 0 0 0 0 0 0 0 0 0 0 73 473 528 868 1299 1457 1859 2173 2109 1938 1964 1995 1884 1736 1265 880 531 500 360 586 622 169 173 371 621 88 15 20 7 57 12
0 0 0 0 0 0 0 0 0 0 0 0 0 0 0 0 46 243 578 500 630 1057 1184 1124 1795 2103 2206 2177 1947 1715 1918 1818 1462 589 957 502 280 791 957 577 585 585 556 296 34 29 20 23 2
0 0 0 0 0 0 0 0 0 0 0 0 0 0 0 0 207 225 92 513 836 1016 990 1024 1700 1825 1990 2133 1885 1752 1755 1718 1547 1447 1512 1174 663 1092 1018 934 881 670 305 66 93 50 45 0 0
0 0 0 0 0 0 0 0 0 0 0 0 0 0 0 0 0 5 292 544 846 887 842 1294 1681 1703 1677 1906 2137 1986 1673 1414 1433 1409 1057 1326 1340 1235 890 830 681 313 107 42 43 45 1 0 0
0 0 0 0 0 0 0 0 0 0 0 0 0 0 0 0 0 0 25 720 755 828 841 1336 1771 1786 1619 1515 1775 2085 2040 1899 1676 1467 1199 1079 1159 998 820 751 501 329 105 18 27 6 0 0 0
0 0 0 0 0 0 0 0 0 0 0 0 0 0 0 0 0 0 1 318 760 912 1188 1352 1567 1705 1741 1568 1333 1649 2052 2076 1881 1743 1508 1238 1265 960 861 424 333 38 3 7 4 0 0 0 0
0 0 0 0 0 0 0 0 0 0 0 0 0 0 0 0 0 0 0 0 188 740 763 883 1290 1400 1484 1589 1610 1201 1749 1949 1800 1614 1535 1062 703 794 869 452 186 1 2 0 0 0 0 0 0
0 0 0 0 0 0 0 0 0 0 0 0 0 0 0 0 0 0 0 0 0 4 126 156 432 619 685 874 1233 1242 1125 1587 1506 1244 1146 779 529 473 706 278 208 152 2 0 0 0 0 0 0
0 0 0 0 0 0 0 0 0 0 0 0 0 0 0 0 0 0 0 0 0 0 1 1 20 99 145 80 304 654 1119 1093 1034 943 951 472 246 272 165 134 128 80 4 9 0 0 0 0 0
0 0 0 0 0 0 0 0 0 0 0 0 0 0 0 0 0 0 0 0 0 0 0 0 1 0 1 0 2 80 274 318 316 349 258 85 72 81 185 51 75 93 76 80 41 14 0 0 0
0 0 0 0 0 0 0 0 0 0 0 0 0 0 0 0 0 0 0 0 0 0 0 0 0 0 0 0 0 1 38 64 84 83 37 30 30 5 9 1 3 43 38 6 36 39 0 0 0
0 0 0 0 0 0 0 0 0 0 0 0 0 0 0 0 0 0 0 0 0 0 0 0 0 0 0 0 0 0 10 68 119 71 52 6 0 0 0 0 0 0 3 3 0 0 0 0 0
0 0 0 0 0 0 0 0 0 0 0 0 0 0 0 0 0 0 0 0 0 0 0 0 0 0 0 0 0 0 0 0 49 117 94 24 2 0 0 0 0 0 0 0 0 0 0 0 0
0 0 0 0 0 0 0 0 0 0 0 0 0 0 0 0 0 0 0 0 0 0 0 0 0 0 0 0 0 0 0 0 0 14 92 63 32 12 0 0 1 0 0 0 0 0 0 0 0
0 0 0 0 0 0 0 0 0 0 0 0 0 0 0 0 0 0 0 0 0 0 0 0 0 0 0 0 0 0 0 0 0 2 56 68 49 16 1 0 1 0 0 0 0 0 0 0 0
0 0 0 0 0 0 0 0 0 0 0 0 0 0 0 0 0 0 0 0 0 0 0 0 0 0 0 0 0 0 0 0 1 50 36 63 85 73 32 10 11 0 0 0 0 0 0 0 0
0 0 0 0 0 0 0 0 0 0 0 0 0 0 0 0 0 0 0 0 0 0 0 0 0 0 0 0 0 0 0 0 0 32 46 68 95 96 55 33 11 1 0 0 0 0 0 0 0
0 0 0 0 0 0 0 0 0 0 0 0 0 0 0 0 0 0 0 0 0 0 0 0 0 0 0 0 0 0 0 0 0 0 44 51 57 103 75 44 5 0 0 0 3 0 0 0 0
0 0 0 0 0 0 0 0 0 0 0 0 0 0 0 0 0 0 0 0 0 0 0 0 0 0 1 2 0 1 3 0 1 0 20 55 38 37 14 12 1 1 1 1 0 9 0 0 0
0 0 0 0 0 0 0 0 0 0 0 0 0 0 0 0 0 0 0 0 0 0 0 0 17 44 46 38 22 3 24 0 0 0 11 68 44 42 5 0 0 1 1 8 5 14 23 0 0
0 0 0 0 0 0 0 0 0 0 0 0 0 0 0 0 0 0 0 0 0 0 0 0 39 103 113 127 80 53 34 4 2 1 5 45 60 33 0 0 0 0 4 4 15 19 31 24 6
0 0 0 1 6 4 0 0 0 0 0 0 0 0 0 0 0 0 0 0 0 0 0 36 93 155 104 107 103 72 39 1 4 4 0 9 32 21 0 0 0 0 1 20 47 59 55 60 42
0 0 0 0 9 1 0 1 0 0 0 0 0 0 0 0 0 0 0 0 1 30 48 111 161 152 109 86 106 51 1 0 0 1 2 1 0 7 4 0 0 0 2 18 65 55 39 59 85
0 0 0 0 18 1 0 1 0 4 7 2 0 0 0 0 0 0 0 49 140 80 145 147 171 154 84 71 48 33 16 1 1 3 5 1 6 1 22 43 78 40 40 29 35 47 32 46 39
0 12 0 0 0 0 5 14 0 7 3 4 12 22 14 9 3 1 50 83 104 95 109 117 130 148 118 82 58 34 9 0 2 0 24 1 1 1 1 1 1 1 1 2 5 13 23 17 23
2 10 1 0 0 0 1 0 0 8 3 9 14 9 1 0 3 10 4 20 34 65 70 143 88 135 130 159 101 32 32 1 6 2 16 2 0 1 1 1 1 2 4 14 15 6 1 1 8
5 26 7 7 1 1 0 0 1 0 2 3 4 5 1 1 7 5 4 2 2 1 10 43 12 2 13 37 28 2 3 0 1 2 1 2 0 1 3 7 22 20 30 30 20 18 9 2 1
1 7 28 9 0 0 0 0 0 0 5 3 16 9 3 1 1 3 4 2 2 1 1 1 1 2 1 0 0 0 1 2 15 18 10 24 14 11 3 5 12 20 26 8 0 0 0 1 1
11 20 23 20 0 0 0 1 5 4 10 10 13 3 2 1 1 0 1 2 1 0 0 0 2 2 0 0 0 0 0 0 0 0 0 0 1 1 1 1 1 1 0 0 1 1 0 1 0
0 0 2 0 0 0 0 1 9 9 11 8 1 0 0 0 0 0 0 0 0 0 0 0 0 0 0 0 0 0 0 0 0 0 0 0 0 0 0 0 0 0 0 0 0 1 1 2 3

GFSSGP_con_sbcape_117.txt.gz
CAPE
0 0 0 0 0 0 0 0 0 0 0 0 0 0 0 0 0 0 245 362 688 1049 1656 1622 2388 2115 2189 1973 2133 2015 1918 1727 1584 1503 947 589 249 288 348 116 97 425 50 16 58 71 10 19 11
0 0 0 0 0 0 0 0 0 0 0 0 0 0 0 0 89 340 635 488 749 1286 1669 1346 2328 2262 2188 2002 1901 1899 1871 1691 1399 1309 956 471 520 750 374 452 522 683 511 199 161 19 13 10 6
0 0 0 0 0 0 0 0 0 0 0 0 0 0 0 0 0 24 29 405 959 1373 1457 1341 2151 2263 2194 2050 1847 1849 1850 1727 1419 922 1274 1081 1094 963 781 1024 899 897 516 225 51 12 13 0 0
0 0 0 0 0 0 0 0 0 0 0 0 0 0 0 0 0 0 3 701 1217 1317 1253 1401 1858 1886 2017 1947 2110 1983 1845 1839 1739 1550 1524 1233 1174 1128 1022 899 884 617 277 251 127 39 0 0 0
0 0 0 0 0 0 0 0 0 0 0 0 0 0 0 0 0 0 1 509 1213 1273 1223 1354 1846 1811 1623 2091 2132 2113 2008 1929 1786 1746 1364 1455 1403 840 1131 984 579 342 209 299 104 4 0 0 0
0 0 0 0 0 0 0 0 0 0 0 0 0 0 0 0 0 0 2 1 704 1050 1188 1316 1333 1410 1641 1440 1663 1843 2039 1911 1868 1739 1693 1554 1448 993 800 839 512 216 112 75 51 0 0 0 0
0 0 0 0 0 0 0 0 0 0 0 0 0 0 0 0 0 0 0 6 1 449 902 1268 1198 1123 1464 1452 1318 1465 1572 1616 1606 1536 1407 1214 1109 1031 747 722 558 236 78 74 59 0 0 0 0
0 0 0 0 0 0 0 0 0 0 0 0 0 0 0 0 0 0 0 0 0 0 24 375 994 1183 1331 1334 1253 1008 1090 1366 1345 1345 1180 1057 718 565 689 354 310 238 138 104 14 0 0 0 0
0 0 0 0 0 0 0 0 0 0 0 0 0 0 0 0 0 0 0 0 0 4 0 0 6 641 900 939 1028 807 718 892 1271 1261 1099 926 804 684 509 171 80 146 58 29 2 0 36 0 0
0 0 0 0 0 0 0 0 0 0 0 0 0 0 0 0 0 0 0 0 0 0 0 0 0 4 110 158 534 765 928 955 1301 1212 1158 1039 894 750 557 142 45 109 49 43 61 37 42 0 0
0 0 0 0 0 0 0 0 0 0 0 0 0 0 0 0 0 0 0 0 0 0 0 0 0 0 0 0 18 279 488 541 888 875 762 860 773 675 636 457 229 90 17 4 15 8 1 0 0
0 0 0 0 0 0 0 0 0 0 0 0 0 0 0 0 0 0 0 0 0 0 0 0 0 0 0 0 0 32 65 400 649 570 473 618 677 652 555 471 239 189 62 20 32 41 14 0 0
0 0 0 0 0 0 0 0 0 0 0 0 0 0 0 0 0 0 0 0 0 0 0 0 0 0 0 0 0 0 0 122 423 533 439 313 412 514 200 333 126 205 126 33 35 62 21 0 0
0 0 0 0 0 0 0 0 0 0 0 0 0 0 0 0 0 0 0 0 0 0 0 0 0 0 0 0 0 0 0 0 4 232 380 245 215 214 139 96 40 134 158 66 36 32 13 0 0
0 0 0 0 0 0 0 0 0 0 0 0 0 0 0 0 0 0 0 0 0 0 0 0 0 0 0 0 0 0 0 0 0 1 51 127 50 75 68 102 127 81 144 25 3 33 0 0 0
0 0 0 0 0 0 0 0 0 0 0 0 0 0 0 0 0 0 0 0 0 0 0 0 0 1 1 1 0 0 0 0 0 4 2 8 100 64 46 68 135 129 21 67 4 0 5 0 0
0 0 0 0 0 0 0 0 0 0 0 0 0 0 0 0 0 0 0 0 0 0 0 0 0 0 1 1 1 0 0 0 0 0 27 40 54 136 105 100 107 92 32 56 17 0 9 5 0
0 0 0 0 0 0 0 0 0 0 0 0 0 0 0 0 0 0 0 0 0 0 0 0 0 0 0 1 2 1 0 0 0 0 0 33 92 124 144 173 92 83 91 49 28 1 0 5 26
0 0 0 0 0 0 0 0 0 0 0 0 0 0 0 0 0 0 0 0 0 0 0 0 0 0 0 5 4 4 1 0 1 2 0 1 47 88 157 213 116 69 29 5 0 0 0 1 26
0 0 0 0 0 0 0 0 0 0 0 0 0 0 0 0 0 0 0 0 0 0 0 0 0 0 0 44 49 47 37 42 27 12 0 3 5 64 99 120 88 42 23 2 1 0 0 1 1
0 0 0 0 0 0 0 0 0 0 0 0 0 0 0 0 0 0 0 0 0 0 0 0 0 0 0 53 34 76 99 85 59 53 32 23 20 34 31 18 16 20 1 4 3 0 0 0 0
0 0 0 0 11 0 0 2 0 0 0 0 0 0 0 0 0 0 0 0 0 0 0 0 0 0 61 90 61 45 64 48 47 80 39 48 51 30 13 18 20 4 21 4 7 0 3 0 0
0 0 0 0 17 12 0 13 0 0 0 1 0 0 0 0 0 0 0 0 0 0 0 0 0 37 103 98 71 74 30 27 41 58 51 53 53 52 3 2 0 1 3 0 0 0 0 0 0
0 0 0 0 0 12 0 0 0 7 10 2 0 18 25 3 1 0 0 0 0 5 9 34 61 108 139 107 83 74 55 55 43 52 46 48 29 43 2 1 0 0 0 0 9 1 3 18 21
0 2 0 0 3 0 0 18 1 6 5 3 19 6 8 3 1 3 2 4 54 83 116 130 132 152 114 99 96 66 79 81 95 72 43 15 23 6 13 4 1 1 0 0 6 0 0 26 21
0 0 0 0 0 0 1 0 0 0 2 2 4 3 1 8 3 9 3 33 43 71 111 107 147 194 150 133 108 148 123 128 88 63 65 80 40 7 9 2 0 1 1 1 0 3 9 5 4
5 23 2 15 1 2 0 1 3 0 2 7 10 5 4 4 12 15 7 5 2 1 20 116 153 204 188 174 179 96 85 96 16 19 51 2 1 1 1 0 1 1 1 2 0 1 6 6 4
4 5 32 11 0 0 0 1 2 1 5 10 14 12 5 1 4 5 6 3 1 2 2 2 2 2 3 1 1 4 1 1 1 1 1 1 2 2 1 1 1 5 2 3 1 1 1 5 1
9 14 12 24 9 1 0 0 1 1 9 12 8 7 1 0 1 2 3 2 3 1 1 1 1 2 2 3 0 0 0 0 0 0 0 1 0 1 0 0 0 1 1 1 1 2 2 2 1
0 1 3 1 1 0 0 1 5 10 11 7 0 0 0 0 0 0 0 0 1 1 1 1 2 1 0 0 0 0 0 0 0 0 0 0 0 0 0 0 0 0 0 0 0 0 0 0 0